[[{"header":{"parameterUnit":"m.s-1","parameterCategory":1,"la1":30.6,"la2":29.2853,"lo1":-89.7004,"lo2":-87.6739,"dx":0.0162,"dy":0.0183,"nx":112,"ny":82,"refTime":"2023-01-23T06:00:00:Z","depth":0,"parameterNumber":2,"parameterNumberName":"U-component_of_WINDS"},"data":[0.0,0.0,0.0,0.0,0.0,0.0,0.0,0.0,0.0,0.0,0.0,0.0,0.0,0.0,0.0,0.0,0.0,0.0,0.0,0.0,0.0,0.0,0.0,0.0,0.0,0.0,0.0,0.0,0.0,0.0,0.0,0.0,0.0,0.0,0.0,0.0,0.0,0.0,0.0,0.0,0.0,0.0,0.0,0.0,0.0,0.0,0.0,0.0,0.0,0.0,0.0,0.0,0.0,0.0,0.0,0.0,0.0,0.0,0.0,0.0,0.0,0.0,0.0,0.0,0.0,0.0,0.0,0.0,0.0,0.0,0.0,0.0,0.0,0.0,0.0,0.0,0.0,0.0,0.0,0.0,0.0,0.0,0.0,0.0,0.0,0.0,0.0,0.0,0.0,0.0,3.6357,3.8123,4.1504,4.3599,4.3479,4.2611,4.1085,3.8841,0.0,0.0,0.0,0.0,0.0,0.0,0.0,0.0,0.0,0.0,0.0,0.0,0.0,0.0,0.0,0.0,0.0,0.0,0.0,0.0,0.0,0.0,0.0,0.0,0.0,0.0,0.0,0.0,0.0,0.0,0.0,0.0,0.0,0.0,0.0,0.0,0.0,0.0,0.0,0.0,0.0,0.0,0.0,0.0,0.0,0.0,0.0,0.0,0.0,0.0,0.0,0.0,0.0,0.0,0.0,0.0,0.0,0.0,0.0,0.0,0.0,0.0,0.0,0.0,0.0,0.0,0.0,0.0,0.0,0.0,0.0,0.0,0.0,0.0,0.0,0.0,0.0,0.0,0.0,0.0,0.0,0.0,0.0,0.0,0.0,0.0,0.0,0.0,0.0,0.0,0.0,0.0,0.0,0.0,0.0,0.0,0.0,0.0,0.0,0.0,0.0,0.0,0.0,0.0,3.7913,4.1983,4.3958,4.4766,4.4227,4.2043,4.0516,4.0127,0.0,0.0,0.0,0.0,0.0,0.0,0.0,0.0,0.0,0.0,0.0,0.0,0.0,0.0,0.0,0.0,0.0,0.0,0.0,0.0,0.0,0.0,0.0,0.0,0.0,0.0,0.0,0.0,0.0,0.0,0.0,0.0,0.0,0.0,0.0,0.0,0.0,0.0,0.0,0.0,0.0,0.0,0.0,0.0,0.0,0.0,0.0,0.0,0.0,0.0,0.0,0.0,0.0,0.0,0.0,0.0,0.0,0.0,0.0,0.0,0.0,0.0,0.0,0.0,0.0,0.0,0.0,0.0,0.0,0.0,0.0,0.0,0.0,0.0,0.0,0.0,0.0,0.0,0.0,0.0,0.0,0.0,0.0,0.0,0.0,0.0,0.0,0.0,0.0,0.0,0.0,0.0,0.0,0.0,0.0,0.0,0.0,0.0,0.0,0.0,0.0,0.0,0.0,3.7375,3.9828,4.3,4.4855,4.5574,4.4915,4.2761,4.1145,4.0457,3.8212,0.0,0.0,0.0,0.0,0.0,0.0,0.0,0.0,0.0,0.0,0.0,0.0,0.0,0.0,0.0,0.0,0.0,0.0,0.0,0.0,0.0,0.0,0.0,0.0,0.0,0.0,0.0,0.0,0.0,0.0,0.0,0.0,0.0,0.0,0.0,0.0,0.0,0.0,0.0,0.0,0.0,0.0,0.0,0.0,0.0,0.0,0.0,0.0,0.0,0.0,0.0,0.0,0.0,0.0,0.0,0.0,0.0,0.0,0.0,0.0,0.0,0.0,0.0,0.0,0.0,0.0,0.0,0.0,0.0,0.0,0.0,0.0,0.0,0.0,0.0,0.0,0.0,0.0,0.0,0.0,0.0,0.0,0.0,0.0,0.0,0.0,0.0,0.0,0.0,0.0,0.0,0.0,0.0,0.0,0.0,0.0,0.0,0.0,0.0,0.0,0.0,0.0,3.9679,4.1504,4.3808,4.5424,4.6052,4.5364,4.3359,4.1624,4.0457,3.7943,0.0,0.0,0.0,0.0,0.0,0.0,0.0,0.0,0.0,0.0,0.0,0.0,0.0,0.0,0.0,0.0,0.0,0.0,0.0,0.0,0.0,0.0,0.0,0.0,0.0,0.0,0.0,0.0,0.0,0.0,0.0,0.0,0.0,0.0,0.0,0.0,0.0,0.0,0.0,0.0,0.0,0.0,0.0,0.0,0.0,0.0,0.0,0.0,0.0,0.0,0.0,0.0,0.0,0.0,0.0,0.0,0.0,0.0,0.0,0.0,0.0,0.0,0.0,0.0,0.0,0.0,0.0,0.0,0.0,0.0,0.0,0.0,0.0,0.0,0.0,0.0,0.0,0.0,0.0,0.0,0.0,0.0,0.0,0.0,0.0,0.0,0.0,0.0,0.0,0.0,0.0,0.0,0.0,0.0,0.0,0.0,0.0,0.0,0.0,0.0,0.0,0.0,4.1235,4.2551,4.5783,4.6232,4.6052,4.5364,4.294,4.1145,4.0457,3.7943,0.0,0.0,0.0,0.0,0.0,0.0,0.0,0.0,0.0,0.0,0.0,0.0,0.0,0.0,0.0,0.0,0.0,0.0,0.0,0.0,0.0,0.0,0.0,0.0,0.0,0.0,0.0,0.0,0.0,0.0,0.0,0.0,0.0,0.0,0.0,0.0,0.0,0.0,0.0,0.0,0.0,0.0,0.0,0.0,0.0,0.0,0.0,0.0,0.0,0.0,0.0,0.0,0.0,0.0,0.0,0.0,0.0,0.0,0.0,0.0,0.0,0.0,0.0,0.0,0.0,0.0,0.0,0.0,0.0,0.0,0.0,0.0,0.0,0.0,0.0,0.0,0.0,0.0,0.0,0.0,0.0,0.0,0.0,0.0,0.0,0.0,0.0,0.0,0.0,0.0,0.0,0.0,0.0,0.0,0.0,0.0,0.0,0.0,0.0,0.0,0.0,0.0,4.1743,4.309,0.0,4.6681,4.6501,4.5394,4.4467,4.3092,4.119,0.0,0.0,0.0,0.0,0.0,0.0,0.0,0.0,0.0,0.0,0.0,0.0,0.0,0.0,0.0,0.0,0.0,0.0,0.0,0.0,0.0,0.0,0.0,0.0,0.0,0.0,0.0,0.0,0.0,0.0,0.0,0.0,0.0,0.0,0.0,0.0,0.0,0.0,0.0,0.0,0.0,0.0,0.0,0.0,0.0,0.0,0.0,0.0,0.0,0.0,0.0,0.0,0.0,0.0,0.0,0.0,0.0,0.0,0.0,0.0,0.0,0.0,0.0,0.0,0.0,0.0,0.0,0.0,0.0,0.0,0.0,0.0,0.0,0.0,0.0,0.0,0.0,0.0,0.0,0.0,0.0,0.0,0.0,0.0,0.0,0.0,0.0,0.0,0.0,0.0,0.0,0.0,0.0,0.0,0.0,0.0,0.0,0.0,0.0,0.0,0.0,0.0,4.1324,4.2073,4.3449,0.0,4.6651,4.6376,4.5777,4.5135,4.4051,4.2236,0.0,0.0,0.0,0.0,0.0,0.0,0.0,0.0,0.0,0.0,0.0,0.0,0.0,0.0,0.0,0.0,0.0,0.0,0.0,0.0,0.0,0.0,0.0,0.0,0.0,0.0,0.0,0.0,0.0,0.0,0.0,0.0,0.0,0.0,0.0,0.0,0.0,0.0,0.0,0.0,0.0,0.0,0.0,0.0,0.0,0.0,0.0,0.0,0.0,0.0,0.0,0.0,0.0,0.0,0.0,0.0,0.0,0.0,0.0,0.0,0.0,0.0,0.0,0.0,0.0,0.0,0.0,0.0,0.0,0.0,0.0,0.0,0.0,0.0,0.0,0.0,0.0,0.0,0.0,0.0,0.0,0.0,0.0,0.0,0.0,0.0,0.0,0.0,0.0,0.0,0.0,0.0,0.0,0.0,0.0,0.0,0.0,0.0,0.0,0.0,0.0,0.0,4.1923,4.2449,4.3658,4.695,4.6112,4.5604,4.6462,4.4695,4.3583,0.0,0.0,0.0,0.0,0.0,0.0,0.0,0.0,0.0,0.0,0.0,0.0,0.0,0.0,0.0,0.0,0.0,0.0,0.0,0.0,0.0,0.0,0.0,0.0,0.0,0.0,0.0,0.0,0.0,0.0,0.0,0.0,0.0,0.0,0.0,0.0,0.0,0.0,0.0,0.0,0.0,0.0,0.0,0.0,0.0,0.0,0.0,0.0,0.0,0.0,0.0,0.0,0.0,0.0,0.0,0.0,0.0,0.0,0.0,0.0,0.0,0.0,0.0,0.0,0.0,0.0,0.0,0.0,0.0,0.0,0.0,0.0,0.0,0.0,0.0,0.0,0.0,0.0,0.0,0.0,0.0,0.0,0.0,0.0,0.0,0.0,0.0,0.0,0.0,0.0,0.0,0.0,0.0,0.0,0.0,0.0,0.0,0.0,0.0,0.0,0.0,0.0,0.0,4.2256,4.3698,4.5263,4.7126,4.695,4.6629,4.6524,4.6423,4.6002,4.5159,0.0,0.0,0.0,0.0,0.0,0.0,0.0,0.0,0.0,0.0,0.0,0.0,0.0,0.0,0.0,0.0,0.0,0.0,0.0,0.0,0.0,0.0,0.0,0.0,0.0,0.0,0.0,0.0,0.0,0.0,0.0,0.0,0.0,0.0,0.0,0.0,0.0,0.0,0.0,0.0,0.0,0.0,0.0,0.0,0.0,0.0,0.0,0.0,0.0,0.0,0.0,0.0,0.0,0.0,0.0,0.0,0.0,0.0,0.0,0.0,0.0,0.0,0.0,0.0,0.0,0.0,0.0,0.0,0.0,0.0,0.0,0.0,0.0,0.0,0.0,0.0,0.0,0.0,0.0,0.0,0.0,0.0,0.0,0.0,0.0,0.0,0.0,0.0,0.0,0.0,0.0,0.0,0.0,0.0,0.0,0.0,0.0,0.0,0.0,0.0,0.0,0.0,4.3267,4.4922,4.6609,4.811,4.8079,4.7916,4.7917,4.7775,4.7549,4.7103,0.0,0.0,0.0,0.0,0.0,0.0,0.0,0.0,0.0,0.0,0.0,0.0,0.0,0.0,0.0,0.0,0.0,0.0,0.0,0.0,0.0,0.0,0.0,0.0,0.0,0.0,0.0,0.0,0.0,0.0,0.0,0.0,0.0,0.0,0.0,0.0,0.0,0.0,0.0,0.0,0.0,0.0,0.0,0.0,0.0,0.0,0.0,0.0,0.0,0.0,0.0,0.0,0.0,0.0,0.0,0.0,0.0,0.0,0.0,0.0,0.0,0.0,0.0,0.0,0.0,0.0,0.0,0.0,0.0,0.0,0.0,0.0,0.0,0.0,0.0,0.0,0.0,0.0,0.0,0.0,0.0,0.0,0.0,0.0,0.0,0.0,0.0,0.0,0.0,0.0,0.0,0.0,0.0,0.0,0.0,0.0,0.0,0.0,0.0,0.0,0.0,0.0,4.4725,4.6222,4.7795,4.9805,4.9426,4.94,5.0057,4.8868,4.8409,4.906,0.0,0.0,0.0,0.0,0.0,0.0,0.0,0.0,0.0,0.0,0.0,0.0,0.0,0.0,0.0,0.0,0.0,0.0,0.0,0.0,0.0,0.0,0.0,0.0,0.0,0.0,0.0,0.0,0.0,0.0,0.0,0.0,0.0,0.0,0.0,0.0,0.0,0.0,0.0,0.0,0.0,0.0,0.0,0.0,0.0,0.0,0.0,0.0,0.0,0.0,0.0,0.0,0.0,0.0,0.0,0.0,0.0,0.0,0.0,0.0,3.9787,0.0,0.0,0.0,0.0,0.0,0.0,0.0,0.0,0.0,0.0,0.0,0.0,0.0,0.0,0.0,0.0,0.0,0.0,0.0,0.0,0.0,0.0,0.0,0.0,0.0,0.0,0.0,0.0,0.0,0.0,0.0,0.0,0.0,0.0,0.0,0.0,0.0,0.0,0.0,0.0,0.0,4.6335,4.8093,4.9865,5.1389,5.1403,5.1216,5.0898,5.0098,4.9414,4.9126,4.81,0.0,0.0,0.0,0.0,0.0,0.0,0.0,0.0,0.0,0.0,0.0,0.0,0.0,0.0,0.0,0.0,0.0,0.0,0.0,0.0,0.0,0.0,0.0,0.0,0.0,0.0,0.0,0.0,0.0,0.0,0.0,0.0,0.0,0.0,0.0,0.0,0.0,0.0,0.0,0.0,0.0,0.0,0.0,0.0,0.0,0.0,0.0,0.0,0.0,0.0,0.0,0.0,0.0,0.0,0.0,0.0,0.0,0.0,0.0,0.0,4.2397,0.0,0.0,0.0,0.0,0.0,0.0,0.0,0.0,0.0,0.0,0.0,0.0,0.0,0.0,0.0,0.0,0.0,0.0,0.0,0.0,0.0,0.0,0.0,0.0,0.0,0.0,0.0,0.0,0.0,0.0,0.0,0.0,0.0,0.0,0.0,0.0,0.0,0.0,0.0,0.0,4.8297,4.9746,5.132,5.2981,5.3207,5.3071,5.2735,5.1794,5.0856,5.022,4.9127,0.0,0.0,0.0,0.0,0.0,0.0,0.0,0.0,0.0,0.0,0.0,0.0,0.0,0.0,0.0,0.0,0.0,0.0,0.0,0.0,0.0,0.0,0.0,0.0,0.0,0.0,0.0,0.0,0.0,0.0,0.0,0.0,0.0,0.0,0.0,0.0,0.0,0.0,0.0,0.0,0.0,0.0,0.0,0.0,0.0,0.0,0.0,0.0,0.0,0.0,0.0,0.0,0.0,4.4625,4.4885,4.5178,4.547,4.6224,4.7275,4.6618,4.5865,4.5082,4.4365,0.0,0.0,0.0,0.0,0.0,0.0,0.0,0.0,0.0,0.0,0.0,0.0,0.0,0.0,0.0,0.0,0.0,0.0,0.0,0.0,0.0,0.0,0.0,0.0,4.4363,4.4919,0.0,0.0,0.0,0.0,0.0,0.0,0.0,0.0,0.0,0.0,0.0,0.0,5.0253,5.1181,5.2473,5.4659,5.4891,5.4858,5.4725,5.35,5.2445,5.1582,5.0156,4.9094,0.0,0.0,0.0,0.0,0.0,0.0,0.0,0.0,0.0,0.0,0.0,0.0,0.0,0.0,0.0,0.0,0.0,0.0,0.0,0.0,0.0,0.0,0.0,0.0,0.0,0.0,0.0,0.0,0.0,0.0,0.0,0.0,3.5759,3.6417,0.0,0.0,0.0,0.0,0.0,0.0,0.0,0.0,0.0,0.0,0.0,0.0,0.0,4.2446,4.346,4.3686,4.4691,4.6377,4.7803,4.9128,5.0388,5.1631,5.2371,5.2539,5.2371,0.0,4.6546,4.5881,0.0,0.0,0.0,0.0,0.0,0.0,0.0,0.0,0.0,0.0,0.0,0.0,0.0,0.0,0.0,0.0,0.0,0.0,0.0,0.0,0.0,0.0,4.6185,4.5497,4.6979,4.8266,0.0,4.5142,4.3802,4.5011,4.4788,0.0,0.0,0.0,0.0,0.0,0.0,0.0,5.1711,5.2705,5.3964,5.615,5.6415,5.615,5.5521,5.4874,5.3884,5.252,5.1228,5.0159,4.9423,4.8687,0.0,0.0,0.0,0.0,0.0,0.0,0.0,0.0,0.0,0.0,0.0,0.0,0.0,0.0,0.0,0.0,0.0,0.0,0.0,0.0,0.0,0.0,0.0,0.0,0.0,0.0,0.0,0.0,0.0,3.6357,3.6836,3.7494,3.7225,3.7015,0.0,0.0,0.0,0.0,0.0,0.0,0.0,0.0,0.0,4.4772,4.5368,4.6293,4.7799,4.8354,4.9523,5.1156,5.1865,5.2941,5.4384,5.5036,5.5581,5.5953,5.5547,5.4023,5.1665,4.9214,4.7989,4.7428,0.0,0.0,0.0,0.0,4.6583,4.6929,4.7113,4.7154,0.0,4.6971,0.0,0.0,0.0,0.0,0.0,0.0,0.0,0.0,0.0,0.0,4.8198,4.7736,4.9028,5.0121,4.9392,4.8918,4.8511,0.0,4.7671,4.7309,4.7571,0.0,0.0,0.0,0.0,5.0154,5.2638,5.3599,5.4891,5.7077,5.6945,5.679,5.7,5.6012,5.4822,5.3465,5.2432,5.1497,5.0423,4.9586,4.9248,0.0,0.0,0.0,0.0,0.0,0.0,0.0,0.0,0.0,0.0,0.0,0.0,0.0,0.0,0.0,0.0,0.0,0.0,0.0,0.0,0.0,0.0,0.0,0.0,0.0,0.0,0.0,0.0,3.7165,3.7793,3.8093,3.8153,3.8123,0.0,0.0,0.0,0.0,0.0,0.0,4.3872,4.4471,4.5801,4.8063,4.9199,5.0648,5.2557,5.3175,5.428,5.5716,5.5919,5.6697,5.7949,5.7949,5.8254,5.8727,5.7983,5.7239,5.6292,5.2706,5.0811,5.0033,4.8951,4.8511,4.8511,4.8511,4.8849,4.9357,4.9198,4.9198,4.9102,4.874,0.0,4.7234,4.6971,0.0,0.0,0.0,0.0,4.8058,4.7801,4.9094,5.0426,5.0124,5.1118,5.198,5.132,5.2018,5.2283,0.0,4.9922,4.9591,4.9459,0.0,0.0,0.0,0.0,5.1479,5.3506,5.4568,5.5828,5.7686,5.7553,5.7565,5.813,5.7163,5.6003,5.4716,5.3847,5.2841,5.1663,5.0589,5.0048,5.0101,0.0,0.0,0.0,0.0,0.0,0.0,0.0,0.0,0.0,0.0,0.0,0.0,0.0,0.0,0.0,0.0,0.0,0.0,0.0,0.0,0.0,0.0,0.0,0.0,0.0,0.0,0.0,0.0,0.0,3.7524,3.911,0.0,0.0,0.0,0.0,4.1475,4.3117,4.4475,4.5295,4.8688,5.1038,5.1912,5.3428,5.5035,5.6487,5.6558,5.7302,5.8795,5.9505,6.025,6.1061,6.1061,6.1095,6.1095,6.0283,5.9539,5.8626,5.5615,5.3923,5.3281,5.3179,5.3179,5.3179,5.3179,5.3179,5.3213,5.3213,5.3213,5.3112,5.2334,5.1116,4.9734,4.8933,4.8668,0.0,0.0,4.9291,5.046,5.009,5.1752,5.3323,5.2657,5.359,5.4422,5.3904,5.3874,5.3165,0.0,5.0717,5.1018,5.0425,0.0,5.0523,5.1496,5.1988,5.2876,5.4482,5.5988,5.7187,5.8019,5.8685,5.8897,5.8385,5.8327,5.7733,5.6477,5.5171,5.4194,5.3416,5.1961,5.0811,5.0101,4.9266,0.0,0.0,0.0,0.0,0.0,0.0,0.0,0.0,0.0,0.0,0.0,0.0,0.0,0.0,0.0,0.0,0.0,0.0,0.0,0.0,0.0,0.0,0.0,0.0,0.0,0.0,0.0,0.0,4.122,4.2879,0.0,4.2891,4.4129,4.5384,4.622,4.8124,5.0349,5.2637,5.3989,5.571,5.7851,5.8575,5.9386,6.0244,6.0391,6.0926,6.1907,6.2178,6.2685,6.3429,6.3429,6.3429,6.3362,6.211,6.1704,6.1738,5.9742,5.734,5.4938,5.4938,5.4363,5.3551,5.4025,5.4194,5.4194,5.4194,5.4194,5.4093,5.3315,5.2706,5.2232,5.193,5.1763,5.163,5.1464,5.2169,5.2941,5.2697,5.367,5.4716,5.4305,5.5375,5.6244,5.5548,5.6519,5.6854,5.4501,5.3532,5.2927,5.2416,5.2557,5.2694,5.2961,5.3956,5.5122,5.6237,5.7563,5.8764,5.9577,5.9555,5.9566,5.9957,5.9118,5.8261,5.7398,5.6052,5.4972,5.4228,5.2739,5.1792,5.1522,5.0274,4.9429,0.0,0.0,0.0,0.0,0.0,0.0,0.0,0.0,0.0,0.0,0.0,0.0,0.0,0.0,0.0,0.0,0.0,0.0,0.0,0.0,0.0,0.0,0.0,0.0,0.0,0.0,4.3701,4.4092,4.6272,4.7608,4.741,4.8747,5.0041,5.1295,5.324,5.5476,5.7734,5.8885,6.0265,6.2182,6.2589,6.3121,6.3802,6.3593,6.3869,6.4647,6.4884,6.5256,6.5696,6.5696,6.5595,6.529,6.4038,6.3632,6.3802,6.2821,6.0791,5.8287,5.778,5.6833,5.5784,5.6258,5.6461,5.6461,5.6461,5.6122,5.5615,5.5141,5.4668,5.4262,5.4262,5.416,5.4022,5.3919,5.4696,5.5471,5.5152,5.5962,5.6881,5.6734,5.7473,5.8043,5.7614,5.869,5.9261,5.7708,5.6157,5.494,5.4489,5.4567,5.4812,5.4974,5.6003,5.6972,5.7591,5.8886,6.0023,6.065,6.0528,6.0438,6.0593,5.9876,5.8875,5.7611,5.663,5.5649,5.4634,5.3619,5.2841,5.23,5.1082,5.0236,4.9763,0.0,0.0,0.0,0.0,0.0,0.0,0.0,0.0,0.0,0.0,0.0,0.0,0.0,0.0,0.0,0.0,0.0,0.0,0.0,0.0,0.0,0.0,0.0,4.1039,4.3518,4.5758,4.6067,4.9035,5.1528,5.2797,5.3681,5.4879,5.6561,5.8181,5.9481,6.0087,6.2983,6.4656,6.4627,6.5346,6.617,6.6914,6.617,6.617,6.688,6.759,6.7929,6.7929,6.7929,6.7557,6.6846,6.6068,6.5358,6.4749,6.4681,6.4241,6.3463,6.1975,6.0892,6.0182,6.0182,6.0148,6.0114,6.0114,5.9167,5.7949,5.7949,5.7002,5.5852,5.5818,5.5852,5.5781,5.5572,5.6689,5.7876,5.7506,5.858,5.9843,5.9843,5.9876,5.9987,6.014,6.0216,6.0173,5.9987,5.858,5.7297,5.6673,5.6432,5.6593,5.7554,5.8178,0.0,5.8495,6.0035,6.1054,6.1054,6.1627,6.1537,6.0283,6.056,5.9717,5.707,5.6799,5.6122,5.4668,5.4566,5.3856,5.2334,5.1623,5.1251,5.1217,0.0,0.0,0.0,0.0,0.0,0.0,0.0,0.0,0.0,0.0,0.0,0.0,0.0,0.0,0.0,0.0,0.0,0.0,0.0,0.0,0.0,0.0,4.7035,4.6244,4.9655,5.2493,5.305,5.653,5.8691,5.8378,5.9826,6.1107,6.2121,6.2732,6.3799,6.5612,6.5986,6.6965,6.8526,6.835,6.8504,6.9248,6.8538,6.8267,6.847,6.8673,6.8774,6.8774,6.8774,6.8673,6.8436,6.7624,6.7523,6.7793,6.6677,6.6102,6.5764,6.4275,6.2888,6.1772,6.1772,6.1061,6.0114,6.0114,5.9844,5.9505,5.9505,5.9235,5.8795,5.8254,5.849,5.8795,5.818,5.8687,5.9505,5.9355,6.0063,6.0883,6.0883,6.1728,6.2505,6.2584,6.299,6.3226,6.2606,6.2088,6.1133,5.905,5.8867,5.9085,5.917,5.9809,0.0,6.1244,6.2076,6.2649,6.2843,6.3012,6.2707,6.1839,6.0849,5.9768,5.849,5.69,5.5581,5.4634,5.4093,5.3315,5.2334,5.2097,5.1725,0.0,0.0,0.0,0.0,0.0,0.0,0.0,0.0,0.0,0.0,0.0,0.0,0.0,0.0,0.0,0.0,0.0,0.0,0.0,0.0,0.0,0.0,4.9952,5.2162,5.3825,5.5292,5.6759,5.8073,6.1098,6.3129,6.3429,6.4443,6.5426,6.633,6.6457,6.7184,6.8774,6.847,6.8977,7.0601,7.0263,7.0229,7.0669,7.0534,7.05,7.05,7.0804,7.0939,7.0939,7.0635,7.0297,6.9992,6.9214,6.8944,6.9045,6.8132,6.776,0.0,0.0,0.0,0.0,0.0,6.2753,6.1941,6.1637,6.1332,6.0994,6.0689,6.0385,6.0013,5.9607,5.9776,6.0013,5.9573,6.0216,6.1061,6.1061,6.1873,6.2685,6.2685,6.3328,6.3971,6.3971,6.4309,6.4478,6.4038,6.3971,0.0,6.1896,6.1582,6.1457,6.1223,6.1908,6.2527,6.2695,6.3337,6.3809,6.3971,6.3971,6.3666,6.2922,6.2042,0.0,0.0,0.0,5.6021,5.4634,5.389,0.0,0.0,0.0,5.2604,5.2164,0.0,0.0,0.0,5.0676,5.0338,0.0,0.0,0.0,0.0,0.0,0.0,0.0,0.0,0.0,0.0,0.0,0.0,0.0,0.0,0.0,0.0,5.4458,5.8217,6.2098,6.0717,6.0076,6.2121,6.4152,6.604,6.7732,6.8092,6.856,6.9262,6.9417,6.9755,7.0398,0.0,0.0,0.0,0.0,7.1548,7.1548,7.2191,7.2529,7.2529,7.3172,7.3477,7.3477,7.28,7.2157,7.1515,7.0872,7.0195,6.9586,6.9519,6.9383,6.9011,6.6914,6.5561,6.485,6.485,6.4749,6.4512,6.3869,0.0,0.0,6.1873,6.1197,6.0588,6.052,6.0554,6.0588,6.052,6.1535,6.2651,6.2651,6.3666,6.4715,6.4715,6.4783,6.485,6.485,6.485,6.485,6.485,6.485,6.485,6.485,6.4174,6.3552,6.3391,6.4093,6.4329,6.3593,6.4228,6.4715,6.4715,0.0,0.0,6.37,6.3565,6.2313,5.9438,5.8389,5.6968,5.4938,5.4228,5.4126,5.4702,5.4093,5.3754,5.3754,5.3653,5.3687,5.3721,5.2198,5.1488,0.0,0.0,0.0,0.0,0.0,0.0,0.0,0.0,0.0,0.0,0.0,0.0,0.0,0.0,0.0,5.4667,5.8374,6.2038,6.5194,6.6925,6.751,6.6776,6.8673,6.9917,6.9701,7.13,7.1941,7.0973,7.1447,7.1819,7.1954,7.1954,7.2293,7.3037,7.3071,7.3071,7.3071,7.3206,7.3274,7.3274,0.0,0.0,7.3477,7.3341,7.3206,7.3071,7.2902,7.2766,7.2597,7.2022,7.1041,6.9857,6.8842,6.759,6.6373,6.6373,6.5628,6.458,6.4444,6.4275,6.414,6.4005,6.3869,6.3632,6.3024,6.326,0.0,6.3024,6.3497,6.4174,6.4174,6.4816,6.5493,6.5493,6.5933,6.6373,6.6373,6.6373,6.6373,6.6373,6.6373,6.6373,6.6373,6.529,6.4377,6.4295,6.4512,6.4749,6.5106,6.5392,6.5493,6.5493,6.5493,6.5189,6.4444,6.3869,6.2753,6.096,5.8998,5.7442,5.6427,5.6224,5.5953,5.5513,5.5378,5.5277,5.5277,5.4668,5.4702,5.5243,5.3754,5.3078,0.0,0.0,0.0,0.0,0.0,0.0,0.0,0.0,0.0,0.0,0.0,4.9368,0.0,0.0,5.6763,5.9443,6.2757,6.5867,6.8499,7.0276,7.1007,7.0229,7.1481,7.2259,7.1887,7.2834,7.3037,7.1954,7.2529,7.28,7.2428,7.2732,7.3105,7.3477,7.3849,7.3883,7.3477,7.4221,7.4424,7.4052,7.4424,7.4593,7.4593,7.4221,7.4052,7.4018,7.3646,7.3477,7.3443,7.3105,7.2496,7.1751,7.1041,6.935,6.732,6.6948,6.6339,6.5662,6.529,6.5155,6.5087,6.4715,6.4613,6.4546,6.4174,6.458,6.5053,6.4715,6.5121,6.5696,6.5696,6.6237,6.6711,6.6339,6.6812,6.7252,6.688,6.6812,6.6812,6.6812,6.6812,6.6812,6.6812,6.6203,6.5696,6.5696,6.5696,6.5831,6.6203,6.6237,6.6237,6.6237,6.6237,6.6102,6.573,6.4715,6.3429,6.1941,6.0419,5.9099,5.7949,5.7915,5.7543,5.6833,5.6461,5.6258,5.6258,5.5513,5.5344,5.5683,5.4938,5.46,0.0,0.0,0.0,0.0,0.0,0.0,0.0,0.0,5.0253,5.0843,5.2131,5.3658,5.5372,5.8504,6.1582,6.4005,6.6745,6.9316,7.1447,7.236,7.2868,7.3037,7.3443,7.3646,7.351,7.3747,7.3544,7.2665,7.3409,7.3612,7.2868,7.351,7.3916,7.3916,7.4492,7.4525,7.3916,7.51,7.5405,7.483,7.5439,7.5709,7.5676,7.51,7.483,7.4796,7.4187,7.3916,7.3916,7.3747,7.3612,7.3409,7.2699,7.0838,6.847,6.7726,6.7387,6.7184,6.6576,6.6237,6.6034,6.5425,6.5256,6.5222,6.5087,6.5527,6.6102,6.5933,6.6339,6.6812,6.6812,6.7354,6.776,6.7151,6.7489,6.7827,6.7523,6.7117,6.6948,6.7387,6.7218,6.7083,6.7218,6.7252,6.7218,6.7049,6.7015,6.7083,6.7252,6.7252,6.7252,6.7252,6.7117,6.6981,6.6812,6.5595,6.4309,6.3091,6.2347,6.1332,5.9945,5.9742,5.9302,5.8558,5.7814,5.7442,5.7442,5.6731,5.6427,5.6562,5.6258,5.5987,0.0,0.0,0.0,4.8956,4.9936,5.1085,0.0,0.0,5.5137,5.5879,5.7195,5.868,6.0232,6.2471,6.4816,6.7049,6.9383,7.1481,7.3003,7.3883,7.4593,7.5236,7.483,7.4221,7.3544,7.4661,7.4864,7.3477,7.4661,7.5134,7.439,7.5067,7.5439,7.5439,7.554,7.554,7.5439,7.5608,7.5676,7.5574,7.5676,7.5709,7.5709,7.5608,7.5574,7.5574,7.5473,7.5439,7.5405,7.4762,7.4086,7.3409,7.2699,7.1785,7.0838,7.0094,6.9417,6.8842,6.8741,6.8233,6.7624,6.7557,6.7523,6.7421,6.6745,6.7083,6.7523,6.688,6.6745,6.6812,6.6812,6.7354,6.7895,6.7793,6.7827,6.8233,6.9519,6.8233,6.7421,6.9417,6.8707,6.7996,6.8707,6.8842,6.8605,6.7895,6.7793,6.803,6.8741,6.8842,6.8842,6.8842,6.8199,6.7523,6.688,6.6034,6.5493,6.5324,6.4647,6.3869,6.3057,6.2381,6.167,6.0926,6.0148,5.9742,5.9742,5.8998,5.8964,5.9573,5.8254,5.6934,5.0507,0.0,0.0,0.0,5.2401,5.4025,5.4769,5.6325,5.7983,5.9167,6.0588,6.2347,6.4715,6.6609,6.8436,0.0,7.2056,7.3443,7.4052,7.4796,7.5033,7.4492,7.4525,7.4661,7.4762,7.5337,7.527,7.4221,7.51,7.5371,7.4661,7.5303,7.5709,7.5709,7.5709,7.5709,7.5709,7.5709,7.5709,7.5709,7.5709,7.5709,7.5709,7.5709,7.5709,7.5709,7.5709,7.5709,7.5676,7.5371,7.5067,7.4695,7.3984,7.351,7.3003,7.0939,6.9992,6.9688,6.9248,6.8876,6.8605,6.8605,6.8605,6.8605,6.8741,6.9282,6.9925,7.0026,6.9755,6.9519,6.9958,6.9654,6.9248,6.9248,6.9248,6.9282,6.9519,6.8808,6.8436,6.9383,6.9383,6.935,6.9688,7.0094,7.0432,7.05,6.9417,6.8707,6.9045,6.9113,6.9113,6.9113,6.8808,6.847,6.8166,6.7421,6.6981,6.6981,6.6305,6.5561,6.4816,6.4478,6.3971,6.3226,6.2482,6.2076,6.2076,6.0926,6.052,6.0757,5.9674,5.8863,5.0879,0.0,0.0,5.3518,5.5581,5.7509,5.8423,5.9945,6.1603,6.3125,6.4478,6.6068,6.8402,6.9925,7.121,7.2496,7.3781,7.4695,7.4864,7.4999,7.4695,7.3612,7.3612,7.4086,7.4999,7.527,7.527,7.4931,7.5405,7.5473,7.4931,7.5405,7.5709,7.5709,7.5709,7.5709,7.5709,7.5709,7.5709,7.5709,7.5709,7.5709,7.5709,7.5709,7.5709,7.5709,7.5709,7.5709,7.5709,7.5709,7.5574,7.5371,7.5033,7.4796,7.4356,7.2191,7.1278,7.1007,7.0263,6.9891,6.9688,6.9485,6.9553,6.9722,6.9857,7.0567,7.1379,7.1718,7.1278,7.0872,7.1616,7.1007,7.0229,7.0466,7.05,7.0534,7.0601,7.0161,6.9891,7.05,7.0703,7.0872,7.1075,7.1548,7.209,7.2631,7.1345,7.0229,7.0026,6.9823,6.962,6.9417,6.9417,6.9316,6.9113,6.8571,6.8132,6.7895,6.7421,6.6779,6.6034,6.5797,6.5425,6.4918,6.4174,6.3802,6.3802,6.2719,6.211,6.1907,6.1095,6.0723,0.0,0.0,5.4126,5.7002,5.9438,6.1501,6.299,6.5019,6.7015,6.8538,6.9451,7.0229,7.1075,7.1819,7.2563,7.3341,7.4119,7.4864,7.5574,7.4424,7.3544,7.3477,7.2259,7.1988,0.0,7.4221,7.4931,7.5608,7.5676,7.5676,7.5676,7.5676,7.5709,7.5709,7.5709,7.5709,7.5709,7.5709,7.5709,7.5709,7.5709,7.5709,7.5709,7.5709,7.5709,7.5709,7.5709,7.5709,7.5709,7.5709,7.527,7.4728,7.5405,7.5236,7.4593,7.4525,7.4018,7.3274,7.2563,7.1853,7.1142,7.0398,7.0635,7.0973,6.9553,7.0161,7.1176,7.0466,6.9722,6.935,7.006,7.0229,7.0364,7.1109,7.1278,7.1853,7.3984,7.2766,7.1887,7.4018,7.3308,7.2563,7.3274,7.3409,7.3443,7.3443,7.3409,7.3105,7.2394,7.1684,7.0973,7.0229,7.0161,6.9857,6.9147,6.9079,6.8741,6.7963,6.7895,6.7557,6.6812,6.6068,6.5662,6.5662,6.4952,6.458,6.458,6.4512,6.414,6.3429,6.2685,6.2313,0.0,0.0,5.8592,6.1603,6.4038,6.6068,6.759,6.891,6.9958,7.0466,6.9553,6.891,6.9688,7.006,7.0601,7.1853,7.3477,7.4864,7.5608,7.527,7.4221,7.2293,7.2022,0.0,0.0,0.0,0.0,7.5608,7.5709,7.5709,7.5709,7.6217,7.6487,7.6487,7.6961,7.6995,7.6487,7.6487,7.6217,7.5709,7.5709,7.5709,7.5709,7.5709,7.5709,7.5709,7.5709,7.5709,7.5709,7.5709,7.554,7.5337,7.5608,7.554,7.5337,7.5337,7.5168,7.4695,7.3003,7.2225,7.1921,7.1176,7.1447,7.2022,7.2022,7.236,7.28,7.3037,7.2935,7.28,7.3071,7.2766,7.2563,7.3308,7.3138,7.2969,7.3713,7.3274,7.2969,7.3713,7.3849,7.395,7.4187,7.4627,7.4796,7.4289,7.3815,7.3409,7.3138,7.2496,7.1921,7.1684,7.121,7.0838,7.0601,7.0128,6.9688,6.9417,6.8977,6.8335,6.7557,6.7286,6.6914,6.644,6.6203,6.6068,6.6068,6.5561,6.5189,6.4952,6.4208,6.3869,0.0,6.025,6.2888,6.617,6.8267,6.9823,7.1075,7.1548,7.1616,7.1379,6.9485,6.7996,6.8233,6.8064,6.8199,6.9147,7.0737,7.236,7.3916,7.3443,7.2699,7.2157,7.1819,7.1379,0.0,0.0,0.0,7.483,7.5405,7.5811,7.6115,7.6623,7.7029,7.7266,7.7739,7.7773,7.7299,7.7029,7.6487,7.5709,7.5709,7.5709,7.5709,7.5709,7.5709,7.5709,7.5709,7.5709,7.5709,7.5709,7.5709,7.5709,7.5709,7.5709,7.5709,7.5709,7.554,7.51,7.368,7.3206,7.3071,7.2326,7.2597,7.324,7.3443,7.368,7.3984,7.4492,7.4424,7.4289,7.4559,7.4052,7.368,7.4424,7.4255,7.395,7.4221,7.4289,7.4289,7.4289,7.4661,7.4999,7.4999,7.5405,7.554,7.5067,7.4593,7.4086,7.3544,7.3071,7.2699,7.2428,7.1988,7.1616,7.1345,7.0872,7.0466,7.0195,6.9755,6.9147,6.8368,6.8335,6.8098,6.7624,6.7354,6.7184,6.7184,6.644,6.5967,6.5662,6.5189,6.485,6.2347,6.485,6.6846,7.0567,7.1988,7.2699,7.3375,7.2969,7.2157,7.1379,6.9316,6.7455,0.0,0.0,6.5662,6.573,6.6542,6.8199,7.1109,6.9654,6.9586,0.0,0.0,0.0,0.0,0.0,0.0,7.3544,0.0,7.6082,7.686,7.6961,7.7333,7.801,7.8077,7.8077,7.8044,7.7299,7.6521,7.5709,7.5743,7.5743,7.5709,7.5709,7.5709,7.5709,7.5709,7.5709,7.5709,7.5709,7.5709,7.5709,7.5709,7.5709,7.5709,7.5709,7.527,7.4661,7.4661,7.4661,7.4492,7.3713,7.3984,7.4492,7.3747,7.4052,7.4627,7.4627,7.4119,7.3747,7.4424,7.4119,7.3781,7.4492,7.4661,7.4864,7.554,7.5709,7.5709,7.5709,7.5709,7.5709,7.5709,7.5709,7.5709,7.5743,7.5743,7.5202,7.3781,7.3578,7.3274,7.2597,7.2462,7.2124,7.1447,7.1345,7.1007,7.0297,7.0263,6.9925,6.918,6.9147,6.9147,6.9113,6.8335,6.7963,6.7963,6.7218,6.6508,6.5797,6.5764,6.5358,6.5662,6.8301,7.05,7.3138,7.3916,7.4086,7.4289,7.3308,7.1887,7.006,6.6981,6.4241,0.0,0.0,0.0,6.6339,6.9485,0.0,7.4322,7.4086,0.0,7.351,0.0,7.2428,7.1921,7.2834,0.0,0.0,7.5743,7.669,7.6893,7.7942,7.8653,7.8822,7.9363,7.9363,7.8822,7.8077,7.7029,7.5709,7.6318,7.6284,7.5709,7.5709,7.5709,7.5709,7.5709,7.5709,7.5709,7.5709,7.5709,7.5709,7.5709,7.5709,7.5709,7.5709,7.5574,7.5439,7.5439,7.5067,7.4492,7.3713,7.3984,7.4559,7.439,7.4458,7.4627,7.4627,7.4864,7.5067,7.4695,7.4864,7.5202,7.5371,7.5439,7.5473,7.5676,7.5709,7.5709,7.5709,7.5709,7.5709,7.5709,7.5709,7.5912,7.6487,7.6082,7.5574,7.5202,7.4661,7.4255,7.4086,7.3071,7.2326,7.2157,7.1616,7.1244,7.1041,7.1041,7.0703,6.9958,6.9925,6.9654,6.9113,6.891,6.8808,6.8808,6.7996,6.7523,6.732,6.6779,6.644,6.9451,7.1515,7.3138,7.4695,7.51,7.4762,7.3477,7.2259,7.0534,6.732,6.4444,0.0,6.0588,0.0,0.0,0.0,0.0,0.0,7.3849,7.368,7.3815,0.0,7.4864,0.0,7.4255,7.4999,7.5642,0.0,7.6589,7.7198,7.7841,7.8653,7.9261,7.9566,7.9972,7.987,7.9126,7.8348,7.7401,7.6217,7.669,7.6487,7.5709,7.6082,7.6014,7.5709,0.0,7.5709,7.5709,7.5709,7.5709,7.5709,7.5709,7.5709,7.5709,7.5709,7.5709,7.5709,7.5709,7.5439,7.4999,7.4593,7.4762,7.51,7.51,7.51,7.51,7.51,7.5371,7.5608,7.5202,7.5405,7.5709,7.5709,7.5709,7.5709,7.5709,7.5709,7.5709,7.5709,7.5709,7.5709,7.5709,7.5709,7.5845,7.6318,7.598,7.5709,7.5709,7.5337,7.4965,7.4661,7.3883,7.324,7.2902,7.2225,7.1785,7.1785,7.1481,7.1109,7.0703,7.0669,7.05,7.006,6.9755,6.9586,6.9586,6.8808,6.8436,6.8402,6.7658,6.7286,7.3003,7.4356,7.5067,7.5709,7.5709,7.4796,7.1853,7.0263,6.8233,6.3937,0.0,6.0283,5.8964,6.0148,6.167,6.2787,0.0,6.7963,7.2394,7.1887,7.28,7.7435,7.6826,7.6521,7.7874,7.8077,7.8179,7.828,7.7773,7.7976,7.9058,7.9295,7.9634,8.0175,8.0276,7.9938,7.9126,7.8551,7.7874,7.7063,7.7164,7.6724,7.5879,7.6589,7.6454,7.5709,7.5709,0.0,7.5709,7.5709,7.5709,7.5709,7.5709,7.5709,7.5709,7.5709,7.5709,7.5709,7.5709,7.5709,7.5709,7.5709,7.5709,7.5709,7.5709,7.5709,7.5709,7.5709,7.5709,7.5709,7.5709,7.5709,7.5709,7.5709,7.5709,7.5709,7.5709,7.5709,7.5743,7.5845,7.5777,7.5743,7.5845,7.5845,7.5845,7.5845,7.5845,7.5845,7.5845,7.5777,7.5439,7.483,7.4661,7.4356,7.368,7.2969,7.2496,7.2394,7.1819,7.1413,7.1312,7.1312,7.1312,7.1312,7.0669,7.0331,7.0331,6.962,6.9248,6.9214,6.8335,6.7895,7.4661,7.5912,7.6521,7.6657,7.5743,7.4018,7.1041,6.7895,0.0,0.0,5.9032,5.7509,5.7239,5.9438,0.0,6.5527,0.0,0.0,0.0,0.0,7.6284,0.0,0.0,0.0,0.0,0.0,0.0,0.0,0.0,8.0107,7.916,8.0242,8.0682,8.0209,8.0784,8.0445,7.9126,7.9566,7.9126,7.7807,7.845,7.801,7.669,7.6826,7.6454,7.5709,7.5709,0.0,7.5709,7.5709,7.5709,7.5709,7.5709,7.5709,7.5709,7.5709,7.5709,7.5709,7.5709,7.5709,7.5709,7.5709,7.5709,7.5709,7.5709,7.5709,7.5709,7.5709,7.5709,7.5709,7.5709,7.5709,7.5709,7.5709,7.5709,7.5709,7.5709,7.5709,7.5879,7.6555,7.6149,7.5912,7.6589,7.669,7.669,7.669,7.669,7.669,7.669,7.6115,7.5642,7.5506,7.4965,7.4559,7.4424,7.3713,7.3037,7.2428,7.2293,7.1954,7.1345,7.1312,7.1312,7.1312,7.1176,7.1109,7.1109,7.0364,6.9992,6.9958,6.8538,6.7895,7.6048,7.6893,7.7367,7.6995,7.5439,7.3037,6.9282,0.0,0.0,0.0,5.7239,5.6359,5.6731,0.0,0.0,0.0,0.0,0.0,0.0,0.0,0.0,0.0,0.0,0.0,0.0,0.0,0.0,0.0,0.0,8.1968,8.0885,8.1122,8.1122,8.0784,8.075,8.0378,7.9701,7.9634,7.9261,7.8585,7.8923,7.8551,7.7468,7.7468,7.7063,7.6284,7.5879,0.0,7.5709,7.5709,7.5709,7.5709,7.5709,7.5709,7.5709,7.5709,7.5709,7.5709,7.5709,7.5709,7.5709,7.5709,7.5709,7.5709,7.5709,7.5709,7.5709,7.5709,7.5709,7.5709,7.5709,7.5709,7.5811,7.6217,7.6318,7.6318,7.6318,7.6318,7.6318,7.6284,7.6589,7.6893,7.6893,7.7198,7.7468,7.7468,7.7468,7.7333,7.6961,7.6555,7.6149,7.5743,7.5371,7.5168,7.5168,7.4492,7.3916,7.3578,7.3172,7.2631,7.1921,7.1887,7.1684,7.1312,7.1312,7.1312,7.1312,7.0939,7.077,7.0737,6.962,6.9079,7.7096,7.7671,7.8044,7.7299,7.5168,7.2124,6.7793,6.414,0.0,0.0,5.5852,5.5513,5.6393,0.0,0.0,0.0,0.0,0.0,0.0,0.0,0.0,0.0,0.0,0.0,0.0,0.0,0.0,0.0,0.0,0.0,8.2678,8.2069,8.1629,8.1291,8.0885,8.0513,8.0209,7.9769,7.9498,7.9363,7.9498,7.9092,7.8213,7.8044,7.7604,7.686,7.6048,0.0,0.0,7.5709,7.5709,7.5709,7.5709,7.5709,7.5709,7.5709,7.5709,7.5709,7.5709,7.5709,7.5709,7.5709,7.5709,7.5709,7.5709,7.5709,7.5743,7.5912,7.5946,7.598,7.6149,7.6183,7.6352,7.6995,7.713,7.713,7.713,7.6995,7.6826,7.6487,7.713,7.7671,7.7435,7.7841,7.8179,7.801,7.8111,7.7976,7.7232,7.713,7.6893,7.6251,7.5879,7.5709,7.5709,7.5168,7.4796,7.4627,7.4052,7.3409,7.2665,7.2496,7.2124,7.1548,7.1379,7.1312,7.1312,7.1312,7.1312,7.1312,7.0534,7.0195,7.7705,7.845,7.8822,7.8077,7.5168,7.1515,6.7692,0.0,0.0,5.6292,5.4702,5.4126,5.5547,0.0,0.0,0.0,0.0,6.6779,0.0,0.0,0.0,0.0,0.0,0.0,0.0,0.0,0.0,0.0,0.0,0.0,8.3422,8.3321,8.2678,8.1325,8.1866,8.1562,8.0209,8.0784,8.075,8.0107,8.0784,8.0344,7.8991,7.8314,7.7604,7.686,7.6048,7.5709,0.0,7.5709,7.5709,7.5709,7.5709,7.5709,7.5709,7.5709,7.5709,7.5709,7.5709,7.5709,7.5709,7.5709,7.5709,7.5709,7.5709,7.5709,7.5845,7.6589,7.6792,7.6927,7.7604,7.7773,7.7807,7.7874,7.7874,7.7874,7.7874,7.7367,7.7266,7.8551,7.7841,7.7401,7.8686,7.8957,7.8788,7.8077,7.8585,7.872,7.7976,7.7874,7.7874,7.7773,7.6521,7.5709,7.5709,7.5642,7.5303,7.4661,7.4559,7.4187,7.3409,7.2766,7.236,7.2293,7.165,7.1312,7.1312,7.1312,7.1312,7.1312,7.0534,7.0195,7.7164,7.8551,7.8923,7.8179,7.4492,7.0195,6.688,0.0,0.0,5.5412,5.4228,5.3822,5.4837,5.5649,5.7171,6.0283,6.1061,6.3159,0.0,0.0,0.0,0.0,0.0,0.0,0.0,0.0,0.0,0.0,0.0,0.0,8.4167,8.3727,8.3219,8.2644,8.2475,8.19,8.0851,8.1122,8.0919,8.0209,8.0479,8.0107,7.9092,7.8348,7.7604,7.686,7.6048,7.5709,0.0,7.5709,7.5709,7.5709,7.5709,7.5709,7.5709,7.5709,7.5709,7.5777,7.6251,7.642,7.642,7.642,7.642,7.6318,7.5845,7.6048,7.6487,7.6826,7.7198,7.7638,7.7908,7.8314,7.8653,7.8653,7.8653,7.8653,7.8653,7.845,7.828,7.8416,7.8686,7.8923,7.9092,7.9464,7.9667,7.9363,7.9938,8.0141,7.9431,7.9329,7.916,7.872,7.7333,7.642,7.642,7.598,7.5574,7.527,7.527,7.4931,7.4187,7.3883,7.3308,7.2428,7.2124,7.1751,7.1312,7.1312,7.1312,7.1312,7.1007,7.0872,7.5168,7.7367,7.8551,7.7536,7.3544,6.9147,0.0,0.0,0.0,5.5175,5.416,5.3721,5.4465,5.5209,5.6359,5.8355,5.9066,6.0994,6.5797,0.0,0.0,0.0,0.0,0.0,0.0,0.0,0.0,0.0,0.0,0.0,8.4606,8.4133,8.3727,8.349,8.278,8.2035,8.1291,8.1291,8.0919,8.0209,8.0412,8.0141,7.9397,7.8416,7.7705,7.7164,7.6149,0.0,0.0,7.5709,7.5709,7.5709,7.5709,7.5709,7.5709,7.5709,7.5845,7.6149,7.669,7.7029,7.7232,7.7232,7.7232,7.713,7.6555,7.6623,7.6995,7.7435,7.8077,7.8653,7.8653,7.9025,7.9431,7.9431,7.9431,7.9431,7.9431,7.9261,7.9025,7.872,7.9295,7.9769,7.9498,8.004,8.0513,8.0513,8.1156,8.1426,8.0919,8.0851,8.0648,8.0141,7.8957,7.7841,7.6961,7.6386,7.5946,7.5709,7.5709,7.5473,7.4965,7.4728,7.4119,7.3071,7.2631,7.2157,7.1616,7.1413,7.1312,7.1312,7.1312,7.1312,7.1379,7.4627,7.7638,7.6115,7.2394,6.8504,0.0,0.0,0.0,5.5852,5.4532,5.3721,5.4465,5.5209,5.619,5.7679,5.9133,6.14,6.5155,0.0,0.0,0.0,0.0,0.0,0.0,0.0,0.0,0.0,0.0,0.0,8.464,8.4606,8.4268,8.3524,8.278,8.2035,8.1291,8.1291,8.0919,8.0209,8.0919,8.0885,8.0141,7.8653,7.7976,7.7874,7.6352,7.5709,0.0,7.5709,7.5709,7.5709,7.5709,7.5709,7.5709,7.5709,7.6183,7.6893,7.6893,7.7367,7.7976,7.7976,7.7976,7.7976,7.7976,7.7468,7.7198,7.8686,7.9634,8.0175,8.0175,8.0175,8.0175,8.0175,8.0175,8.0175,8.0175,7.9634,7.9329,8.004,7.96,7.9363,8.0073,8.0784,8.1257,8.1257,8.19,8.2408,8.2408,8.2408,8.2374,8.2374,8.1697,8.0073,7.7164,7.6893,7.6555,7.5743,7.5709,7.5709,7.5676,7.4999,7.4593,7.4593,7.3138,7.2394,7.2394,7.1684,7.1312,7.1312,7.1312,7.1312,6.6643,6.9248,7.0872,6.9891,6.7455,6.4816,6.3091,0.0,0.0,0.0,5.4566,5.416,5.389,5.5277,5.6765,5.7712,5.9133,6.0892,6.3125,0.0,0.0,0.0,0.0,0.0,0.0,0.0,0.0,0.0,0.0,0.0,8.464,8.464,8.4268,8.3524,8.3287,8.2543,8.1291,8.1291,8.0919,8.0209,8.0445,7.9904,7.8653,7.8213,7.7401,7.6386,7.5912,0.0,0.0,7.5709,7.5709,7.5709,7.5709,7.6048,7.6521,7.6521,7.6995,7.7705,7.8247,7.8551,7.8754,7.8754,7.8754,7.8754,7.8754,7.8585,7.8619,7.96,8.0006,8.0209,8.0209,8.0209,8.0209,8.0209,8.0209,8.0209,8.0209,8.0006,7.9938,8.0141,8.0006,8.0073,8.0818,8.1122,8.146,8.1968,8.2678,8.3152,8.3152,8.3152,8.3152,8.3152,8.2475,8.1257,7.9329,7.8686,7.8077,7.7299,7.6792,7.6521,7.6521,7.5777,7.51,7.4627,7.4153,7.3646,7.3138,7.2428,7.1785,7.1312,7.1312,7.1312,0.0,6.5087,6.6948,6.6508,6.4715,0.0,0.0,0.0,0.0,0.0,0.0,0.0,5.3957,5.5277,5.663,5.7374,5.8727,6.0419,6.2516,0.0,0.0,0.0,0.0,0.0,0.0,0.0,0.0,0.0,0.0,0.0,8.464,8.464,8.4268,8.3524,8.349,8.278,8.1291,8.1291,8.0919,8.0209,8.0209,7.9701,7.8822,7.8517,7.7874,7.6961,0.0,0.0,0.0,7.5811,7.5709,7.5709,7.5709,7.6014,7.6487,7.6792,7.7198,7.7739,7.8754,7.9126,7.916,7.9431,7.9532,7.9532,7.9532,7.9532,7.9634,8.0073,8.0209,8.0209,8.0209,8.0209,8.0209,8.0209,8.0209,8.0276,8.0547,8.0615,8.0682,8.0987,8.1021,8.119,8.1629,8.1934,8.2272,8.2746,8.3456,8.393,8.393,8.393,8.393,8.393,8.3524,8.2746,8.1562,8.0513,7.96,7.8855,7.7874,7.7299,7.7299,7.6555,7.5946,7.5473,7.5473,7.51,7.4322,7.3308,7.2428,7.1718,7.1718,7.1582,0.0,0.0,0.0,0.0,0.0,0.0,0.0,0.0,0.0,0.0,0.0,0.0,5.4465,5.5243,5.6021,5.6765,5.8118,6.0114,6.3024,0.0,0.0,0.0,0.0,0.0,0.0,0.0,0.0,0.0,0.0,0.0,8.464,8.464,8.4268,8.3524,8.349,8.278,8.1291,8.1224,8.0885,8.0209,8.0209,8.0175,8.0107,7.9431,7.9092,0.0,0.0,0.0,0.0,7.6014,7.5743,7.5777,7.5777,7.5845,7.6014,7.6724,7.7029,7.7333,7.8653,7.916,7.9295,7.9972,8.0209,8.0209,8.0209,8.0209,8.0209,8.0209,8.0209,8.0209,8.0209,8.0209,8.0209,8.0209,8.0242,8.0479,8.1122,8.1291,8.1494,8.2272,8.2374,8.2374,8.2475,8.305,8.3524,8.3558,8.4167,8.464,8.464,8.464,8.464,8.464,8.464,8.4336,8.3625,8.2272,8.1122,8.0412,7.8957,7.8145,7.8145,7.7401,7.6961,7.6961,7.6927,7.6487,7.5709,7.4255,7.3206,7.2462,7.2462,7.209,0.0,0.0,0.0,0.0,0.0,0.0,0.0,0.0,0.0,0.0,0.0,0.0,0.0,5.5649,5.6799,5.7509,5.8863,6.0486,6.2381,0.0,0.0,0.0,0.0,0.0,0.0,0.0,0.0,0.0,0.0,8.464,8.464,8.464,8.4268,8.3524,8.349,8.278,8.1291,8.0716,8.0378,8.0209,8.0209,7.9904,7.9363,7.9194,7.8788,0.0,0.0,0.0,7.6826,7.6014,7.6048,7.6623,7.6623,7.7299,7.828,7.7874,7.845,7.9397,7.9194,7.9464,7.9972,8.0141,8.0209,8.0209,8.0209,8.0209,8.0209,8.0209,8.0209,8.0209,8.0209,8.0209,8.0209,8.0209,8.0615,8.1088,8.1257,8.1291,8.1494,8.2272,8.1934,8.19,8.305,8.3389,8.3693,8.4268,8.4505,8.464,8.464,8.464,8.464,8.464,8.464,8.4539,8.437,8.3524,8.2678,8.1934,8.0513,7.9667,7.9667,7.8416,7.7739,7.7739,7.7198,7.6487,7.5709,7.4796,7.395,7.324,7.324,7.2834,0.0,0.0,0.0,0.0,0.0,0.0,0.0,0.0,0.0,0.0,0.0,0.0,0.0,0.0,0.0,5.7712,5.9133,6.1231,0.0,0.0,0.0,0.0,0.0,0.0,0.0,0.0,0.0,0.0,0.0,8.464,8.464,8.464,8.4437,8.4031,8.3355,8.2441,8.1291,8.0885,8.0513,8.0209,8.0209,8.0006,7.96,7.96,7.9397,0.0,0.0,0.0,7.7841,7.6724,7.6521,7.6893,7.6893,7.7164,7.757,7.7874,7.828,7.8754,7.9397,7.987,8.0209,8.0209,8.0209,8.0242,8.0581,8.0682,8.0615,8.031,8.0445,8.0615,8.0276,8.0445,8.0682,8.0682,8.1257,8.19,8.2238,8.2306,8.2543,8.3287,8.3084,8.3084,8.3862,8.3998,8.4167,8.4573,8.464,8.464,8.464,8.464,8.464,8.464,8.464,8.464,8.464,8.4234,8.3828,8.3456,8.2035,8.1054,8.0716,7.96,7.8991,7.8991,7.7942,7.7198,7.6758,7.5642,7.4728,7.3984,7.3984,7.3612,0.0,0.0,0.0,0.0,0.0,0.0,0.0,0.0,0.0,0.0,0.0,0.0,0.0,0.0,0.0,0.0,0.0,0.0,0.0,0.0,0.0,0.0,0.0,0.0,0.0,0.0,0.0,0.0,0.0,8.464,8.464,8.464,8.4573,8.4471,8.3219,8.2205,8.146,8.1224,8.0818,8.0209,8.0209,8.0209,8.0209,8.0209,8.0209,8.0107,0.0,0.0,7.8991,7.7502,7.6961,7.7063,7.7063,7.6724,7.6352,7.7536,7.7671,7.7502,7.9363,8.0107,8.0209,8.0209,8.0276,8.0479,8.1088,8.1426,8.146,8.075,8.0885,8.1122,8.0378,8.075,8.1291,8.1291,8.1934,8.2746,8.3355,8.349,8.3727,8.4471,8.4539,8.4505,8.4606,8.464,8.464,8.464,8.464,8.464,8.464,8.464,8.464,8.464,8.464,8.464,8.464,8.464,8.464,8.464,8.3321,8.2238,8.1494,8.075,8.0378,8.0378,7.8788,7.7976,7.7976,7.6454,7.5371,7.4796,7.4796,7.439,5.0879,0.0,0.0,0.0,0.0,0.0,0.0,0.0,0.0,0.0,0.0,0.0,0.0,0.0,0.0,0.0,0.0,0.0,0.0,0.0,0.0,0.0,0.0,0.0,0.0,0.0,0.0,0.0,0.0,8.464,8.464,8.464,8.4336,8.3693,8.3456,8.2983,8.2238,8.0987,8.031,8.0209,8.0209,8.0209,8.0209,8.0209,8.0209,8.0141,0.0,7.9025,7.8991,7.7502,7.7266,7.7807,7.7807,7.8145,7.8551,7.8145,7.8314,7.8822,7.916,7.9701,8.0209,8.0209,8.0615,8.1122,8.1257,8.2171,8.3016,8.2272,8.1697,8.1122,8.0378,8.075,8.1291,8.1291,8.234,8.3355,8.349,8.349,8.3727,8.4471,8.4099,8.3862,8.4505,8.464,8.464,8.464,8.464,8.464,8.464,8.464,8.464,8.464,8.464,8.464,8.464,8.464,8.464,8.464,8.3795,8.3016,8.2272,8.1528,8.1122,8.1122,7.9058,7.7976,7.7976,7.6454,7.5642,7.554,7.554,7.5134,5.0033,5.142,0.0,0.0,0.0,0.0,0.0,0.0,0.0,0.0,0.0,0.0,0.0,0.0,0.0,0.0,0.0,0.0,0.0,0.0,0.0,0.0,0.0,0.0,0.0,0.0,0.0,0.0,0.0,0.0,8.464,8.464,8.4471,8.4133,8.3693,8.3321,8.3016,8.1528,8.0784,8.0784,8.0378,8.0209,8.0209,8.0209,8.0209,8.0175,0.0,7.9126,7.9025,7.7942,7.7468,7.7401,7.7401,7.7333,7.7333,7.7807,7.8483,7.916,7.9566,7.9938,8.0209,8.0209,8.0682,8.1359,8.1765,8.2644,8.3422,8.3084,8.2475,8.1832,8.1494,8.1629,8.2002,8.2374,8.3321,8.4099,8.4099,8.4099,8.42,8.4539,8.4336,8.42,8.4573,8.464,8.464,8.464,8.464,8.464,8.464,8.464,8.464,8.464,8.464,8.464,8.464,8.464,8.464,8.464,8.393,8.3355,8.3016,8.2306,8.1697,8.1291,8.0276,7.9363,7.8585,7.7874,7.7333,7.6927,7.6521,7.6183,4.9357,5.0744,0.0,0.0,0.0,0.0,0.0,0.0,0.0,0.0,0.0,0.0,0.0,0.0,0.0,0.0,0.0,0.0,0.0,0.0,0.0,0.0,0.0,0.0,0.0,0.0,0.0,0.0,0.0,0.0,8.489,8.4713,8.4539,8.437,8.3964,8.3592,8.3253,8.2103,8.146,8.1291,8.0547,8.0209,8.0175,8.0006,7.9938,7.9904,7.916,7.8855,7.8788,7.8044,7.7401,7.6893,7.6893,7.6623,7.6386,7.7536,7.8483,7.9194,7.9769,8.0073,8.0242,8.0412,8.0818,8.146,8.2374,8.305,8.3524,8.3693,8.3219,8.2644,8.2441,8.2543,8.2813,8.3355,8.4065,8.464,8.464,8.464,8.464,8.464,8.464,8.464,8.464,8.464,8.464,8.464,8.464,8.464,8.464,8.464,8.464,8.464,8.464,8.464,8.464,8.464,8.464,8.464,8.4065,8.3761,8.3761,8.305,8.2408,8.1799,8.146,8.075,7.9634,7.9464,7.9058,7.8483,7.7773,7.7435,4.983,5.115,5.23,0.0,0.0,0.0,0.0,0.0,0.0,0.0,0.0,0.0,0.0,0.0,0.0,0.0,0.0,0.0,0.0,0.0,0.0,0.0,0.0,0.0,0.0,0.0,0.0,0.0,0.0,0.0,8.5921,8.51,8.4302,8.3592,8.42,8.3862,8.2509,8.2374,8.1968,8.1291,8.0547,8.0209,8.0175,7.9498,7.9194,7.916,7.8382,7.8077,7.801,7.7266,7.6961,7.6893,7.6893,7.7266,7.7841,7.7942,7.8483,7.9126,7.916,7.9634,8.031,8.0987,8.1257,8.1562,8.2983,8.3456,8.3625,8.4336,8.3998,8.3253,8.2577,8.2915,8.3422,8.349,8.4065,8.464,8.464,8.464,8.464,8.464,8.464,8.464,8.464,8.464,8.464,8.464,8.464,8.464,8.464,8.464,8.464,8.464,8.464,8.464,8.464,8.464,8.464,8.464,8.4573,8.4539,8.4539,8.3828,8.3389,8.3321,8.2002,8.1224,8.1122,8.0445,8.0073,8.0006,7.9295,7.8957,4.9357,5.1191,5.3204,5.4087,0.0,0.0,0.0,0.0,0.0,0.0,0.0,0.0,0.0,0.0,0.0,0.0,0.0,0.0,0.0,0.0,0.0,0.0,0.0,0.0,0.0,0.0,0.0,0.0,0.0,0.0,8.4742,8.5238,8.4933,8.3524,8.3761,8.3896,8.3795,8.2408,8.1799,8.1968,8.0784,7.9972,7.9532,7.9228,7.9126,7.9058,7.8314,7.7976,7.7942,7.7198,7.6623,7.6183,7.669,7.7333,7.8044,7.8517,7.8855,7.9194,7.9634,7.9972,8.0242,8.0513,8.1224,8.2103,8.2644,8.3456,8.4268,8.4539,8.4403,8.4133,8.3862,8.3625,8.3625,8.4099,8.4403,8.464,8.464,8.464,8.464,8.464,8.5066,8.5378,8.4713,8.51,8.5378,8.4713,8.464,8.464,8.464,8.464,8.464,8.464,8.464,8.464,8.464,8.464,8.464,8.464,8.464,8.464,8.464,8.4336,8.3964,8.3524,8.3389,8.2915,8.1968,8.2171,8.2002,8.1562,8.0344,7.9769,4.9018,5.0967,5.3324,5.451,0.0,0.0,0.0,0.0,0.0,0.0,0.0,0.0,0.0,0.0,0.0,0.0,0.0,0.0,0.0,0.0,0.0,0.0,0.0,0.0,0.0,0.0,0.0,0.0,0.0,0.0,0.0,8.5145,8.4691,8.3152,8.3152,8.3287,8.3558,8.2035,8.1426,8.1697,8.0445,7.96,7.9092,7.8619,7.8416,7.8382,7.7604,7.7266,7.7232,7.6995,7.6724,7.6487,7.7029,7.7705,7.8416,7.8923,7.9261,7.9532,8.0006,8.0209,8.0276,8.075,8.1426,8.2171,8.2881,8.3659,8.4302,8.4539,8.464,8.464,8.464,8.4234,8.3964,8.4505,8.464,8.464,8.464,8.464,8.4713,8.4995,8.5378,8.5549,8.517,8.5378,8.5344,8.4713,8.464,8.464,8.464,8.464,8.464,8.464,8.464,8.464,8.464,8.464,8.464,8.464,8.464,8.464,8.464,8.464,8.437,8.3862,8.437,8.4133,8.3118,8.3625,8.3592,8.3084,8.1596,8.0885,4.9018,5.0591,5.2382,0.0,0.0,0.0,0.0,0.0,0.0,0.0,0.0,0.0,0.0,0.0,0.0,0.0,0.0,0.0,0.0,0.0,0.0,0.0,0.0,0.0,0.0,0.0,0.0,0.0,0.0,0.0,0.0,8.4804,8.3388,8.2374,8.2408,8.2035,8.1291,8.1257,8.0919,8.0209,7.9464,7.9092,7.9058,7.757,7.6893,7.686,7.6048,7.5709,7.5777,7.6555,7.7333,7.7976,7.7976,7.845,7.9126,7.9126,7.9566,8.0209,8.0209,8.0209,8.0445,8.1934,8.19,8.1697,8.393,8.4099,8.3659,8.4403,8.464,8.464,8.464,8.464,8.464,8.464,8.464,8.464,8.464,8.4606,8.489,8.5921,8.5274,8.489,8.5921,8.5274,8.464,8.464,8.464,8.464,8.464,8.464,8.464,8.464,8.464,8.464,8.464,8.464,8.464,8.464,8.464,8.464,8.464,8.464,8.464,8.464,8.464,8.464,8.464,8.4606,8.4606,8.4573,8.3084,8.2408,4.9627,0.0,0.0,0.0,0.0,0.0,0.0,0.0,0.0,0.0,0.0,0.0,0.0,0.0,0.0,0.0,0.0,0.0,0.0,0.0,0.0,0.0,0.0,0.0,0.0,0.0,0.0,0.0,0.0,0.0,0.0,8.4914,8.4144,8.26,8.197,8.214,8.308,8.0882,8.0508,8.1914,7.8978,7.8111,7.9058,7.757,7.7164,7.7604,7.6284,7.6318,7.7299,7.7029,7.7333,7.7976,7.7976,7.8754,7.987,7.987,8.0006,8.0209,8.0209,8.0209,8.0344,8.1325,8.1832,8.2306,8.349,8.4065,8.4336,8.4573,8.464,8.464,8.464,8.464,8.464,8.464,8.464,8.464,8.464,8.517,8.5719,8.6022,8.6385,8.6581,8.6187,8.6301,8.6027,8.4814,8.508,8.5249,8.4708,8.464,8.464,8.464,8.464,8.464,8.464,8.464,8.464,8.464,8.464,8.464,8.464,8.464,8.464,8.464,8.464,8.464,8.464,8.4099,8.3828,8.3795,8.2306,8.1629,0.0,0.0,0.0,0.0,0.0,0.0,0.0,0.0,0.0,0.0,0.0,0.0,0.0,0.0,0.0,0.0,0.0,0.0,0.0,0.0,0.0,0.0,0.0,0.0,0.0,0.0,0.0,0.0,0.0,0.0,0.0,8.4961,8.4246,8.2917,8.2259,8.2362,8.3033,8.1155,8.0622,8.1362,7.864,7.7856,7.8619,7.7096,7.6657,7.7029,7.6082,7.6578,7.8013,7.7256,7.7493,7.8524,7.8477,7.8991,7.9803,8.0073,8.0209,8.0209,8.0209,8.0378,8.075,8.1494,8.2238,8.2983,8.3727,8.4268,8.464,8.464,8.464,8.464,8.464,8.464,8.464,8.464,8.464,8.464,8.464,8.5378,8.6187,8.6679,8.7221,8.741,8.6741,8.7077,8.668,8.4814,8.5012,8.5148,8.4674,8.464,8.464,8.464,8.464,8.464,8.464,8.464,8.464,8.464,8.464,8.464,8.464,8.464,8.4471,8.42,8.4167,8.4031,8.3761,8.3287,8.305,8.3016,8.1832,8.1291,0.0,0.0,0.0,0.0,0.0,0.0,0.0,0.0,0.0,0.0,0.0,0.0,0.0,0.0,0.0,0.0,0.0,0.0,0.0,0.0,0.0,0.0,0.0,0.0,0.0,0.0,0.0,0.0,0.0,0.0,0.0,8.4681,8.3839,8.3174,8.2857,8.2506,8.1926,8.1699,8.091,7.9419,7.8499,7.8074,7.8002,7.6448,7.5805,7.5771,7.5933,7.6837,7.821,7.7366,7.7938,7.9246,7.908,7.9092,7.9295,7.9938,8.0209,8.0209,8.0209,8.0648,8.1291,8.2069,8.2813,8.3524,8.4302,8.4573,8.464,8.464,8.464,8.464,8.464,8.464,8.4606,8.4713,8.4713,8.4713,8.4713,8.5651,8.6679,8.7597,8.7783,8.7818,8.7888,8.7569,8.6714,8.4916,8.4674,8.4606,8.4713,8.4713,8.4819,8.489,8.4819,8.4713,8.4713,8.4606,8.464,8.464,8.464,8.464,8.464,8.464,8.4268,8.3524,8.349,8.3152,8.2408,8.234,8.2306,8.2306,8.1528,8.119,0.0,0.0,0.0,0.0,0.0,0.0,0.0,0.0,0.0,0.0,0.0,0.0,0.0,0.0,0.0,0.0,0.0,0.0,0.0,0.0,0.0,0.0,0.0,0.0,0.0,0.0,0.0,0.0,0.0,0.0,8.5825,8.3832,8.3066,8.4112,8.2149,8.1726,8.2892,8.0986,8.0088,0.0,7.8306,7.765,7.8098,7.6462,7.6148,7.6884,7.7434,7.7975,7.8342,7.8038,7.8489,7.9211,7.8502,7.8923,7.9972,8.0141,8.0209,8.0209,8.0209,8.031,8.0547,8.1291,8.2035,8.278,8.3524,8.4167,8.464,8.464,8.464,8.464,8.464,8.464,8.4819,8.5549,8.5719,8.5719,8.5719,8.7221,8.8544,8.8721,8.8721,8.9023,8.9627,8.8305,8.6886,8.5768,8.5012,8.489,8.5651,8.5719,8.6122,8.6838,8.6286,8.5719,8.5719,8.51,8.464,8.464,8.464,8.464,8.464,8.464,8.4268,8.3524,8.349,8.3152,8.2408,8.1832,8.1528,8.1494,8.0784,8.0445,0.0,0.0,0.0,0.0,0.0,0.0,0.0,0.0,0.0,0.0,0.0,0.0,0.0,0.0,0.0,0.0,0.0,0.0,0.0,0.0,0.0,0.0,0.0,0.0,0.0,0.0,0.0,0.0,0.0,8.446,8.5257,8.3723,8.3169,8.396,8.2664,8.2271,8.2732,8.1484,8.0661,8.0176,7.8952,7.8357,7.8224,7.7402,7.7229,7.7754,7.8172,7.8616,7.9079,7.8414,7.8702,7.9297,7.8763,7.8991,7.9735,8.0073,8.0209,8.0209,8.0209,8.0412,8.0784,8.1156,8.2035,8.3016,8.3389,8.4031,8.464,8.464,8.464,8.464,8.464,8.4995,8.5447,8.6022,8.6122,8.6187,8.6741,8.7967,8.9106,8.9106,8.9485,8.9905,9.0264,8.8601,8.7023,8.6447,8.5709,8.5549,8.6022,8.6122,8.6286,8.6838,8.6366,8.5754,8.5378,8.5569,8.5418,8.4674,8.4979,8.5012,8.464,8.464,8.4099,8.2983,8.2983,8.2611,8.1866,8.1494,8.1291,8.1257,8.0885,8.0547,0.0,0.0,0.0,0.0,0.0,0.0,0.0,0.0,0.0,0.0,0.0,0.0,0.0,0.0,0.0,0.0,0.0,0.0,0.0,0.0,0.0,0.0,0.0,0.0,0.0,0.0,0.0,0.0,0.0,8.3627,8.446,8.3591,8.3193,8.3483,8.3229,8.2831,8.2287,8.2143,8.1307,7.9721,7.9721,7.9294,7.8647,7.8811,7.8811,7.8647,7.8482,7.8892,7.9672,7.8537,7.8499,7.9269,7.8996,7.8991,7.9194,7.9938,8.0209,8.0175,8.0376,8.0783,8.1088,8.1258,8.2207,8.3152,8.3253,8.3828,8.4471,8.4573,8.464,8.4606,8.4819,8.5447,8.6187,8.6581,8.6581,8.6873,8.769,8.8633,8.9435,8.9579,9.0455,9.1016,9.0303,8.8871,8.7537,8.7035,8.6474,8.6187,8.6581,8.6483,8.6385,8.6581,8.6268,8.5807,8.5162,8.6203,8.6332,8.4911,8.5418,8.5452,8.464,8.464,8.3998,8.2644,8.2611,8.2171,8.1291,8.1426,8.1494,8.1494,8.1494,8.1156,0.0,0.0,0.0,0.0,0.0,0.0,0.0,0.0,0.0,0.0,0.0,0.0,0.0,0.0,0.0,0.0,0.0,0.0,0.0,0.0,0.0,0.0,0.0,0.0,0.0,0.0,0.0,0.0,8.2903,8.2794,8.3591,8.2251,8.207,8.3446,8.2143,8.1708,8.2287,8.1599,8.0802,7.9792,7.9792,7.9715,7.9601,8.0361,8.0361,7.9522,7.8729,7.8892,7.9637,7.798,7.7727,7.8383,7.8224,7.8551,7.9194,7.9938,8.0209,8.0276,8.116,8.097,8.0512,8.1331,8.162,8.1697,8.234,8.305,8.3795,8.4437,8.464,8.4819,8.5651,8.6022,8.6581,8.8275,8.8721,8.8757,8.8845,8.9654,9.0638,9.1325,9.2672,9.294,9.0352,8.9774,8.9116,8.7468,8.6607,8.6776,8.8454,8.7967,8.769,8.8633,8.7701,8.7091,8.6988,8.6904,8.6535,8.5689,8.5723,8.5452,8.464,8.464,8.4234,8.3355,8.3355,8.2678,8.1291,8.1934,8.2272,8.2272,8.2272,8.2205,0.0,0.0,0.0,0.0,0.0,0.0,0.0,0.0,0.0,0.0,0.0,0.0,0.0,0.0,0.0,0.0,0.0,0.0,0.0,0.0,0.0,0.0,0.0,0.0,0.0,0.0,0.0,0.0,8.207,8.1961,8.2758,8.1744,8.1418,8.2143,8.1491,8.1273,8.1635,8.1273,8.0948,8.0546,8.0546,8.0546,8.0546,8.0948,8.0876,8.0546,8.0099,7.9834,7.9679,7.8806,7.8326,7.8236,7.8502,7.9182,7.9974,8.0726,8.1352,8.1886,8.2222,8.1792,8.1131,8.1895,8.2129,8.2035,8.278,8.3524,8.42,8.4539,8.4995,8.5549,8.6022,8.6969,8.7967,8.8932,8.9569,9.0048,9.0516,9.0629,9.0835,9.1632,9.3117,9.3602,9.1686,9.1431,9.0905,8.8984,8.8566,8.8587,8.9055,8.9112,8.8915,8.831,8.8468,8.8054,8.6537,8.7539,8.7448,8.5892,8.6569,8.6501,8.5317,8.5689,8.5351,8.4167,8.3693,8.3186,8.2509,8.2847,8.3016,8.3016,8.3016,8.2813,0.0,0.0,0.0,0.0,0.0,0.0,0.0,0.0,0.0,0.0,0.0,0.0,0.0,0.0,0.0,0.0,0.0,0.0,0.0,0.0,0.0,0.0,0.0,0.0,0.0,0.0,0.0,0.0,8.1454,8.1382,8.1961,8.1418,8.1128,8.1128,8.1128,8.1128,8.1128,8.1128,8.1128,8.1128,8.1128,8.1128,8.1128,8.1128,8.1128,8.1128,8.0876,8.0326,7.9679,7.9329,7.885,7.8286,7.8965,7.9771,8.0628,8.139,8.2231,8.2998,8.3261,8.2586,8.1707,8.2751,8.2668,8.2306,8.3219,8.3896,8.437,8.4856,8.5549,8.6187,8.6776,8.8002,8.9192,8.94,9.0022,9.0835,9.1632,9.1668,9.1704,9.2284,9.3551,9.412,9.314,9.2782,9.2244,9.0776,9.0444,9.0264,9.013,9.0244,8.9752,8.8323,8.9006,8.874,8.6542,8.8023,8.8226,8.6196,8.7279,8.7347,8.5858,8.6501,8.6298,8.4945,8.437,8.3896,8.349,8.3693,8.3795,8.3795,8.3795,8.349,0.0,0.0,0.0,0.0,0.0,0.0,0.0,0.0,0.0,0.0,0.0,0.0,0.0,0.0,0.0,0.0,0.0,0.0,0.0,0.0,0.0,0.0,0.0,0.0,0.0,0.0,0.0,0.0,8.1128,8.1128,8.1165,8.1128,8.1128,8.1128,8.1128,8.1128,8.1128,8.1128,8.1128,8.1128,8.1128,8.1128,8.1128,8.1128,8.1128,8.1021,8.0211,7.9834,7.9643,7.8846,7.8434,7.8455,7.9177,7.9948,8.077,8.1542,8.2278,8.3086,8.4065,8.3086,8.1896,8.355,8.2837,8.1629,8.305,8.3524,8.3869,8.5547,8.6022,8.6581,8.8454,8.9019,8.9314,9.0304,9.0581,9.0835,9.1632,9.2972,9.4058,9.4094,9.4746,9.5036,9.3926,9.3139,9.2639,9.2478,9.1283,9.0918,9.259,9.1305,9.0178,8.9834,8.9631,8.9152,8.7998,8.8632,8.8429,8.6941,8.7583,8.7347,8.5858,8.6501,8.6535,8.5723,8.5689,8.4945,8.349,8.42,8.4573,8.4573,8.4573,8.4539,0.0,0.0,0.0,0.0,0.0,0.0,0.0,0.0,0.0,0.0,0.0,0.0,0.0,0.0,0.0,0.0,0.0,0.0,0.0,0.0,0.0,0.0,0.0,0.0,0.0,0.0,0.0,0.0,0.0,8.1128,8.1128,8.1128,8.1128,8.1128,8.1128,8.1128,8.1128,8.1128,8.1128,8.1128,8.1128,8.1128,8.1128,8.1128,8.1128,8.1092,8.0767,8.0286,7.9757,7.9373,7.8892,7.8469,7.9241,8.0069,8.0952,8.2229,8.3269,8.4191,8.5081,8.4513,8.3489,8.3965,8.3588,8.3018,8.336,8.4283,8.5308,8.5918,8.703,8.8184,8.8932,8.9569,9.0141,9.0501,9.098,9.1595,9.2392,9.3443,9.4203,9.4203,9.4855,9.5278,9.49,9.4648,9.4287,9.3697,9.3156,9.2893,9.2962,9.2904,9.1921,8.9436,9.05,9.0192,8.7456,8.8395,8.8666,8.7685,8.8294,8.8023,8.6569,8.7651,8.7516,8.5824,8.6264,8.5757,8.4234,8.4505,8.464,8.464,8.464,8.464,0.0,0.0,0.0,0.0,0.0,0.0,0.0,0.0,0.0,0.0,0.0,0.0,0.0,0.0,0.0,0.0,0.0,0.0,0.0,0.0,0.0,0.0,0.0,0.0,0.0,0.0,0.0,0.0,0.0,0.0,8.1092,8.1128,8.0984,8.073,8.0694,8.0585,8.0295,8.0585,8.0694,8.0694,8.0984,8.1128,8.1128,8.1128,8.1128,8.1128,8.1128,8.0767,8.0211,8.0175,7.9834,7.9365,7.9817,8.0606,8.1578,8.2793,8.3898,8.4823,8.5619,8.5225,8.4456,8.4526,8.4502,8.437,8.448,8.5501,8.6679,8.703,8.8093,8.9192,8.9485,9.0141,9.0581,9.0581,9.1197,9.1958,9.2501,9.3225,9.3986,9.4493,9.4819,9.5072,9.5326,9.5398,9.5217,9.4674,9.4384,9.4094,9.3841,9.4058,9.3129,9.0305,9.1354,9.0983,8.7905,8.8531,8.8767,8.8057,8.8666,8.8531,8.7313,8.8429,8.8158,8.6196,8.6907,8.6399,8.464,8.464,8.464,8.464,8.464,8.464,0.0,0.0,0.0,0.0,0.0,0.0,0.0,0.0,0.0,0.0,0.0,0.0,0.0,0.0,0.0,0.0,0.0,0.0,0.0,0.0,0.0,0.0,0.0,0.0,0.0,0.0,0.0,0.0,8.0332,8.0223,8.0984,8.1056,8.0694,7.9933,7.9897,7.9499,7.8738,7.9499,7.9897,7.9897,8.0694,8.1092,8.1128,8.1128,8.1128,8.1128,8.1128,8.1128,8.1128,8.1128,8.1128,8.1128,8.1128,8.1599,8.2396,8.3193,8.399,8.4823,8.5619,8.5261,8.4538,8.5324,8.5478,8.5455,8.6193,8.6965,8.7875,8.8845,8.9106,8.94,9.034,9.0581,9.0581,9.0581,9.1197,9.174,9.1813,9.2392,9.3406,9.5036,9.4746,9.4457,9.5253,9.5398,9.5362,9.5362,9.471,9.4529,9.5253,9.471,9.3776,9.2392,9.2267,9.1365,8.9261,8.9072,8.8767,8.8091,8.8811,8.8845,8.8134,8.8811,8.8506,8.705,8.7727,8.6907,8.4674,8.4674,8.464,8.464,8.464,8.464,5.5222,0.0,0.0,0.0,0.0,0.0,0.0,0.0,0.0,0.0,0.0,0.0,0.0,0.0,0.0,0.0,0.0,0.0,0.0,0.0,0.0,0.0,0.0,0.0,0.0,0.0,0.0,0.0,7.9716,7.9752,7.939,7.9354,7.9535,7.9897,7.9354,7.9209,7.9571,7.9209,7.9318,7.9897,8.0151,8.0549,8.1128,8.1128,8.1128,8.1128,8.1128,8.1128,8.1128,8.1128,8.1128,8.1128,8.1128,8.1599,8.2396,8.3193,8.399,8.4823,8.5619,8.5721,8.5375,8.4881,8.5477,8.6238,8.5742,8.6999,8.8721,8.9019,8.9569,9.0222,9.0501,9.0183,8.9857,9.0473,9.0328,9.0364,9.1559,9.1523,9.1921,9.4131,9.4348,9.4457,9.5253,9.5398,9.5181,9.4638,9.4855,9.4927,9.4602,9.4855,9.4136,9.1653,9.1951,9.1191,8.8549,8.9471,8.9785,8.8913,9.0466,9.0745,8.922,9.0607,9.067,8.9205,8.9157,8.8568,8.7367,8.6083,8.5182,8.464,8.464,8.464,0.0,0.0,0.0,0.0,0.0,0.0,6.3164,6.4432,6.6062,0.0,7.0299,0.0,0.0,0.0,0.0,0.0,0.0,0.0,0.0,0.0,0.0,0.0,0.0,0.0,0.0,7.8086,7.7977,7.8666,7.881,7.8847,7.8702,7.8702,7.8919,7.939,7.8629,7.8412,7.8883,7.8448,7.8593,7.939,7.9752,8.0332,8.1128,8.1128,8.1128,8.1128,8.1128,8.1128,8.1128,8.1128,8.1128,8.1128,8.1128,8.1599,8.2396,8.3193,8.399,8.4823,8.5619,8.5909,8.5797,8.5261,8.6029,8.7203,8.6666,8.8063,8.9773,8.9773,9.0141,9.0509,9.0183,8.9748,8.9531,8.9966,8.9748,8.9748,9.1016,9.0943,9.1306,9.3732,9.395,9.4058,9.5181,9.5398,9.5109,9.4348,9.4891,9.5109,9.4312,9.4891,9.4423,9.1829,9.2021,9.1429,8.9272,9.0151,9.0569,9.0498,9.1603,9.1596,9.0158,9.146,9.1509,8.9891,8.995,8.9465,8.8183,8.6588,8.5554,8.5114,8.5114,8.5114,0.0,0.0,0.0,0.0,0.0,0.0,6.3273,6.3997,6.4613,6.6315,6.838,0.0,0.0,7.2726,7.3197,7.4754,7.5152,7.5732,0.0,0.0,0.0,0.0,0.0,0.0,7.8303,7.7144,7.6891,7.834,7.776,7.7724,7.8521,7.8484,7.8484,7.8557,7.7796,7.7434,7.7615,7.747,7.7833,7.8702,7.9426,8.0187,8.0984,8.1056,8.1128,8.1128,8.1128,8.1128,8.1128,8.1128,8.1128,8.1128,8.1128,8.1635,8.2505,8.3229,8.4062,8.4931,8.5764,8.6018,8.6054,8.6126,8.7141,8.8336,8.8336,8.9386,9.0581,9.0581,9.0545,9.0292,8.9567,8.9314,8.9277,8.9386,8.9386,8.9603,9.0436,9.0581,9.1269,9.3515,9.337,9.337,9.4855,9.5109,9.4891,9.4167,9.4746,9.5,9.4312,9.4891,9.4603,9.2691,9.2497,9.2104,9.0988,9.0988,9.14,9.2302,9.2497,9.2168,9.1092,9.2069,9.1853,9.0291,9.0642,8.9941,8.7989,8.6602,8.5892,8.5892,8.5824,8.5824,0.0,0.0,0.0,0.0,0.0,0.0,6.0701,6.1534,6.3128,0.0,6.6207,6.78,7.1965,7.2726,7.3016,7.3993,7.5225,7.6167,7.6492,7.6384,7.642,0.0,0.0,0.0,7.6746,7.6456,7.642,7.6746,7.6601,7.6891,7.7688,7.7108,7.7072,7.7724,7.6927,7.7144,7.8448,7.7181,7.7253,7.8702,7.8847,7.9354,8.0151,8.0802,8.1128,8.1128,8.1128,8.1128,8.1128,8.1128,8.1128,8.1128,8.1128,8.1998,8.3265,8.3446,8.4424,8.5764,8.6525,8.6815,8.6887,8.7575,8.8408,8.9169,8.9169,8.9821,9.0581,9.0581,9.011,8.9603,8.9422,8.8915,8.8626,8.9241,8.9386,8.9603,9.0436,9.0581,9.0943,9.2066,9.2139,9.2356,9.3298,9.3479,9.3406,9.3261,9.3913,9.4384,9.4239,9.4891,9.49,9.3633,9.3541,9.3038,9.2069,9.2752,9.2943,9.2302,9.3852,9.4303,9.3226,9.4213,9.4619,9.43,9.2777,9.0607,8.7989,8.711,8.6704,8.667,8.6061,8.6095,0.0,0.0,0.0,6.1208,0.0,0.0,0.0,6.1136,6.1969,6.3997,6.4396,6.5374,6.8561,0.0,7.0299,7.1893,7.2834,7.403,7.6022,7.5949,7.5696,7.5696,0.0,0.0,7.5696,7.6058,7.6275,7.6275,7.6275,7.6456,7.6855,7.6529,7.6674,7.747,7.671,7.7072,7.8666,7.7108,7.7289,7.9281,7.8883,7.9318,8.0513,8.0911,8.1128,8.1128,8.1128,8.1128,8.1128,8.1128,8.1128,8.1128,8.1128,8.1853,8.2939,8.3338,8.4243,8.5475,8.6597,8.7032,8.7104,8.7503,8.8444,8.9314,8.8915,8.964,9.0509,9.011,8.9712,8.9205,8.8408,8.8227,8.8336,8.8734,8.9096,8.9603,9.0436,9.0581,9.0726,9.1125,9.1197,9.1595,9.2791,9.3008,9.3008,9.3008,9.3696,9.4203,9.4203,9.4891,9.4986,9.3908,9.3817,9.3633,9.3038,9.3541,9.3817,9.3817,9.4814,9.49,9.3817,9.4814,9.5193,9.4603,9.3073,9.1328,8.9341,8.849,8.7617,8.6907,8.6535,8.6569,0.0,0.0,0.0,0.0,0.0,6.1933,0.0,0.0,0.0,0.0,0.0,0.0,0.0,0.0,0.0,0.0,0.0,0.0,0.0,7.5044,0.0,7.5297,7.4935,0.0,7.508,7.5551,7.5877,7.6058,7.6058,7.613,7.6275,7.6275,7.6601,7.7253,7.6637,7.7,7.8448,7.7036,7.7362,7.9426,7.8955,7.939,8.0658,8.0984,8.1128,8.1128,8.1128,8.1128,8.1128,8.1128,8.1128,8.1128,8.1128,8.1672,8.2577,8.3229,8.4098,8.5149,8.6706,8.7249,8.7285,8.743,8.8336,8.9314,8.8807,8.9459,9.0219,8.9567,8.9169,8.8626,8.7358,8.7503,8.7974,8.7974,8.8698,8.9567,9.0219,9.0473,9.0581,9.0581,9.0581,9.1016,9.232,9.2537,9.2646,9.2972,9.3551,9.4094,9.4384,9.5,9.5072,9.4213,9.4124,9.4124,9.4124,9.4124,9.4515,9.5362,9.5398,9.4986,9.4124,9.49,9.49,9.3817,9.2943,9.2069,9.0988,8.958,8.8312,8.711,8.6974,8.6974,0.0,0.0,0.0,0.0,6.4649,0.0,0.0,0.0,0.0,6.2259,0.0,0.0,0.0,0.0,0.0,0.0,0.0,0.0,7.2871,7.3052,7.3776,7.5913,7.4283,0.0,0.0,7.4573,7.45,7.5189,7.5261,7.5551,7.6239,7.6275,7.6348,7.642,7.6348,7.671,7.7615,7.6746,7.6782,7.776,7.8412,7.881,7.9028,8.0476,8.1128,8.1128,8.1128,8.1128,8.1128,8.1128,8.1128,8.1128,8.1128,8.2034,8.3374,8.3446,8.446,8.5982,8.7539,8.8082,8.8191,8.8915,8.9241,8.9531,9.0147,8.9966,8.9531,8.9422,8.8372,8.7249,8.7068,8.7104,8.7141,8.7141,8.83,8.9422,8.9531,9.011,9.0581,9.0581,9.0581,9.0654,9.0835,9.0871,9.1378,9.2791,9.308,9.366,9.5072,9.5326,9.5362,9.5193,9.5193,9.5193,9.5193,9.5193,9.5278,9.5398,9.5398,9.5362,9.5193,9.5362,9.49,9.3817,9.3725,9.3132,9.2104,8.9706,8.8217,8.7854,8.7211,8.7245,0.0,0.0,0.0,0.0,0.0,0.0,6.2693,0.0,6.2693,0.0,0.0,0.0,0.0,0.0,0.0,0.0,6.7873,0.0,0.0,0.0,7.0698,0.0,0.0,0.0,0.0,0.0,0.0,0.0,7.4138,7.4573,7.4899,7.537,7.5804,7.6275,7.6275,7.6674,7.747,7.671,7.6927,7.8195,7.8557,7.8955,7.9462,8.0585,8.1128,8.1128,8.1128,8.1128,8.1128,8.1128,8.1128,8.1165,8.1599,8.2215,8.2903,8.3845,8.4605,8.5402,8.6996,8.7503,8.772,8.8988,8.9096,8.8843,8.9676,8.935,8.8626,8.8155,8.7575,8.6959,8.6489,8.6706,8.7032,8.7032,8.8227,8.9386,8.9386,9.0038,9.0581,9.0581,9.0581,9.0581,9.0581,9.0581,9.098,9.2139,9.2718,9.3406,9.4565,9.5109,9.5398,9.5398,9.5398,9.5398,9.5398,9.5398,9.5398,9.5398,9.5398,9.5398,9.5398,9.5398,9.5193,9.4691,9.4124,9.3633,9.3168,9.0806,8.9465,8.8867,8.7098,8.6433,6.5374,0.0,0.0,0.0,0.0,0.0,0.0,0.0,0.0,0.0,0.0,0.0,0.0,0.0,0.0,0.0,0.0,6.7293,0.0,6.7981,0.0,0.0,0.0,0.0,0.0,0.0,7.3342,7.2762,7.3052,7.345,7.3885,7.4464,7.5261,7.6275,7.6275,7.6565,7.7181,7.6565,7.6891,7.805,7.8484,7.9028,7.9607,8.0658,8.1128,8.1128,8.1128,8.1128,8.1128,8.1128,8.1128,8.1201,8.1998,8.2432,8.2794,8.4171,8.4823,8.5257,8.6815,8.7503,8.7901,8.9277,8.906,8.8372,8.9169,8.8698,8.7756,8.7177,8.6887,8.6634,8.6054,8.6308,8.6778,8.6959,8.8082,8.9133,8.935,9.0038,9.0581,9.0581,9.0581,9.0581,9.0581,9.0581,9.0871,9.1668,9.2501,9.3298,9.4131,9.4891,9.5398,9.5398,9.5398,9.5398,9.5398,9.5398,9.5398,9.5398,9.5398,9.5398,9.5398,9.5398,9.5398,9.5398,9.4603,9.4213,9.4213,9.2251,9.0872,9.0105,8.7359,8.6095,0.0,0.0,0.0,6.641,0.0,0.0,0.0,0.0,6.4323,0.0,0.0,0.0,0.0,0.0,0.0,0.0,0.0,0.0,0.0,0.0,0.0,0.0,0.0,0.0,0.0,7.2726,7.2726,7.2726,7.2001,7.2255,7.3849,7.3921,7.4682,7.6239,7.6275,7.6311,7.6348,7.6311,7.6311,7.6384,7.7941,7.8702,7.8774,8.0404,8.1128,8.1128,8.1128,8.1128,8.1128,8.1128,8.1128,8.1201,8.1998,8.2758,8.3555,8.4388,8.5185,8.609,8.7648,8.8662,8.9459,9.0292,8.9495,8.8372,8.9169,8.83,8.7032,8.7032,8.6489,8.5909,8.5909,8.5909,8.6126,8.6851,8.7648,8.8481,8.9241,9.0038,9.0581,9.0581,9.0581,9.0581,9.0581,9.0581,9.0871,9.1668,9.2501,9.3298,9.4131,9.4891,9.5398,9.5398,9.5398,9.5398,9.5398,9.5398,9.5398,9.5398,9.5398,9.5398,9.5398,9.5398,9.5398,9.5398,9.5398,9.5362,9.5362,9.3514,9.2246,9.1408,8.833,8.6873,0.0,0.0,7.0369,6.7928,0.0,0.0,0.0,0.0,0.0,0.0,0.0,0.0,0.0,0.0,0.0,0.0,0.0,0.0,0.0,0.0,0.0,0.0,0.0,0.0,0.0,0.0,0.0,6.9647,6.8343,6.8525,7.0661,7.1748,7.3052,7.4682,7.5732,7.6275,7.6275,7.6275,7.6275,7.6311,7.7398,7.8195,7.8738,7.9825,8.0621,8.1128,8.1128,8.1128,8.1128,8.1128,8.1128,8.1201,8.1998,8.312,8.4316,8.4605,8.5511,8.6778,8.7865,8.8734,8.9422,8.9712,8.9096,8.8263,8.8553,8.7503,8.6271,8.6271,8.609,8.5909,8.5909,8.6271,8.6706,8.6959,8.8046,8.906,8.935,9.0038,9.0581,9.0581,9.0581,9.0581,9.0581,9.0581,9.069,9.0943,9.1704,9.232,9.2573,9.3768,9.4602,9.4602,9.4602,9.4819,9.5326,9.4891,9.4819,9.5362,9.4384,9.4276,9.5326,9.4891,9.4855,9.5362,9.5398,9.5145,9.4602,9.3263,9.2211,9.1337,8.966,8.835,6.9937,7.0697,0.0,6.9194,6.845,0.0,6.6099,0.0,0.0,0.0,0.0,0.0,0.0,0.0,0.0,0.0,6.7751,0.0,0.0,6.273,0.0,0.0,0.0,0.0,0.0,0.0,6.8814,6.6858,6.6025,6.6279,0.0,0.0,7.1531,7.3414,7.5044,7.6022,7.6275,7.6275,7.6275,7.6311,7.7108,7.776,7.8303,7.939,8.0187,8.0694,8.0984,8.1128,8.1128,8.1128,8.1273,8.1563,8.207,8.3446,8.5112,8.5112,8.6271,8.7901,8.8155,8.8734,8.935,8.906,8.8444,8.7793,8.7793,8.6923,8.6018,8.6561,8.6308,8.609,8.6923,8.7104,8.7177,8.772,8.8662,8.9459,8.9748,9.0219,9.0581,9.0581,9.0581,9.0581,9.0581,9.0835,9.0943,9.0654,9.1269,9.1813,9.1813,9.3225,9.4094,9.3805,9.4058,9.4312,9.4529,9.4058,9.4131,9.4927,9.3986,9.4022,9.5326,9.4891,9.5253,9.663,9.5543,9.5145,9.5471,9.3935,9.2725,9.1936,9.1568,9.0692]},{"header":{"parameterUnit":"m.s-1","parameterCategory":1,"la1":30.6,"la2":29.2853,"lo1":-89.7004,"lo2":-87.6739,"dx":0.0162,"dy":0.0183,"nx":112,"ny":82,"refTime":"2023-01-23T06:00:00:Z","depth":0,"parameterNumber":3,"parameterNumberName":"V-component_of_WINDS"},"data":[0.0,0.0,0.0,0.0,0.0,0.0,0.0,0.0,0.0,0.0,0.0,0.0,0.0,0.0,0.0,0.0,0.0,0.0,0.0,0.0,0.0,0.0,0.0,0.0,0.0,0.0,0.0,0.0,0.0,0.0,0.0,0.0,0.0,0.0,0.0,0.0,0.0,0.0,0.0,0.0,0.0,0.0,0.0,0.0,0.0,0.0,0.0,0.0,0.0,0.0,0.0,0.0,0.0,0.0,0.0,0.0,0.0,0.0,0.0,0.0,0.0,0.0,0.0,0.0,0.0,0.0,0.0,0.0,0.0,0.0,0.0,0.0,0.0,0.0,0.0,0.0,0.0,0.0,0.0,0.0,0.0,0.0,0.0,0.0,0.0,0.0,0.0,0.0,0.0,0.0,-3.0507,-3.1989,-3.4826,-3.6584,-3.6483,-3.5755,-3.4474,-3.2591,0.0,0.0,0.0,0.0,0.0,0.0,0.0,0.0,0.0,0.0,0.0,0.0,0.0,0.0,0.0,0.0,0.0,0.0,0.0,0.0,0.0,0.0,0.0,0.0,0.0,0.0,0.0,0.0,0.0,0.0,0.0,0.0,0.0,0.0,0.0,0.0,0.0,0.0,0.0,0.0,0.0,0.0,0.0,0.0,0.0,0.0,0.0,0.0,0.0,0.0,0.0,0.0,0.0,0.0,0.0,0.0,0.0,0.0,0.0,0.0,0.0,0.0,0.0,0.0,0.0,0.0,0.0,0.0,0.0,0.0,0.0,0.0,0.0,0.0,0.0,0.0,0.0,0.0,0.0,0.0,0.0,0.0,0.0,0.0,0.0,0.0,0.0,0.0,0.0,0.0,0.0,0.0,0.0,0.0,0.0,0.0,0.0,0.0,0.0,0.0,0.0,0.0,0.0,0.0,-3.1813,-3.5228,-3.6885,-3.7563,-3.7111,-3.5278,-3.3997,-3.3671,0.0,0.0,0.0,0.0,0.0,0.0,0.0,0.0,0.0,0.0,0.0,0.0,0.0,0.0,0.0,0.0,0.0,0.0,0.0,0.0,0.0,0.0,0.0,0.0,0.0,0.0,0.0,0.0,0.0,0.0,0.0,0.0,0.0,0.0,0.0,0.0,0.0,0.0,0.0,0.0,0.0,0.0,0.0,0.0,0.0,0.0,0.0,0.0,0.0,0.0,0.0,0.0,0.0,0.0,0.0,0.0,0.0,0.0,0.0,0.0,0.0,0.0,0.0,0.0,0.0,0.0,0.0,0.0,0.0,0.0,0.0,0.0,0.0,0.0,0.0,0.0,0.0,0.0,0.0,0.0,0.0,0.0,0.0,0.0,0.0,0.0,0.0,0.0,0.0,0.0,0.0,0.0,0.0,0.0,0.0,0.0,0.0,0.0,0.0,0.0,0.0,0.0,0.0,-3.1361,-3.342,-3.6081,-3.7638,-3.8241,-3.7688,-3.5881,-3.4525,-3.3947,-3.2064,0.0,0.0,0.0,0.0,0.0,0.0,0.0,0.0,0.0,0.0,0.0,0.0,0.0,0.0,0.0,0.0,0.0,0.0,0.0,0.0,0.0,0.0,0.0,0.0,0.0,0.0,0.0,0.0,0.0,0.0,0.0,0.0,0.0,0.0,0.0,0.0,0.0,0.0,0.0,0.0,0.0,0.0,0.0,0.0,0.0,0.0,0.0,0.0,0.0,0.0,0.0,0.0,0.0,0.0,0.0,0.0,0.0,0.0,0.0,0.0,0.0,0.0,0.0,0.0,0.0,0.0,0.0,0.0,0.0,0.0,0.0,0.0,0.0,0.0,0.0,0.0,0.0,0.0,0.0,0.0,0.0,0.0,0.0,0.0,0.0,0.0,0.0,0.0,0.0,0.0,0.0,0.0,0.0,0.0,0.0,0.0,0.0,0.0,0.0,0.0,0.0,0.0,-3.3294,-3.4826,-3.6759,-3.8115,-3.8642,-3.8065,-3.6383,-3.4926,-3.3947,-3.1838,0.0,0.0,0.0,0.0,0.0,0.0,0.0,0.0,0.0,0.0,0.0,0.0,0.0,0.0,0.0,0.0,0.0,0.0,0.0,0.0,0.0,0.0,0.0,0.0,0.0,0.0,0.0,0.0,0.0,0.0,0.0,0.0,0.0,0.0,0.0,0.0,0.0,0.0,0.0,0.0,0.0,0.0,0.0,0.0,0.0,0.0,0.0,0.0,0.0,0.0,0.0,0.0,0.0,0.0,0.0,0.0,0.0,0.0,0.0,0.0,0.0,0.0,0.0,0.0,0.0,0.0,0.0,0.0,0.0,0.0,0.0,0.0,0.0,0.0,0.0,0.0,0.0,0.0,0.0,0.0,0.0,0.0,0.0,0.0,0.0,0.0,0.0,0.0,0.0,0.0,0.0,0.0,0.0,0.0,0.0,0.0,0.0,0.0,0.0,0.0,0.0,0.0,-3.46,-3.5705,-3.8417,-3.8793,-3.8642,-3.8065,-3.6031,-3.4525,-3.3947,-3.1838,0.0,0.0,0.0,0.0,0.0,0.0,0.0,0.0,0.0,0.0,0.0,0.0,0.0,0.0,0.0,0.0,0.0,0.0,0.0,0.0,0.0,0.0,0.0,0.0,0.0,0.0,0.0,0.0,0.0,0.0,0.0,0.0,0.0,0.0,0.0,0.0,0.0,0.0,0.0,0.0,0.0,0.0,0.0,0.0,0.0,0.0,0.0,0.0,0.0,0.0,0.0,0.0,0.0,0.0,0.0,0.0,0.0,0.0,0.0,0.0,0.0,0.0,0.0,0.0,0.0,0.0,0.0,0.0,0.0,0.0,0.0,0.0,0.0,0.0,0.0,0.0,0.0,0.0,0.0,0.0,0.0,0.0,0.0,0.0,0.0,0.0,0.0,0.0,0.0,0.0,0.0,0.0,0.0,0.0,0.0,0.0,0.0,0.0,0.0,0.0,0.0,0.0,-3.5027,-3.6157,0.0,-3.917,-3.9019,-3.809,-3.6331,-3.5051,-3.441,0.0,0.0,0.0,0.0,0.0,0.0,0.0,0.0,0.0,0.0,0.0,0.0,0.0,0.0,0.0,0.0,0.0,0.0,0.0,0.0,0.0,0.0,0.0,0.0,0.0,0.0,0.0,0.0,0.0,0.0,0.0,0.0,0.0,0.0,0.0,0.0,0.0,0.0,0.0,0.0,0.0,0.0,0.0,0.0,0.0,0.0,0.0,0.0,0.0,0.0,0.0,0.0,0.0,0.0,0.0,0.0,0.0,0.0,0.0,0.0,0.0,0.0,0.0,0.0,0.0,0.0,0.0,0.0,0.0,0.0,0.0,0.0,0.0,0.0,0.0,0.0,0.0,0.0,0.0,0.0,0.0,0.0,0.0,0.0,0.0,0.0,0.0,0.0,0.0,0.0,0.0,0.0,0.0,0.0,0.0,0.0,0.0,0.0,0.0,0.0,0.0,0.0,-3.4675,-3.5303,-3.6458,0.0,-3.9145,-3.8742,-3.7568,-3.6063,-3.4727,-3.3747,0.0,0.0,0.0,0.0,0.0,0.0,0.0,0.0,0.0,0.0,0.0,0.0,0.0,0.0,0.0,0.0,0.0,0.0,0.0,0.0,0.0,0.0,0.0,0.0,0.0,0.0,0.0,0.0,0.0,0.0,0.0,0.0,0.0,0.0,0.0,0.0,0.0,0.0,0.0,0.0,0.0,0.0,0.0,0.0,0.0,0.0,0.0,0.0,0.0,0.0,0.0,0.0,0.0,0.0,0.0,0.0,0.0,0.0,0.0,0.0,0.0,0.0,0.0,0.0,0.0,0.0,0.0,0.0,0.0,0.0,0.0,0.0,0.0,0.0,0.0,0.0,0.0,0.0,0.0,0.0,0.0,0.0,0.0,0.0,0.0,0.0,0.0,0.0,0.0,0.0,0.0,0.0,0.0,0.0,0.0,0.0,0.0,0.0,0.0,0.0,0.0,0.0,-3.5177,-3.5462,-3.6634,-3.9396,-3.8693,-3.7593,-3.6464,-3.4919,-3.3292,0.0,0.0,0.0,0.0,0.0,0.0,0.0,0.0,0.0,0.0,0.0,0.0,0.0,0.0,0.0,0.0,0.0,0.0,0.0,0.0,0.0,0.0,0.0,0.0,0.0,0.0,0.0,0.0,0.0,0.0,0.0,0.0,0.0,0.0,0.0,0.0,0.0,0.0,0.0,0.0,0.0,0.0,0.0,0.0,0.0,0.0,0.0,0.0,0.0,0.0,0.0,0.0,0.0,0.0,0.0,0.0,0.0,0.0,0.0,0.0,0.0,0.0,0.0,0.0,0.0,0.0,0.0,0.0,0.0,0.0,0.0,0.0,0.0,0.0,0.0,0.0,0.0,0.0,0.0,0.0,0.0,0.0,0.0,0.0,0.0,0.0,0.0,0.0,0.0,0.0,0.0,0.0,0.0,0.0,0.0,0.0,0.0,0.0,0.0,0.0,0.0,0.0,0.0,-3.5144,-3.5544,-3.6653,-3.9368,-3.9396,-3.8438,-3.6512,-3.5301,-3.404,-3.281,0.0,0.0,0.0,0.0,0.0,0.0,0.0,0.0,0.0,0.0,0.0,0.0,0.0,0.0,0.0,0.0,0.0,0.0,0.0,0.0,0.0,0.0,0.0,0.0,0.0,0.0,0.0,0.0,0.0,0.0,0.0,0.0,0.0,0.0,0.0,0.0,0.0,0.0,0.0,0.0,0.0,0.0,0.0,0.0,0.0,0.0,0.0,0.0,0.0,0.0,0.0,0.0,0.0,0.0,0.0,0.0,0.0,0.0,0.0,0.0,0.0,0.0,0.0,0.0,0.0,0.0,0.0,0.0,0.0,0.0,0.0,0.0,0.0,0.0,0.0,0.0,0.0,0.0,0.0,0.0,0.0,0.0,0.0,0.0,0.0,0.0,0.0,0.0,0.0,0.0,0.0,0.0,0.0,0.0,0.0,0.0,0.0,0.0,0.0,0.0,0.0,0.0,-3.3956,-3.4626,-3.5765,-3.8097,-3.8073,-3.7268,-3.5457,-3.4393,-3.3294,-3.2222,0.0,0.0,0.0,0.0,0.0,0.0,0.0,0.0,0.0,0.0,0.0,0.0,0.0,0.0,0.0,0.0,0.0,0.0,0.0,0.0,0.0,0.0,0.0,0.0,0.0,0.0,0.0,0.0,0.0,0.0,0.0,0.0,0.0,0.0,0.0,0.0,0.0,0.0,0.0,0.0,0.0,0.0,0.0,0.0,0.0,0.0,0.0,0.0,0.0,0.0,0.0,0.0,0.0,0.0,0.0,0.0,0.0,0.0,0.0,0.0,0.0,0.0,0.0,0.0,0.0,0.0,0.0,0.0,0.0,0.0,0.0,0.0,0.0,0.0,0.0,0.0,0.0,0.0,0.0,0.0,0.0,0.0,0.0,0.0,0.0,0.0,0.0,0.0,0.0,0.0,0.0,0.0,0.0,0.0,0.0,0.0,0.0,0.0,0.0,0.0,0.0,0.0,-3.2345,-3.3275,-3.4566,-3.6185,-3.591,-3.5075,-3.3923,-3.2962,-3.1889,-3.0805,0.0,0.0,0.0,0.0,0.0,0.0,0.0,0.0,0.0,0.0,0.0,0.0,0.0,0.0,0.0,0.0,0.0,0.0,0.0,0.0,0.0,0.0,0.0,0.0,0.0,0.0,0.0,0.0,0.0,0.0,0.0,0.0,0.0,0.0,0.0,0.0,0.0,0.0,0.0,0.0,0.0,0.0,0.0,0.0,0.0,0.0,0.0,0.0,0.0,0.0,0.0,0.0,0.0,0.0,0.0,0.0,0.0,0.0,0.0,0.0,-2.8907,0.0,0.0,0.0,0.0,0.0,0.0,0.0,0.0,0.0,0.0,0.0,0.0,0.0,0.0,0.0,0.0,0.0,0.0,0.0,0.0,0.0,0.0,0.0,0.0,0.0,0.0,0.0,0.0,0.0,0.0,0.0,0.0,0.0,0.0,0.0,0.0,0.0,0.0,0.0,0.0,0.0,-3.305,-3.3675,-3.4754,-3.6995,-3.7175,-3.6364,-3.4493,-3.3792,-3.2707,-3.0847,-3.0056,0.0,0.0,0.0,0.0,0.0,0.0,0.0,0.0,0.0,0.0,0.0,0.0,0.0,0.0,0.0,0.0,0.0,0.0,0.0,0.0,0.0,0.0,0.0,0.0,0.0,0.0,0.0,0.0,0.0,0.0,0.0,0.0,0.0,0.0,0.0,0.0,0.0,0.0,0.0,0.0,0.0,0.0,0.0,0.0,0.0,0.0,0.0,0.0,0.0,0.0,0.0,0.0,0.0,0.0,0.0,0.0,0.0,0.0,0.0,0.0,-2.9687,0.0,0.0,0.0,0.0,0.0,0.0,0.0,0.0,0.0,0.0,0.0,0.0,0.0,0.0,0.0,0.0,0.0,0.0,0.0,0.0,0.0,0.0,0.0,0.0,0.0,0.0,0.0,0.0,0.0,0.0,0.0,0.0,0.0,0.0,0.0,0.0,0.0,0.0,0.0,0.0,-3.2271,-3.2771,-3.3647,-3.5736,-3.5889,-3.5461,-3.441,-3.3636,-3.2712,-3.1381,-3.0698,0.0,0.0,0.0,0.0,0.0,0.0,0.0,0.0,0.0,0.0,0.0,0.0,0.0,0.0,0.0,0.0,0.0,0.0,0.0,0.0,0.0,0.0,0.0,0.0,0.0,0.0,0.0,0.0,0.0,0.0,0.0,0.0,0.0,0.0,0.0,0.0,0.0,0.0,0.0,0.0,0.0,0.0,0.0,0.0,0.0,0.0,0.0,0.0,0.0,0.0,0.0,0.0,0.0,-2.9397,-2.9428,-2.9479,-2.9388,-2.9732,-3.0554,-3.0274,-3.007,-2.9839,-2.9365,0.0,0.0,0.0,0.0,0.0,0.0,0.0,0.0,0.0,0.0,0.0,0.0,0.0,0.0,0.0,0.0,0.0,0.0,0.0,0.0,0.0,0.0,0.0,0.0,-3.0348,-3.0014,0.0,0.0,0.0,0.0,0.0,0.0,0.0,0.0,0.0,0.0,0.0,0.0,-3.1402,-3.1981,-3.2789,-3.4155,-3.43,-3.4279,-3.4196,-3.343,-3.2612,-3.2076,-3.1189,-3.0381,0.0,0.0,0.0,0.0,0.0,0.0,0.0,0.0,0.0,0.0,0.0,0.0,0.0,0.0,0.0,0.0,0.0,0.0,0.0,0.0,0.0,0.0,0.0,0.0,0.0,0.0,0.0,0.0,0.0,0.0,0.0,0.0,-3.0005,-3.0557,0.0,0.0,0.0,0.0,0.0,0.0,0.0,0.0,0.0,0.0,0.0,0.0,0.0,-3.0697,-2.9591,-2.9467,-3.0003,-3.1135,-3.0454,-3.0549,-3.1333,-3.087,-3.0695,-3.0794,-3.0849,0.0,-2.9226,-2.8669,0.0,0.0,0.0,0.0,0.0,0.0,0.0,0.0,0.0,0.0,0.0,0.0,0.0,0.0,0.0,0.0,0.0,0.0,0.0,0.0,0.0,0.0,-2.914,-2.8985,-2.9785,-3.0453,0.0,-3.0592,-3.0813,-2.9091,-2.9504,0.0,0.0,0.0,0.0,0.0,0.0,0.0,-3.2313,-3.2934,-3.372,-3.5086,-3.5252,-3.5086,-3.4693,-3.3957,-3.3182,-3.2342,-3.1086,-3.0287,-2.9843,-2.9399,0.0,0.0,0.0,0.0,0.0,0.0,0.0,0.0,0.0,0.0,0.0,0.0,0.0,0.0,0.0,0.0,0.0,0.0,0.0,0.0,0.0,0.0,0.0,0.0,0.0,0.0,0.0,0.0,0.0,-3.0507,-3.0909,-3.1461,-3.1235,-3.106,0.0,0.0,0.0,0.0,0.0,0.0,0.0,0.0,0.0,-3.2678,-3.1915,-3.1816,-3.2241,-3.1402,-3.1096,-3.1502,-3.1164,-3.1496,-3.2355,-3.2096,-3.209,-3.2305,-3.207,-3.1505,-3.0737,-2.9279,-2.8127,-2.7383,0.0,0.0,0.0,0.0,-2.6894,-2.7231,-2.7614,-2.7776,0.0,-2.8084,0.0,0.0,0.0,0.0,0.0,0.0,0.0,0.0,0.0,0.0,-2.9826,-2.9829,-3.0636,-3.1319,-3.0864,-3.1465,-3.1805,0.0,-3.037,-3.0284,-2.987,0.0,0.0,0.0,0.0,-3.134,-3.2892,-3.3492,-3.43,-3.5666,-3.5583,-3.5314,-3.5273,-3.4493,-3.3595,-3.2444,-3.166,-3.079,-2.9998,-2.9647,-2.9299,0.0,0.0,0.0,0.0,0.0,0.0,0.0,0.0,0.0,0.0,0.0,0.0,0.0,0.0,0.0,0.0,0.0,0.0,0.0,0.0,0.0,0.0,0.0,0.0,0.0,0.0,0.0,0.0,-3.1185,-3.1712,-3.1964,-3.2014,-3.1989,0.0,0.0,0.0,0.0,0.0,0.0,-3.291,-3.2162,-3.2519,-3.4125,-3.3029,-3.2891,-3.3968,-3.3066,-3.2454,-3.2168,-3.2285,-3.2734,-3.3457,-3.3457,-3.3633,-3.3906,-3.3476,-3.3047,-3.25,-3.043,-2.9336,-2.8887,-2.8262,-2.8008,-2.8008,-2.8008,-2.8203,-2.8496,-2.8691,-2.8691,-2.8779,-2.8854,0.0,-2.8101,-2.8084,0.0,0.0,0.0,0.0,-2.9306,-2.9724,-3.0381,-3.0901,-3.1018,-3.1787,-3.2323,-3.1758,-3.2189,-3.2354,0.0,-3.1195,-3.0988,-3.0756,0.0,0.0,0.0,0.0,-3.2168,-3.3272,-3.3932,-3.4716,-3.5871,-3.5789,-3.5622,-3.5448,-3.4858,-3.3984,-3.2714,-3.2036,-3.1281,-3.028,-2.9948,-2.9481,-2.8926,0.0,0.0,0.0,0.0,0.0,0.0,0.0,0.0,0.0,0.0,0.0,0.0,0.0,0.0,0.0,0.0,0.0,0.0,0.0,0.0,0.0,0.0,0.0,0.0,0.0,0.0,0.0,0.0,0.0,-3.1486,-3.2817,0.0,0.0,0.0,0.0,-3.4189,-3.3385,-3.3667,-3.5547,-3.4729,-3.4425,-3.5015,-3.4202,-3.3396,-3.2942,-3.2819,-3.325,-3.3945,-3.4355,-3.4785,-3.5254,-3.5254,-3.5273,-3.5273,-3.4805,-3.4375,-3.3848,-3.2109,-3.1133,-3.0762,-3.0703,-3.0703,-3.0703,-3.0703,-3.0703,-3.0723,-3.0723,-3.0723,-3.0664,-3.0215,-2.9512,-2.8859,-2.868,-2.8668,0.0,0.0,-2.991,-3.0469,-3.1148,-3.2025,-3.2676,-3.2268,-3.284,-3.335,-3.2549,-3.2371,-3.2261,0.0,-3.1692,-3.1725,-3.1052,0.0,-3.1264,-3.1095,-3.2014,-3.288,-3.3551,-3.4309,-3.5044,-3.5554,-3.5963,-3.5916,-3.5255,-3.5047,-3.4518,-3.3267,-3.2175,-3.1289,-3.084,-3.0,-2.9336,-2.8926,-2.8731,0.0,0.0,0.0,0.0,0.0,0.0,0.0,0.0,0.0,0.0,0.0,0.0,0.0,0.0,0.0,0.0,0.0,0.0,0.0,0.0,0.0,0.0,0.0,0.0,0.0,0.0,0.0,0.0,-3.4435,-3.4568,0.0,-3.5357,-3.4944,-3.4667,-3.4987,-3.4644,-3.4604,-3.5337,-3.5061,-3.5491,-3.6855,-3.5544,-3.5331,-3.6557,-3.5396,-3.5176,-3.5742,-3.5898,-3.6191,-3.6621,-3.6621,-3.6621,-3.6582,-3.5859,-3.5625,-3.5644,-3.4492,-3.3105,-3.1719,-3.1719,-3.1387,-3.0918,-3.1191,-3.1289,-3.1289,-3.1289,-3.1289,-3.123,-3.0781,-3.043,-3.0156,-3.0133,-3.0187,-3.0413,-3.0618,-3.1037,-3.1496,-3.1977,-3.2408,-3.2714,-3.2791,-3.3437,-3.3962,-3.3377,-3.396,-3.4161,-3.3072,-3.2484,-3.2275,-3.2436,-3.2207,-3.2133,-3.2296,-3.3064,-3.3779,-3.4125,-3.5102,-3.5834,-3.6152,-3.5961,-3.5791,-3.5671,-3.5171,-3.4318,-3.3473,-3.2525,-3.1738,-3.1309,-3.0449,-2.9902,-2.9746,-2.9172,-2.8682,0.0,0.0,0.0,0.0,0.0,0.0,0.0,0.0,0.0,0.0,0.0,0.0,0.0,0.0,0.0,0.0,0.0,0.0,0.0,0.0,0.0,0.0,0.0,0.0,0.0,0.0,-3.4917,-3.5864,-3.6642,-3.7028,-3.6709,-3.6567,-3.6524,-3.6252,-3.5911,-3.5855,-3.6604,-3.6085,-3.675,-3.8479,-3.7052,-3.6996,-3.8526,-3.7272,-3.6875,-3.7324,-3.7461,-3.7676,-3.793,-3.793,-3.7871,-3.7695,-3.6973,-3.6738,-3.6836,-3.6269,-3.5098,-3.3652,-3.3359,-3.2812,-3.2207,-3.248,-3.2598,-3.2598,-3.2598,-3.2402,-3.2109,-3.1836,-3.1562,-3.1328,-3.1328,-3.1427,-3.1663,-3.1761,-3.2058,-3.2512,-3.2975,-3.3294,-3.3505,-3.3753,-3.4193,-3.4532,-3.4107,-3.4744,-3.5082,-3.4332,-3.3576,-3.3175,-3.3391,-3.3112,-3.2934,-3.3195,-3.3984,-3.4571,-3.4604,-3.5557,-3.6244,-3.6262,-3.601,-3.5778,-3.5514,-3.527,-3.4507,-3.3262,-3.2695,-3.2129,-3.1543,-3.0957,-3.0508,-3.0195,-2.9492,-2.9004,-2.873,0.0,0.0,0.0,0.0,0.0,0.0,0.0,0.0,0.0,0.0,0.0,0.0,0.0,0.0,0.0,0.0,0.0,0.0,0.0,0.0,0.0,0.0,0.0,-3.3981,-3.6193,-3.722,-3.5509,-3.9004,-4.0258,-3.6969,-3.829,-3.8964,-3.7972,-3.7065,-3.7348,-3.9583,-3.8219,-3.8085,-3.9798,-3.8684,-3.8203,-3.8633,-3.8203,-3.8203,-3.8613,-3.9023,-3.9219,-3.9219,-3.9219,-3.9004,-3.8594,-3.8144,-3.7734,-3.7383,-3.7344,-3.709,-3.6641,-3.5781,-3.5156,-3.4746,-3.4746,-3.4726,-3.4707,-3.4707,-3.416,-3.3457,-3.3457,-3.291,-3.2246,-3.2226,-3.2246,-3.2368,-3.2571,-3.306,-3.3583,-3.4213,-3.4852,-3.525,-3.525,-3.527,-3.5159,-3.4897,-3.4766,-3.4916,-3.5159,-3.4852,-3.4258,-3.355,-3.3574,-3.3837,-3.3902,-3.4612,0.0,-3.5147,-3.554,-3.5964,-3.5964,-3.6301,-3.6068,-3.4805,-3.5495,-3.5001,-3.2949,-3.2793,-3.2402,-3.1562,-3.1504,-3.1094,-3.0215,-2.9805,-2.959,-2.957,0.0,0.0,0.0,0.0,0.0,0.0,0.0,0.0,0.0,0.0,0.0,0.0,0.0,0.0,0.0,0.0,0.0,0.0,0.0,0.0,0.0,0.0,-3.4016,-3.3908,-3.5256,-3.6585,-3.7492,-3.8852,-3.9774,-3.9748,-3.9411,-3.9305,-3.9385,-3.7879,-3.7768,-3.9229,-3.8675,-3.8857,-4.0365,-3.9661,-3.9551,-3.998,-3.957,-3.9414,-3.9531,-3.9648,-3.9707,-3.9707,-3.9707,-3.9648,-3.9512,-3.9043,-3.8984,-3.9141,-3.8496,-3.8164,-3.7969,-3.7109,-3.6309,-3.5664,-3.5664,-3.5254,-3.4707,-3.4707,-3.4551,-3.4355,-3.4355,-3.4199,-3.3945,-3.3633,-3.3769,-3.3945,-3.376,-3.4054,-3.4355,-3.4615,-3.5028,-3.5328,-3.5328,-3.5818,-3.6269,-3.6133,-3.6367,-3.6504,-3.6328,-3.6209,-3.583,-3.5131,-3.4675,-3.4457,-3.4854,-3.523,0.0,-3.5717,-3.6384,-3.6719,-3.6465,-3.6563,-3.6387,-3.5703,-3.5309,-3.4681,-3.3769,-3.2851,-3.209,-3.1543,-3.123,-3.0781,-3.0215,-3.0078,-2.9863,0.0,0.0,0.0,0.0,0.0,0.0,0.0,0.0,0.0,0.0,0.0,0.0,0.0,0.0,0.0,0.0,0.0,0.0,0.0,0.0,0.0,0.0,-3.4492,-3.4853,-3.4955,-3.6424,-3.7746,-3.8803,-4.0249,-4.0997,-4.0604,-4.0464,-4.0289,-3.9855,-3.8951,-3.8789,-3.9707,-3.9531,-3.9824,-4.0762,-4.0566,-4.0547,-4.0801,-4.0723,-4.0703,-4.0703,-4.0879,-4.0957,-4.0957,-4.0781,-4.0586,-4.041,-3.9961,-3.9805,-3.9863,-3.9336,-3.9121,0.0,0.0,0.0,0.0,0.0,-3.623,-3.5762,-3.5586,-3.541,-3.5215,-3.5039,-3.4863,-3.4648,-3.4414,-3.4512,-3.4648,-3.4394,-3.4766,-3.5254,-3.5254,-3.5723,-3.6191,-3.6191,-3.6562,-3.6934,-3.6934,-3.7129,-3.7226,-3.6973,-3.6934,0.0,-3.6459,-3.5913,-3.5661,-3.6063,-3.6285,-3.6464,-3.6563,-3.6937,-3.7212,-3.6934,-3.6934,-3.6758,-3.6328,-3.582,0.0,0.0,0.0,-3.2344,-3.1543,-3.1113,0.0,0.0,0.0,-3.0371,-3.0117,0.0,0.0,0.0,-2.9258,-2.9062,0.0,0.0,0.0,0.0,0.0,0.0,0.0,0.0,0.0,0.0,0.0,0.0,0.0,0.0,0.0,0.0,-3.4694,-3.6201,-3.6578,-3.8681,-3.9952,-3.9385,-4.186,-4.2682,-4.0097,-4.1319,-4.1603,-4.019,-4.0078,-4.0273,-4.0644,0.0,0.0,0.0,0.0,-4.1308,-4.1308,-4.168,-4.1875,-4.1875,-4.2246,-4.2422,-4.2422,-4.2031,-4.166,-4.1289,-4.0918,-4.0527,-4.0176,-4.0137,-4.0059,-3.9844,-3.8633,-3.7851,-3.7441,-3.7441,-3.7383,-3.7246,-3.6875,0.0,0.0,-3.5723,-3.5332,-3.498,-3.4941,-3.4961,-3.498,-3.4941,-3.5527,-3.6172,-3.6172,-3.6758,-3.7363,-3.7363,-3.7402,-3.7441,-3.7441,-3.7441,-3.7441,-3.7441,-3.7441,-3.7441,-3.7441,-3.7051,-3.6877,-3.7154,-3.7191,-3.7328,-3.7272,-3.7269,-3.7363,-3.7363,0.0,0.0,-3.6777,-3.6699,-3.5976,-3.4316,-3.3711,-3.2891,-3.1719,-3.1309,-3.125,-3.1582,-3.123,-3.1035,-3.1035,-3.0976,-3.0996,-3.1016,-3.0137,-2.9726,0.0,0.0,0.0,0.0,0.0,0.0,0.0,0.0,0.0,0.0,0.0,0.0,0.0,0.0,0.0,-3.5163,-3.5947,-3.6909,-3.8402,-3.9619,-4.0164,-3.9334,-4.0654,-4.139,-4.0445,-4.1581,-4.1955,-4.0976,-4.125,-4.1465,-4.1543,-4.1543,-4.1738,-4.2168,-4.2187,-4.2187,-4.2187,-4.2266,-4.2305,-4.2305,0.0,0.0,-4.2422,-4.2344,-4.2266,-4.2187,-4.209,-4.2012,-4.1914,-4.1582,-4.1016,-4.0332,-3.9746,-3.9023,-3.832,-3.832,-3.7891,-3.7285,-3.7207,-3.7109,-3.7031,-3.6953,-3.6875,-3.6738,-3.6387,-3.6523,0.0,-3.6387,-3.666,-3.7051,-3.7051,-3.7422,-3.7812,-3.7812,-3.8066,-3.832,-3.832,-3.832,-3.832,-3.832,-3.832,-3.832,-3.832,-3.7695,-3.7168,-3.7308,-3.7246,-3.7383,-3.7779,-3.7754,-3.7812,-3.7812,-3.7812,-3.7637,-3.7207,-3.6875,-3.623,-3.5195,-3.4062,-3.3164,-3.2578,-3.2461,-3.2305,-3.2051,-3.1973,-3.1914,-3.1914,-3.1562,-3.1582,-3.1894,-3.1035,-3.0644,0.0,0.0,0.0,0.0,0.0,0.0,0.0,0.0,0.0,0.0,0.0,-3.2987,0.0,0.0,-3.4614,-3.6071,-3.7152,-3.8413,-3.9948,-4.0778,-4.0996,-4.0547,-4.1269,-4.1719,-4.1504,-4.2051,-4.2168,-4.1543,-4.1875,-4.2031,-4.1816,-4.1992,-4.2207,-4.2422,-4.2637,-4.2656,-4.2422,-4.2851,-4.2969,-4.2754,-4.2969,-4.3066,-4.3066,-4.2851,-4.2754,-4.2734,-4.2519,-4.2422,-4.2402,-4.2207,-4.1855,-4.1426,-4.1016,-4.0039,-3.8867,-3.8652,-3.8301,-3.791,-3.7695,-3.7617,-3.7578,-3.7363,-3.7305,-3.7266,-3.7051,-3.7285,-3.7559,-3.7363,-3.7598,-3.793,-3.793,-3.8242,-3.8516,-3.8301,-3.8574,-3.8828,-3.8613,-3.8574,-3.8574,-3.8574,-3.8574,-3.8574,-3.8574,-3.8223,-3.793,-3.793,-3.793,-3.8008,-3.8223,-3.8242,-3.8242,-3.8242,-3.8242,-3.8164,-3.7949,-3.7363,-3.6621,-3.5762,-3.4883,-3.4121,-3.3457,-3.3437,-3.3223,-3.2812,-3.2598,-3.248,-3.248,-3.2051,-3.1953,-3.2148,-3.1719,-3.1523,0.0,0.0,0.0,0.0,0.0,0.0,0.0,0.0,-3.1402,-3.2079,-3.2892,-3.3692,-3.4265,-3.4979,-3.5913,-3.6953,-3.8535,-4.0019,-4.125,-4.1777,-4.207,-4.2168,-4.2402,-4.2519,-4.2441,-4.2578,-4.2461,-4.1953,-4.2383,-4.25,-4.207,-4.2441,-4.2676,-4.2676,-4.3008,-4.3027,-4.2676,-4.3359,-4.3535,-4.3203,-4.3555,-4.3711,-4.3691,-4.3359,-4.3203,-4.3183,-4.2832,-4.2676,-4.2676,-4.2578,-4.25,-4.2383,-4.1973,-4.0898,-3.9531,-3.9101,-3.8906,-3.8789,-3.8437,-3.8242,-3.8125,-3.7773,-3.7676,-3.7656,-3.7578,-3.7832,-3.8164,-3.8066,-3.8301,-3.8574,-3.8574,-3.8887,-3.9121,-3.8769,-3.8965,-3.916,-3.8984,-3.875,-3.8652,-3.8906,-3.8809,-3.873,-3.8809,-3.8828,-3.8809,-3.8711,-3.8691,-3.873,-3.8828,-3.8828,-3.8828,-3.8828,-3.875,-3.8672,-3.8574,-3.7871,-3.7129,-3.6426,-3.5996,-3.541,-3.4609,-3.4492,-3.4238,-3.3809,-3.3379,-3.3164,-3.3164,-3.2754,-3.2578,-3.2656,-3.248,-3.2324,0.0,0.0,0.0,-2.8408,-2.8976,-2.9643,0.0,0.0,-3.2155,-3.2588,-3.3355,-3.4221,-3.5126,-3.625,-3.7422,-3.8711,-4.0059,-4.1269,-4.2148,-4.2656,-4.3066,-4.3437,-4.3203,-4.2851,-4.2461,-4.3105,-4.3223,-4.2422,-4.3105,-4.3379,-4.2949,-4.334,-4.3555,-4.3555,-4.3613,-4.3613,-4.3555,-4.3652,-4.3691,-4.3633,-4.3691,-4.3711,-4.3711,-4.3652,-4.3633,-4.3633,-4.3574,-4.3555,-4.3535,-4.3164,-4.2773,-4.2383,-4.1973,-4.1445,-4.0898,-4.0469,-4.0078,-3.9746,-3.9687,-3.9394,-3.9043,-3.9004,-3.8984,-3.8926,-3.8535,-3.873,-3.8984,-3.8613,-3.8535,-3.8574,-3.8574,-3.8887,-3.9199,-3.9141,-3.916,-3.9394,-4.0137,-3.9394,-3.8926,-4.0078,-3.9668,-3.9258,-3.9668,-3.9746,-3.9609,-3.9199,-3.9141,-3.9277,-3.9687,-3.9746,-3.9746,-3.9746,-3.9375,-3.8984,-3.8613,-3.8125,-3.7812,-3.7715,-3.7324,-3.6875,-3.6406,-3.6016,-3.5605,-3.5176,-3.4726,-3.4492,-3.4492,-3.4062,-3.4043,-3.4394,-3.3633,-3.2871,-2.916,0.0,0.0,0.0,-3.0254,-3.1191,-3.1621,-3.2519,-3.3476,-3.416,-3.498,-3.5996,-3.7363,-3.8457,-3.9512,0.0,-4.1601,-4.2402,-4.2754,-4.3183,-4.332,-4.3008,-4.3027,-4.3105,-4.3164,-4.3496,-4.3457,-4.2851,-4.3359,-4.3516,-4.3105,-4.3476,-4.3711,-4.3711,-4.3711,-4.3711,-4.3711,-4.3711,-4.3711,-4.3711,-4.3711,-4.3711,-4.3711,-4.3711,-4.3711,-4.3711,-4.3711,-4.3711,-4.3691,-4.3516,-4.334,-4.3125,-4.2715,-4.2441,-4.2148,-4.0957,-4.041,-4.0234,-3.998,-3.9766,-3.9609,-3.9609,-3.9609,-3.9609,-3.9687,-4.0,-4.0371,-4.043,-4.0273,-4.0137,-4.0391,-4.0215,-3.998,-3.998,-3.998,-4.0,-4.0137,-3.9726,-3.9512,-4.0059,-4.0059,-4.0039,-4.0234,-4.0469,-4.0664,-4.0703,-4.0078,-3.9668,-3.9863,-3.9902,-3.9902,-3.9902,-3.9726,-3.9531,-3.9355,-3.8926,-3.8672,-3.8672,-3.8281,-3.7851,-3.7422,-3.7226,-3.6934,-3.6504,-3.6074,-3.584,-3.584,-3.5176,-3.4941,-3.5078,-3.4453,-3.3984,-2.9375,0.0,0.0,-3.0898,-3.209,-3.3203,-3.373,-3.4609,-3.5566,-3.6445,-3.7226,-3.8144,-3.9492,-4.0371,-4.1113,-4.1855,-4.2598,-4.3125,-4.3223,-4.3301,-4.3125,-4.25,-4.25,-4.2773,-4.3301,-4.3457,-4.3457,-4.3262,-4.3535,-4.3574,-4.3262,-4.3535,-4.3711,-4.3711,-4.3711,-4.3711,-4.3711,-4.3711,-4.3711,-4.3711,-4.3711,-4.3711,-4.3711,-4.3711,-4.3711,-4.3711,-4.3711,-4.3711,-4.3711,-4.3711,-4.3633,-4.3516,-4.332,-4.3183,-4.293,-4.168,-4.1152,-4.0996,-4.0566,-4.0351,-4.0234,-4.0117,-4.0156,-4.0254,-4.0332,-4.0742,-4.1211,-4.1406,-4.1152,-4.0918,-4.1348,-4.0996,-4.0547,-4.0684,-4.0703,-4.0723,-4.0762,-4.0508,-4.0351,-4.0703,-4.082,-4.0918,-4.1035,-4.1308,-4.1621,-4.1933,-4.1191,-4.0547,-4.043,-4.0312,-4.0195,-4.0078,-4.0078,-4.0019,-3.9902,-3.959,-3.9336,-3.9199,-3.8926,-3.8555,-3.8125,-3.7988,-3.7773,-3.748,-3.7051,-3.6836,-3.6836,-3.6211,-3.5859,-3.5742,-3.5273,-3.5059,0.0,0.0,-3.125,-3.291,-3.4316,-3.5508,-3.6367,-3.7539,-3.8691,-3.957,-4.0098,-4.0547,-4.1035,-4.1465,-4.1894,-4.2344,-4.2793,-4.3223,-4.3633,-4.2969,-4.2461,-4.2422,-4.1719,-4.1562,0.0,-4.2851,-4.3262,-4.3652,-4.3691,-4.3691,-4.3691,-4.3691,-4.3711,-4.3711,-4.3711,-4.3711,-4.3711,-4.3711,-4.3711,-4.3711,-4.3711,-4.3711,-4.3711,-4.3711,-4.3711,-4.3711,-4.3711,-4.3711,-4.3711,-4.3711,-4.3457,-4.3144,-4.3535,-4.3437,-4.3066,-4.3027,-4.2734,-4.2305,-4.1894,-4.1484,-4.1074,-4.0644,-4.0781,-4.0976,-4.0156,-4.0508,-4.1094,-4.0684,-4.0254,-4.0039,-4.0449,-4.0547,-4.0625,-4.1055,-4.1152,-4.1484,-4.2715,-4.2012,-4.1504,-4.2734,-4.2324,-4.1894,-4.2305,-4.2383,-4.2402,-4.2402,-4.2383,-4.2207,-4.1797,-4.1387,-4.0976,-4.0547,-4.0508,-4.0332,-3.9922,-3.9883,-3.9687,-3.9238,-3.9199,-3.9004,-3.8574,-3.8144,-3.791,-3.791,-3.75,-3.7285,-3.7285,-3.7246,-3.7031,-3.6621,-3.6191,-3.5976,0.0,0.0,-3.3828,-3.5566,-3.6973,-3.8144,-3.9023,-3.9785,-4.0391,-4.0684,-4.0156,-3.9785,-4.0234,-4.0449,-4.0762,-4.1484,-4.2422,-4.3223,-4.3652,-4.3457,-4.2851,-4.1738,-4.1582,0.0,0.0,0.0,0.0,-4.3652,-4.3711,-4.3711,-4.3711,-4.4004,-4.416,-4.416,-4.4433,-4.4453,-4.416,-4.416,-4.4004,-4.3711,-4.3711,-4.3711,-4.3711,-4.3711,-4.3711,-4.3711,-4.3711,-4.3711,-4.3711,-4.3711,-4.3613,-4.3496,-4.3652,-4.3613,-4.3496,-4.3496,-4.3398,-4.3125,-4.2148,-4.1699,-4.1523,-4.1094,-4.125,-4.1582,-4.1582,-4.1777,-4.2031,-4.2168,-4.2109,-4.2031,-4.2187,-4.2012,-4.1894,-4.2324,-4.2226,-4.2129,-4.2558,-4.2305,-4.2129,-4.2558,-4.2637,-4.2695,-4.2832,-4.3086,-4.3183,-4.2891,-4.2617,-4.2383,-4.2226,-4.1855,-4.1523,-4.1387,-4.1113,-4.0898,-4.0762,-4.0488,-4.0234,-4.0078,-3.9824,-3.9453,-3.9004,-3.8848,-3.8633,-3.8359,-3.8223,-3.8144,-3.8144,-3.7851,-3.7637,-3.75,-3.707,-3.6875,0.0,-3.4785,-3.6309,-3.8203,-3.9414,-4.0312,-4.1035,-4.1308,-4.1348,-4.1211,-4.0117,-3.9258,-3.9394,-3.9297,-3.9375,-3.9922,-4.084,-4.1777,-4.2676,-4.2402,-4.1973,-4.166,-4.1465,-4.1211,0.0,0.0,0.0,-4.3203,-4.3535,-4.3769,-4.3945,-4.4238,-4.4473,-4.4609,-4.4883,-4.4902,-4.4629,-4.4473,-4.416,-4.3711,-4.3711,-4.3711,-4.3711,-4.3711,-4.3711,-4.3711,-4.3711,-4.3711,-4.3711,-4.3711,-4.3711,-4.3711,-4.3711,-4.3711,-4.3711,-4.3711,-4.3613,-4.3359,-4.2539,-4.2266,-4.2187,-4.1758,-4.1914,-4.2285,-4.2402,-4.2539,-4.2715,-4.3008,-4.2969,-4.2891,-4.3047,-4.2754,-4.2539,-4.2969,-4.2871,-4.2695,-4.2851,-4.2891,-4.2891,-4.2891,-4.3105,-4.3301,-4.3301,-4.3535,-4.3613,-4.334,-4.3066,-4.2773,-4.2461,-4.2187,-4.1973,-4.1816,-4.1562,-4.1348,-4.1191,-4.0918,-4.0684,-4.0527,-4.0273,-3.9922,-3.9473,-3.9453,-3.9316,-3.9043,-3.8887,-3.8789,-3.8789,-3.8359,-3.8086,-3.791,-3.7637,-3.7441,-3.5996,-3.7441,-3.8594,-4.0742,-4.1562,-4.1973,-4.2363,-4.2129,-4.166,-4.1211,-4.0019,-3.8945,0.0,0.0,-3.791,-3.7949,-3.8418,-3.9375,-4.1055,-4.0215,-4.0176,0.0,0.0,0.0,0.0,0.0,0.0,-4.2461,0.0,-4.3926,-4.4375,-4.4433,-4.4648,-4.5039,-4.5078,-4.5078,-4.5058,-4.4629,-4.418,-4.3711,-4.373,-4.373,-4.3711,-4.3711,-4.3711,-4.3711,-4.3711,-4.3711,-4.3711,-4.3711,-4.3711,-4.3711,-4.3711,-4.3711,-4.3711,-4.3711,-4.3457,-4.3105,-4.3105,-4.3105,-4.3008,-4.2558,-4.2715,-4.3008,-4.2578,-4.2754,-4.3086,-4.3086,-4.2793,-4.2578,-4.2969,-4.2793,-4.2598,-4.3008,-4.3105,-4.3223,-4.3613,-4.3711,-4.3711,-4.3711,-4.3711,-4.3711,-4.3711,-4.3711,-4.3711,-4.373,-4.373,-4.3418,-4.2598,-4.248,-4.2305,-4.1914,-4.1836,-4.1641,-4.125,-4.1191,-4.0996,-4.0586,-4.0566,-4.0371,-3.9941,-3.9922,-3.9922,-3.9902,-3.9453,-3.9238,-3.9238,-3.8809,-3.8398,-3.7988,-3.7969,-3.7734,-3.791,-3.9434,-4.0703,-4.2226,-4.2676,-4.2773,-4.2891,-4.2324,-4.1504,-4.0449,-3.8672,-3.709,0.0,0.0,0.0,-3.8301,-4.0117,0.0,-4.291,-4.2773,0.0,-4.2441,0.0,-4.1816,-4.1523,-4.2051,0.0,0.0,-4.373,-4.4277,-4.4394,-4.5,-4.541,-4.5508,-4.582,-4.582,-4.5508,-4.5078,-4.4473,-4.3711,-4.4062,-4.4043,-4.3711,-4.3711,-4.3711,-4.3711,-4.3711,-4.3711,-4.3711,-4.3711,-4.3711,-4.3711,-4.3711,-4.3711,-4.3711,-4.3711,-4.3633,-4.3555,-4.3555,-4.334,-4.3008,-4.2558,-4.2715,-4.3047,-4.2949,-4.2988,-4.3086,-4.3086,-4.3223,-4.334,-4.3125,-4.3223,-4.3418,-4.3516,-4.3555,-4.3574,-4.3691,-4.3711,-4.3711,-4.3711,-4.3711,-4.3711,-4.3711,-4.3711,-4.3828,-4.416,-4.3926,-4.3633,-4.3418,-4.3105,-4.2871,-4.2773,-4.2187,-4.1758,-4.166,-4.1348,-4.1133,-4.1016,-4.1016,-4.082,-4.0391,-4.0371,-4.0215,-3.9902,-3.9785,-3.9726,-3.9726,-3.9258,-3.8984,-3.8867,-3.8555,-3.8359,-4.0098,-4.1289,-4.2226,-4.3125,-4.3359,-4.3164,-4.2422,-4.1719,-4.0723,-3.8867,-3.7207,0.0,-3.498,0.0,0.0,0.0,0.0,0.0,-4.2637,-4.2539,-4.2617,0.0,-4.3223,0.0,-4.2871,-4.3301,-4.3672,0.0,-4.4219,-4.457,-4.4941,-4.541,-4.5762,-4.5937,-4.6172,-4.6113,-4.5683,-4.5234,-4.4687,-4.4004,-4.4277,-4.416,-4.3711,-4.3926,-4.3887,-4.3711,0.0,-4.3711,-4.3711,-4.3711,-4.3711,-4.3711,-4.3711,-4.3711,-4.3711,-4.3711,-4.3711,-4.3711,-4.3711,-4.3555,-4.3301,-4.3066,-4.3164,-4.3359,-4.3359,-4.3359,-4.3359,-4.3359,-4.3516,-4.3652,-4.3418,-4.3535,-4.3711,-4.3711,-4.3711,-4.3711,-4.3711,-4.3711,-4.3711,-4.3711,-4.3711,-4.3711,-4.3711,-4.3711,-4.3789,-4.4062,-4.3867,-4.3711,-4.3711,-4.3496,-4.3281,-4.3105,-4.2656,-4.2285,-4.209,-4.1699,-4.1445,-4.1445,-4.1269,-4.1055,-4.082,-4.0801,-4.0703,-4.0449,-4.0273,-4.0176,-4.0176,-3.9726,-3.9512,-3.9492,-3.9062,-3.8848,-4.2148,-4.293,-4.334,-4.3711,-4.3711,-4.3183,-4.1484,-4.0566,-3.9394,-3.6914,0.0,-3.4805,-3.4043,-3.4726,-3.5605,-3.625,0.0,-3.9238,-4.1797,-4.1504,-4.2031,-4.4707,-4.4355,-4.418,-4.4961,-4.5078,-4.5137,-4.5195,-4.4902,-4.5019,-4.5644,-4.5781,-4.5976,-4.6289,-4.6348,-4.6152,-4.5683,-4.5351,-4.4961,-4.4492,-4.4551,-4.4297,-4.3808,-4.4219,-4.4141,-4.3711,-4.3711,0.0,-4.3711,-4.3711,-4.3711,-4.3711,-4.3711,-4.3711,-4.3711,-4.3711,-4.3711,-4.3711,-4.3711,-4.3711,-4.3711,-4.3711,-4.3711,-4.3711,-4.3711,-4.3711,-4.3711,-4.3711,-4.3711,-4.3711,-4.3711,-4.3711,-4.3711,-4.3711,-4.3711,-4.3711,-4.3711,-4.3711,-4.373,-4.3789,-4.375,-4.373,-4.3789,-4.3789,-4.3789,-4.3789,-4.3789,-4.3789,-4.3789,-4.375,-4.3555,-4.3203,-4.3105,-4.293,-4.2539,-4.2129,-4.1855,-4.1797,-4.1465,-4.123,-4.1172,-4.1172,-4.1172,-4.1172,-4.0801,-4.0605,-4.0605,-4.0195,-3.998,-3.9961,-3.9453,-3.9199,-4.3105,-4.3828,-4.418,-4.4258,-4.373,-4.2734,-4.1016,-3.9199,0.0,0.0,-3.4082,-3.3203,-3.3047,-3.4316,0.0,-3.7832,0.0,0.0,0.0,0.0,-4.4043,0.0,0.0,0.0,0.0,0.0,0.0,0.0,0.0,-4.625,-4.5703,-4.6328,-4.6582,-4.6308,-4.6641,-4.6445,-4.5683,-4.5937,-4.5683,-4.4922,-4.5293,-4.5039,-4.4277,-4.4355,-4.4141,-4.3711,-4.3711,0.0,-4.3711,-4.3711,-4.3711,-4.3711,-4.3711,-4.3711,-4.3711,-4.3711,-4.3711,-4.3711,-4.3711,-4.3711,-4.3711,-4.3711,-4.3711,-4.3711,-4.3711,-4.3711,-4.3711,-4.3711,-4.3711,-4.3711,-4.3711,-4.3711,-4.3711,-4.3711,-4.3711,-4.3711,-4.3711,-4.3711,-4.3808,-4.4199,-4.3965,-4.3828,-4.4219,-4.4277,-4.4277,-4.4277,-4.4277,-4.4277,-4.4277,-4.3945,-4.3672,-4.3594,-4.3281,-4.3047,-4.2969,-4.2558,-4.2168,-4.1816,-4.1738,-4.1543,-4.1191,-4.1172,-4.1172,-4.1172,-4.1094,-4.1055,-4.1055,-4.0625,-4.041,-4.0391,-3.957,-3.9199,-4.3906,-4.4394,-4.4668,-4.4453,-4.3555,-4.2168,-4.0,0.0,0.0,0.0,-3.3047,-3.2539,-3.2754,0.0,0.0,0.0,0.0,0.0,0.0,0.0,0.0,0.0,0.0,0.0,0.0,0.0,0.0,0.0,0.0,-4.7324,-4.6699,-4.6836,-4.6836,-4.6641,-4.6621,-4.6406,-4.6016,-4.5976,-4.5762,-4.5371,-4.5566,-4.5351,-4.4726,-4.4726,-4.4492,-4.4043,-4.3808,0.0,-4.3711,-4.3711,-4.3711,-4.3711,-4.3711,-4.3711,-4.3711,-4.3711,-4.3711,-4.3711,-4.3711,-4.3711,-4.3711,-4.3711,-4.3711,-4.3711,-4.3711,-4.3711,-4.3711,-4.3711,-4.3711,-4.3711,-4.3711,-4.3711,-4.3769,-4.4004,-4.4062,-4.4062,-4.4062,-4.4062,-4.4062,-4.4043,-4.4219,-4.4394,-4.4394,-4.457,-4.4726,-4.4726,-4.4726,-4.4648,-4.4433,-4.4199,-4.3965,-4.373,-4.3516,-4.3398,-4.3398,-4.3008,-4.2676,-4.248,-4.2246,-4.1933,-4.1523,-4.1504,-4.1387,-4.1172,-4.1172,-4.1172,-4.1172,-4.0957,-4.0859,-4.084,-4.0195,-3.9883,-4.4512,-4.4844,-4.5058,-4.4629,-4.3398,-4.1641,-3.9141,-3.7031,0.0,0.0,-3.2246,-3.2051,-3.2559,0.0,0.0,0.0,0.0,0.0,0.0,0.0,0.0,0.0,0.0,0.0,0.0,0.0,0.0,0.0,0.0,0.0,-4.7734,-4.7383,-4.7129,-4.6933,-4.6699,-4.6484,-4.6308,-4.6055,-4.5898,-4.582,-4.5898,-4.5664,-4.5156,-4.5058,-4.4805,-4.4375,-4.3906,0.0,0.0,-4.3711,-4.3711,-4.3711,-4.3711,-4.3711,-4.3711,-4.3711,-4.3711,-4.3711,-4.3711,-4.3711,-4.3711,-4.3711,-4.3711,-4.3711,-4.3711,-4.3711,-4.373,-4.3828,-4.3848,-4.3867,-4.3965,-4.3984,-4.4082,-4.4453,-4.4531,-4.4531,-4.4531,-4.4453,-4.4355,-4.416,-4.4531,-4.4844,-4.4707,-4.4941,-4.5137,-4.5039,-4.5098,-4.5019,-4.459,-4.4531,-4.4394,-4.4023,-4.3808,-4.3711,-4.3711,-4.3398,-4.3183,-4.3086,-4.2754,-4.2383,-4.1953,-4.1855,-4.1641,-4.1308,-4.1211,-4.1172,-4.1172,-4.1172,-4.1172,-4.1172,-4.0723,-4.0527,-4.4863,-4.5293,-4.5508,-4.5078,-4.3398,-4.1289,-3.9082,0.0,0.0,-3.25,-3.1582,-3.125,-3.207,0.0,0.0,0.0,0.0,-3.8555,0.0,0.0,0.0,0.0,0.0,0.0,0.0,0.0,0.0,0.0,0.0,0.0,-4.8164,-4.8105,-4.7734,-4.6953,-4.7266,-4.709,-4.6308,-4.6641,-4.6621,-4.625,-4.6641,-4.6387,-4.5605,-4.5215,-4.4805,-4.4375,-4.3906,-4.3711,0.0,-4.3711,-4.3711,-4.3711,-4.3711,-4.3711,-4.3711,-4.3711,-4.3711,-4.3711,-4.3711,-4.3711,-4.3711,-4.3711,-4.3711,-4.3711,-4.3711,-4.3711,-4.3789,-4.4219,-4.4336,-4.4414,-4.4805,-4.4902,-4.4922,-4.4961,-4.4961,-4.4961,-4.4961,-4.4668,-4.4609,-4.5351,-4.4941,-4.4687,-4.543,-4.5586,-4.5488,-4.5078,-4.5371,-4.5449,-4.5019,-4.4961,-4.4961,-4.4902,-4.418,-4.3711,-4.3711,-4.3672,-4.3476,-4.3105,-4.3047,-4.2832,-4.2383,-4.2012,-4.1777,-4.1738,-4.1367,-4.1172,-4.1172,-4.1172,-4.1172,-4.1172,-4.0723,-4.0527,-4.4551,-4.5351,-4.5566,-4.5137,-4.3008,-4.0527,-3.8613,0.0,0.0,-3.1992,-3.1309,-3.1074,-3.166,-3.2129,-3.3008,-3.4805,-3.5254,-3.6465,0.0,0.0,0.0,0.0,0.0,0.0,0.0,0.0,0.0,0.0,0.0,0.0,-4.8594,-4.834,-4.8047,-4.7715,-4.7617,-4.7285,-4.668,-4.6836,-4.6719,-4.6308,-4.6465,-4.625,-4.5664,-4.5234,-4.4805,-4.4375,-4.3906,-4.3711,0.0,-4.3711,-4.3711,-4.3711,-4.3711,-4.3711,-4.3711,-4.3711,-4.3711,-4.375,-4.4023,-4.4121,-4.4121,-4.4121,-4.4121,-4.4062,-4.3789,-4.3906,-4.416,-4.4355,-4.457,-4.4824,-4.498,-4.5215,-4.541,-4.541,-4.541,-4.541,-4.541,-4.5293,-4.5195,-4.5273,-4.543,-4.5566,-4.5664,-4.5879,-4.5996,-4.582,-4.6152,-4.6269,-4.5859,-4.5801,-4.5703,-4.5449,-4.4648,-4.4121,-4.4121,-4.3867,-4.3633,-4.3457,-4.3457,-4.3262,-4.2832,-4.2656,-4.2324,-4.1816,-4.1641,-4.1426,-4.1172,-4.1172,-4.1172,-4.1172,-4.0996,-4.0918,-4.3398,-4.4668,-4.5351,-4.4766,-4.2461,-3.9922,0.0,0.0,0.0,-3.1855,-3.1269,-3.1016,-3.1445,-3.1875,-3.2539,-3.3691,-3.4101,-3.5215,-3.7988,0.0,0.0,0.0,0.0,0.0,0.0,0.0,0.0,0.0,0.0,0.0,-4.8848,-4.8574,-4.834,-4.8203,-4.7793,-4.7363,-4.6933,-4.6933,-4.6719,-4.6308,-4.6426,-4.6269,-4.584,-4.5273,-4.4863,-4.4551,-4.3965,0.0,0.0,-4.3711,-4.3711,-4.3711,-4.3711,-4.3711,-4.3711,-4.3711,-4.3789,-4.3965,-4.4277,-4.4473,-4.459,-4.459,-4.459,-4.4531,-4.4199,-4.4238,-4.4453,-4.4707,-4.5078,-4.541,-4.541,-4.5625,-4.5859,-4.5859,-4.5859,-4.5859,-4.5859,-4.5762,-4.5625,-4.5449,-4.5781,-4.6055,-4.5898,-4.6211,-4.6484,-4.6484,-4.6855,-4.7012,-4.6719,-4.668,-4.6562,-4.6269,-4.5586,-4.4941,-4.4433,-4.4101,-4.3848,-4.3711,-4.3711,-4.3574,-4.3281,-4.3144,-4.2793,-4.2187,-4.1933,-4.166,-4.1348,-4.123,-4.1172,-4.1172,-4.1172,-4.1172,-4.1211,-4.3086,-4.4824,-4.3945,-4.1797,-3.9551,0.0,0.0,0.0,-3.2246,-3.1484,-3.1016,-3.1445,-3.1875,-3.2441,-3.3301,-3.4141,-3.5449,-3.7617,0.0,0.0,0.0,0.0,0.0,0.0,0.0,0.0,0.0,0.0,0.0,-4.8867,-4.8848,-4.8652,-4.8223,-4.7793,-4.7363,-4.6933,-4.6933,-4.6719,-4.6308,-4.6719,-4.6699,-4.6269,-4.541,-4.5019,-4.4961,-4.4082,-4.3711,0.0,-4.3711,-4.3711,-4.3711,-4.3711,-4.3711,-4.3711,-4.3711,-4.3984,-4.4394,-4.4394,-4.4668,-4.5019,-4.5019,-4.5019,-4.5019,-4.5019,-4.4726,-4.457,-4.543,-4.5976,-4.6289,-4.6289,-4.6289,-4.6289,-4.6289,-4.6289,-4.6289,-4.6289,-4.5976,-4.5801,-4.6211,-4.5957,-4.582,-4.623,-4.6641,-4.6914,-4.6914,-4.7285,-4.7578,-4.7578,-4.7578,-4.7558,-4.7558,-4.7168,-4.623,-4.4551,-4.4394,-4.4199,-4.373,-4.3711,-4.3711,-4.3691,-4.3301,-4.3066,-4.3066,-4.2226,-4.1797,-4.1797,-4.1387,-4.1172,-4.1172,-4.1172,-4.1172,-3.8476,-3.998,-4.0918,-4.0351,-3.8945,-3.7422,-3.6426,0.0,0.0,0.0,-3.1504,-3.1269,-3.1113,-3.1914,-3.2773,-3.332,-3.4141,-3.5156,-3.6445,0.0,0.0,0.0,0.0,0.0,0.0,0.0,0.0,0.0,0.0,0.0,-4.8867,-4.8867,-4.8652,-4.8223,-4.8086,-4.7656,-4.6933,-4.6933,-4.6719,-4.6308,-4.6445,-4.6133,-4.541,-4.5156,-4.4687,-4.4101,-4.3828,0.0,0.0,-4.3711,-4.3711,-4.3711,-4.3711,-4.3906,-4.418,-4.418,-4.4453,-4.4863,-4.5176,-4.5351,-4.5469,-4.5469,-4.5469,-4.5469,-4.5469,-4.5371,-4.5391,-4.5957,-4.6191,-4.6308,-4.6308,-4.6308,-4.6308,-4.6308,-4.6308,-4.6308,-4.6308,-4.6191,-4.6152,-4.6269,-4.6191,-4.623,-4.666,-4.6836,-4.7031,-4.7324,-4.7734,-4.8008,-4.8008,-4.8008,-4.8008,-4.8008,-4.7617,-4.6914,-4.5801,-4.543,-4.5078,-4.4629,-4.4336,-4.418,-4.418,-4.375,-4.3359,-4.3086,-4.2812,-4.2519,-4.2226,-4.1816,-4.1445,-4.1172,-4.1172,-4.1172,0.0,-3.7578,-3.8652,-3.8398,-3.7363,0.0,0.0,0.0,0.0,0.0,0.0,0.0,-3.1152,-3.1914,-3.2695,-3.3125,-3.3906,-3.4883,-3.6094,0.0,0.0,0.0,0.0,0.0,0.0,0.0,0.0,0.0,0.0,0.0,-4.8867,-4.8867,-4.8652,-4.8223,-4.8203,-4.7793,-4.6933,-4.6933,-4.6719,-4.6308,-4.6308,-4.6016,-4.5508,-4.5332,-4.4961,-4.4433,0.0,0.0,0.0,-4.3769,-4.3711,-4.3711,-4.3711,-4.3887,-4.416,-4.4336,-4.457,-4.4883,-4.5469,-4.5683,-4.5703,-4.5859,-4.5918,-4.5918,-4.5918,-4.5918,-4.5976,-4.623,-4.6308,-4.6308,-4.6308,-4.6308,-4.6308,-4.6308,-4.6308,-4.6348,-4.6504,-4.6543,-4.6582,-4.6758,-4.6777,-4.6875,-4.7129,-4.7305,-4.75,-4.7773,-4.8183,-4.8457,-4.8457,-4.8457,-4.8457,-4.8457,-4.8223,-4.7773,-4.709,-4.6484,-4.5957,-4.5527,-4.4961,-4.4629,-4.4629,-4.4199,-4.3848,-4.3574,-4.3574,-4.3359,-4.291,-4.2324,-4.1816,-4.1406,-4.1406,-4.1328,0.0,0.0,0.0,0.0,0.0,0.0,0.0,0.0,0.0,0.0,0.0,0.0,-3.1445,-3.1894,-3.2344,-3.2773,-3.3555,-3.4707,-3.6387,0.0,0.0,0.0,0.0,0.0,0.0,0.0,0.0,0.0,0.0,0.0,-4.8867,-4.8867,-4.8652,-4.8223,-4.8203,-4.7793,-4.6933,-4.6894,-4.6699,-4.6308,-4.6308,-4.6289,-4.625,-4.5859,-4.5664,0.0,0.0,0.0,0.0,-4.3887,-4.373,-4.375,-4.375,-4.3789,-4.3887,-4.4297,-4.4473,-4.4648,-4.541,-4.5703,-4.5781,-4.6172,-4.6308,-4.6308,-4.6308,-4.6308,-4.6308,-4.6308,-4.6308,-4.6308,-4.6308,-4.6308,-4.6308,-4.6308,-4.6328,-4.6465,-4.6836,-4.6933,-4.7051,-4.75,-4.7558,-4.7558,-4.7617,-4.7949,-4.8223,-4.8242,-4.8594,-4.8867,-4.8867,-4.8867,-4.8867,-4.8867,-4.8867,-4.8691,-4.8281,-4.75,-4.6836,-4.6426,-4.5586,-4.5117,-4.5117,-4.4687,-4.4433,-4.4433,-4.4414,-4.416,-4.3711,-4.2871,-4.2266,-4.1836,-4.1836,-4.1621,0.0,0.0,0.0,0.0,0.0,0.0,0.0,0.0,0.0,0.0,0.0,0.0,0.0,-3.2129,-3.2793,-3.3203,-3.3984,-3.4922,-3.6016,0.0,0.0,0.0,0.0,0.0,0.0,0.0,0.0,0.0,0.0,-4.8867,-4.8867,-4.8867,-4.8652,-4.8223,-4.8203,-4.7793,-4.6933,-4.6601,-4.6406,-4.6308,-4.6308,-4.6133,-4.582,-4.5723,-4.5488,0.0,0.0,0.0,-4.4355,-4.3887,-4.3906,-4.4238,-4.4238,-4.4629,-4.5195,-4.4961,-4.5293,-4.584,-4.5723,-4.5879,-4.6172,-4.6269,-4.6308,-4.6308,-4.6308,-4.6308,-4.6308,-4.6308,-4.6308,-4.6308,-4.6308,-4.6308,-4.6308,-4.6308,-4.6543,-4.6816,-4.6914,-4.6933,-4.7051,-4.75,-4.7305,-4.7285,-4.7949,-4.8144,-4.832,-4.8652,-4.8789,-4.8867,-4.8867,-4.8867,-4.8867,-4.8867,-4.8867,-4.8808,-4.8711,-4.8223,-4.7734,-4.7305,-4.6484,-4.5996,-4.5996,-4.5273,-4.4883,-4.4883,-4.457,-4.416,-4.3711,-4.3183,-4.2695,-4.2285,-4.2285,-4.2051,0.0,0.0,0.0,0.0,0.0,0.0,0.0,0.0,0.0,0.0,0.0,0.0,0.0,0.0,0.0,-3.332,-3.4141,-3.5351,0.0,0.0,0.0,0.0,0.0,0.0,0.0,0.0,0.0,0.0,0.0,-4.8867,-4.8867,-4.8867,-4.875,-4.8516,-4.8125,-4.7598,-4.6933,-4.6699,-4.6484,-4.6308,-4.6308,-4.6191,-4.5957,-4.5957,-4.584,0.0,0.0,0.0,-4.4941,-4.4297,-4.418,-4.4394,-4.4394,-4.4551,-4.4785,-4.4961,-4.5195,-4.5469,-4.584,-4.6113,-4.6308,-4.6308,-4.6308,-4.6328,-4.6523,-4.6582,-4.6543,-4.6367,-4.6445,-4.6543,-4.6348,-4.6445,-4.6582,-4.6582,-4.6914,-4.7285,-4.748,-4.7519,-4.7656,-4.8086,-4.7969,-4.7969,-4.8418,-4.8496,-4.8594,-4.8828,-4.8867,-4.8867,-4.8867,-4.8867,-4.8867,-4.8867,-4.8867,-4.8867,-4.8867,-4.8633,-4.8398,-4.8183,-4.7363,-4.6797,-4.6601,-4.5957,-4.5605,-4.5605,-4.5,-4.457,-4.4316,-4.3672,-4.3144,-4.2715,-4.2715,-4.25,0.0,0.0,0.0,0.0,0.0,0.0,0.0,0.0,0.0,0.0,0.0,0.0,0.0,0.0,0.0,0.0,0.0,0.0,0.0,0.0,0.0,0.0,0.0,0.0,0.0,0.0,0.0,0.0,0.0,-4.8867,-4.8867,-4.8867,-4.8828,-4.8769,-4.8047,-4.7461,-4.7031,-4.6894,-4.666,-4.6308,-4.6308,-4.6308,-4.6308,-4.6308,-4.6308,-4.625,0.0,0.0,-4.5605,-4.4746,-4.4433,-4.4492,-4.4492,-4.4297,-4.4082,-4.4766,-4.4844,-4.4746,-4.582,-4.625,-4.6308,-4.6308,-4.6348,-4.6465,-4.6816,-4.7012,-4.7031,-4.6621,-4.6699,-4.6836,-4.6406,-4.6621,-4.6933,-4.6933,-4.7305,-4.7773,-4.8125,-4.8203,-4.834,-4.8769,-4.8808,-4.8789,-4.8848,-4.8867,-4.8867,-4.8867,-4.8867,-4.8867,-4.8867,-4.8867,-4.8867,-4.8867,-4.8867,-4.8867,-4.8867,-4.8867,-4.8867,-4.8867,-4.8105,-4.748,-4.7051,-4.6621,-4.6406,-4.6406,-4.5488,-4.5019,-4.5019,-4.4141,-4.3516,-4.3183,-4.3183,-4.2949,-2.9375,0.0,0.0,0.0,0.0,0.0,0.0,0.0,0.0,0.0,0.0,0.0,0.0,0.0,0.0,0.0,0.0,0.0,0.0,0.0,0.0,0.0,0.0,0.0,0.0,0.0,0.0,0.0,0.0,-4.8867,-4.8867,-4.8867,-4.8691,-4.832,-4.8183,-4.791,-4.748,-4.6758,-4.6367,-4.6308,-4.6308,-4.6308,-4.6308,-4.6308,-4.6308,-4.6269,0.0,-4.5625,-4.5605,-4.4746,-4.4609,-4.4922,-4.4922,-4.5117,-4.5351,-4.5117,-4.5215,-4.5508,-4.5703,-4.6016,-4.6308,-4.6308,-4.6543,-4.6836,-4.6914,-4.7441,-4.793,-4.75,-4.7168,-4.6836,-4.6406,-4.6621,-4.6933,-4.6933,-4.7539,-4.8125,-4.8203,-4.8203,-4.834,-4.8769,-4.8555,-4.8418,-4.8789,-4.8867,-4.8867,-4.8867,-4.8867,-4.8867,-4.8867,-4.8867,-4.8867,-4.8867,-4.8867,-4.8867,-4.8867,-4.8867,-4.8867,-4.8867,-4.8379,-4.793,-4.75,-4.707,-4.6836,-4.6836,-4.5644,-4.5019,-4.5019,-4.4141,-4.3672,-4.3613,-4.3613,-4.3379,-2.8887,-2.9687,0.0,0.0,0.0,0.0,0.0,0.0,0.0,0.0,0.0,0.0,0.0,0.0,0.0,0.0,0.0,0.0,0.0,0.0,0.0,0.0,0.0,0.0,0.0,0.0,0.0,0.0,0.0,0.0,-4.8867,-4.8867,-4.8769,-4.8574,-4.832,-4.8105,-4.793,-4.707,-4.6641,-4.6641,-4.6406,-4.6308,-4.6308,-4.6308,-4.6308,-4.6289,0.0,-4.5683,-4.5625,-4.5,-4.4726,-4.4687,-4.4687,-4.4648,-4.4648,-4.4922,-4.5312,-4.5703,-4.5937,-4.6152,-4.6308,-4.6308,-4.6582,-4.6973,-4.7207,-4.7715,-4.8164,-4.7969,-4.7617,-4.7246,-4.7051,-4.7129,-4.7344,-4.7558,-4.8105,-4.8555,-4.8555,-4.8555,-4.8613,-4.8808,-4.8691,-4.8613,-4.8828,-4.8867,-4.8867,-4.8867,-4.8867,-4.8867,-4.8867,-4.8867,-4.8867,-4.8867,-4.8867,-4.8867,-4.8867,-4.8867,-4.8867,-4.8867,-4.8457,-4.8125,-4.793,-4.7519,-4.7168,-4.6933,-4.6348,-4.582,-4.5371,-4.4961,-4.4648,-4.4414,-4.418,-4.3984,-2.8496,-2.9297,0.0,0.0,0.0,0.0,0.0,0.0,0.0,0.0,0.0,0.0,0.0,0.0,0.0,0.0,0.0,0.0,0.0,0.0,0.0,0.0,0.0,0.0,0.0,0.0,0.0,0.0,0.0,0.0,-4.8273,-4.8663,-4.8808,-4.8711,-4.8476,-4.8262,-4.8066,-4.7402,-4.7031,-4.6933,-4.6504,-4.6308,-4.6289,-4.6191,-4.6152,-4.6133,-4.5703,-4.5527,-4.5488,-4.5058,-4.4687,-4.4394,-4.4394,-4.4238,-4.4101,-4.4766,-4.5312,-4.5723,-4.6055,-4.623,-4.6328,-4.6426,-4.666,-4.7031,-4.7558,-4.7949,-4.8223,-4.832,-4.8047,-4.7715,-4.7598,-4.7656,-4.7812,-4.8125,-4.8535,-4.8867,-4.8867,-4.8867,-4.8867,-4.8867,-4.8867,-4.8867,-4.8867,-4.8867,-4.8867,-4.8867,-4.8867,-4.8867,-4.8867,-4.8867,-4.8867,-4.8867,-4.8867,-4.8867,-4.8867,-4.8867,-4.8867,-4.8867,-4.8535,-4.8359,-4.8359,-4.7949,-4.7578,-4.7226,-4.7031,-4.6621,-4.5976,-4.5879,-4.5644,-4.5312,-4.4902,-4.4707,-2.8769,-2.9531,-3.0195,0.0,0.0,0.0,0.0,0.0,0.0,0.0,0.0,0.0,0.0,0.0,0.0,0.0,0.0,0.0,0.0,0.0,0.0,0.0,0.0,0.0,0.0,0.0,0.0,0.0,0.0,0.0,-4.6167,-4.7903,-4.8672,-4.8262,-4.8613,-4.8418,-4.7637,-4.7558,-4.7324,-4.6933,-4.6504,-4.6308,-4.6289,-4.5898,-4.5723,-4.5703,-4.5254,-4.5078,-4.5039,-4.4609,-4.4433,-4.4394,-4.4394,-4.4609,-4.4941,-4.5,-4.5312,-4.5683,-4.5703,-4.5976,-4.6367,-4.6758,-4.6914,-4.709,-4.791,-4.8183,-4.8281,-4.8691,-4.8496,-4.8066,-4.7676,-4.7871,-4.8164,-4.8203,-4.8535,-4.8867,-4.8867,-4.8867,-4.8867,-4.8867,-4.8867,-4.8867,-4.8867,-4.8867,-4.8867,-4.8867,-4.8867,-4.8867,-4.8867,-4.8867,-4.8867,-4.8867,-4.8867,-4.8867,-4.8867,-4.8867,-4.8867,-4.8867,-4.8828,-4.8808,-4.8808,-4.8398,-4.8144,-4.8105,-4.7344,-4.6894,-4.6836,-4.6445,-4.623,-4.6191,-4.5781,-4.5586,-2.8496,-2.8668,-2.8737,-2.8156,0.0,0.0,0.0,0.0,0.0,0.0,0.0,0.0,0.0,0.0,0.0,0.0,0.0,0.0,0.0,0.0,0.0,0.0,0.0,0.0,0.0,0.0,0.0,0.0,0.0,0.0,-4.5058,-4.6281,-4.7322,-4.8223,-4.8359,-4.8437,-4.8379,-4.7578,-4.7226,-4.7324,-4.6641,-4.6172,-4.5918,-4.5742,-4.5683,-4.5644,-4.5215,-4.5019,-4.5,-4.457,-4.4238,-4.3984,-4.4277,-4.4648,-4.5058,-4.5332,-4.5527,-4.5723,-4.5976,-4.6172,-4.6328,-4.6484,-4.6894,-4.7402,-4.7715,-4.8183,-4.8652,-4.8808,-4.873,-4.8574,-4.8418,-4.8281,-4.8281,-4.8555,-4.873,-4.8867,-4.8867,-4.8867,-4.8867,-4.8867,-4.7883,-4.7326,-4.8663,-4.7903,-4.7326,-4.8663,-4.8867,-4.8867,-4.8867,-4.8867,-4.8867,-4.8867,-4.8867,-4.8867,-4.8867,-4.8867,-4.8867,-4.8867,-4.8867,-4.8867,-4.8867,-4.8691,-4.8476,-4.8223,-4.8144,-4.7871,-4.7324,-4.7441,-4.7344,-4.709,-4.6387,-4.6055,-2.8301,-2.8106,-2.7759,-2.7327,0.0,0.0,0.0,0.0,0.0,0.0,0.0,0.0,0.0,0.0,0.0,0.0,0.0,0.0,0.0,0.0,0.0,0.0,0.0,0.0,0.0,0.0,0.0,0.0,0.0,0.0,0.0,-4.4797,-4.6223,-4.8008,-4.8008,-4.8086,-4.8242,-4.7363,-4.7012,-4.7168,-4.6445,-4.5957,-4.5664,-4.5391,-4.5273,-4.5254,-4.4805,-4.4609,-4.459,-4.4453,-4.4297,-4.416,-4.4473,-4.4863,-4.5273,-4.5566,-4.5762,-4.5918,-4.6191,-4.6308,-4.6348,-4.6621,-4.7012,-4.7441,-4.7851,-4.8301,-4.8672,-4.8808,-4.8867,-4.8867,-4.8867,-4.8633,-4.8476,-4.8789,-4.8867,-4.8867,-4.8867,-4.8867,-4.8663,-4.8088,-4.7326,-4.6934,-4.7698,-4.7326,-4.7307,-4.8663,-4.8867,-4.8867,-4.8867,-4.8867,-4.8867,-4.8867,-4.8867,-4.8867,-4.8867,-4.8867,-4.8867,-4.8867,-4.8867,-4.8867,-4.8867,-4.8867,-4.8711,-4.8418,-4.8711,-4.8574,-4.7988,-4.8281,-4.8262,-4.7969,-4.7109,-4.6699,-2.8301,-2.7899,-2.7706,0.0,0.0,0.0,0.0,0.0,0.0,0.0,0.0,0.0,0.0,0.0,0.0,0.0,0.0,0.0,0.0,0.0,0.0,0.0,0.0,0.0,0.0,0.0,0.0,0.0,0.0,0.0,0.0,-4.3677,-4.5512,-4.7558,-4.7578,-4.7363,-4.6933,-4.6914,-4.6719,-4.6308,-4.5879,-4.5664,-4.5644,-4.4785,-4.4394,-4.4375,-4.3906,-4.3711,-4.375,-4.4199,-4.4648,-4.5019,-4.5019,-4.5293,-4.5683,-4.5683,-4.5937,-4.6308,-4.6308,-4.6308,-4.6445,-4.7305,-4.7285,-4.7168,-4.8457,-4.8555,-4.8301,-4.873,-4.8867,-4.8867,-4.8867,-4.8867,-4.8867,-4.8867,-4.8867,-4.8867,-4.8867,-4.8848,-4.8273,-4.6167,-4.7512,-4.8273,-4.6167,-4.7512,-4.8867,-4.8867,-4.8867,-4.8867,-4.8867,-4.8867,-4.8867,-4.8867,-4.8867,-4.8867,-4.8867,-4.8867,-4.8867,-4.8867,-4.8867,-4.8867,-4.8867,-4.8867,-4.8867,-4.8867,-4.8867,-4.8867,-4.8867,-4.8848,-4.8848,-4.8828,-4.7969,-4.7578,-2.8652,0.0,0.0,0.0,0.0,0.0,0.0,0.0,0.0,0.0,0.0,0.0,0.0,0.0,0.0,0.0,0.0,0.0,0.0,0.0,0.0,0.0,0.0,0.0,0.0,0.0,0.0,0.0,0.0,0.0,0.0,-4.1186,-4.3337,-4.5082,-4.6376,-4.6472,-4.5344,-4.5761,-4.5549,-4.4707,-4.4683,-4.5098,-4.5644,-4.4785,-4.4551,-4.4805,-4.4043,-4.4062,-4.4629,-4.4473,-4.4648,-4.5019,-4.5019,-4.5469,-4.6113,-4.6113,-4.6191,-4.6308,-4.6308,-4.6308,-4.6387,-4.6953,-4.7246,-4.7519,-4.8203,-4.8535,-4.8691,-4.8828,-4.8867,-4.8867,-4.8867,-4.8867,-4.8867,-4.8867,-4.8867,-4.8867,-4.8867,-4.7698,-4.6542,-4.5979,-4.5209,-4.4832,-4.5585,-4.6614,-4.7685,-4.8721,-4.9121,-4.9219,-4.8906,-4.8867,-4.8867,-4.8867,-4.8867,-4.8867,-4.8867,-4.8867,-4.8867,-4.8867,-4.8867,-4.8867,-4.8867,-4.8867,-4.8867,-4.8867,-4.8867,-4.8867,-4.8867,-4.8555,-4.8398,-4.8379,-4.7519,-4.7129,0.0,0.0,0.0,0.0,0.0,0.0,0.0,0.0,0.0,0.0,0.0,0.0,0.0,0.0,0.0,0.0,0.0,0.0,0.0,0.0,0.0,0.0,0.0,0.0,0.0,0.0,0.0,0.0,0.0,0.0,0.0,-3.9167,-4.0862,-4.2476,-4.3738,-4.3793,-4.2765,-4.3151,-4.332,-4.3261,-4.3367,-4.4049,-4.5391,-4.4512,-4.4258,-4.4473,-4.3926,-4.3768,-4.369,-4.4155,-4.4291,-4.3976,-4.4853,-4.5605,-4.6074,-4.623,-4.6308,-4.6308,-4.6308,-4.6406,-4.6621,-4.7051,-4.748,-4.791,-4.834,-4.8652,-4.8867,-4.8867,-4.8867,-4.8867,-4.8867,-4.8867,-4.8867,-4.8867,-4.8867,-4.8867,-4.8867,-4.7326,-4.5585,-4.4643,-4.3487,-4.3106,-4.4436,-4.5571,-4.7063,-4.8721,-4.9082,-4.916,-4.8887,-4.8867,-4.8867,-4.8867,-4.8867,-4.8867,-4.8867,-4.8867,-4.8867,-4.8867,-4.8867,-4.8867,-4.8867,-4.8867,-4.8769,-4.8613,-4.8594,-4.8516,-4.8359,-4.8086,-4.7949,-4.793,-4.7246,-4.6933,0.0,0.0,0.0,0.0,0.0,0.0,0.0,0.0,0.0,0.0,0.0,0.0,0.0,0.0,0.0,0.0,0.0,0.0,0.0,0.0,0.0,0.0,0.0,0.0,0.0,0.0,0.0,0.0,0.0,0.0,0.0,-3.7702,-3.8429,-4.0118,-4.0412,-4.0241,-3.9737,-3.9847,-4.0561,-4.2006,-4.1739,-4.2611,-4.4582,-4.3915,-4.3546,-4.3526,-4.3399,-4.2591,-4.1367,-4.3327,-4.3424,-4.258,-4.4741,-4.5664,-4.5781,-4.6152,-4.6308,-4.6308,-4.6308,-4.6562,-4.6933,-4.7383,-4.7812,-4.8223,-4.8672,-4.8828,-4.8867,-4.8867,-4.8867,-4.8867,-4.8867,-4.8867,-4.8848,-4.8663,-4.8663,-4.8663,-4.8663,-4.6747,-4.4643,-4.2724,-4.2341,-4.2358,-4.2392,-4.4619,-4.7082,-4.878,-4.8887,-4.8848,-4.8663,-4.8663,-4.8478,-4.8273,-4.8478,-4.8663,-4.8663,-4.8848,-4.8867,-4.8867,-4.8867,-4.8867,-4.8867,-4.8867,-4.8652,-4.8223,-4.8203,-4.8008,-4.7578,-4.7539,-4.7519,-4.7519,-4.707,-4.6875,0.0,0.0,0.0,0.0,0.0,0.0,0.0,0.0,0.0,0.0,0.0,0.0,0.0,0.0,0.0,0.0,0.0,0.0,0.0,0.0,0.0,0.0,0.0,0.0,0.0,0.0,0.0,0.0,0.0,0.0,-3.5331,-3.6234,-3.7201,-3.8111,-3.9183,-3.8981,-3.7776,-3.8628,-3.9495,0.0,-4.0764,-4.1505,-4.2404,-4.326,-4.2863,-4.1528,-4.1825,-4.0808,-3.906,-4.1275,-4.2173,-4.2562,-4.4414,-4.5566,-4.6172,-4.6269,-4.6308,-4.6308,-4.6308,-4.6367,-4.6504,-4.6933,-4.7363,-4.7793,-4.8223,-4.8594,-4.8867,-4.8867,-4.8867,-4.8867,-4.8867,-4.8867,-4.8478,-4.6934,-4.6542,-4.6542,-4.6542,-4.3487,-4.0819,-4.0432,-4.0432,-4.0336,-4.061,-4.4027,-4.7175,-4.9021,-4.9082,-4.8273,-4.6747,-4.6542,-4.5792,-4.4246,-4.5397,-4.6542,-4.6542,-4.7903,-4.8867,-4.8867,-4.8867,-4.8867,-4.8867,-4.8867,-4.8652,-4.8223,-4.8203,-4.8008,-4.7578,-4.7246,-4.707,-4.7051,-4.6641,-4.6445,0.0,0.0,0.0,0.0,0.0,0.0,0.0,0.0,0.0,0.0,0.0,0.0,0.0,0.0,0.0,0.0,0.0,0.0,0.0,0.0,0.0,0.0,0.0,0.0,0.0,0.0,0.0,0.0,0.0,-3.4124,-3.4446,-3.4893,-3.5303,-3.5639,-3.6373,-3.62,-3.5331,-3.5854,-3.6547,-3.76,-3.8082,-3.8854,-4.0072,-4.0723,-4.0632,-3.9618,-3.983,-3.8769,-3.7086,-4.0386,-4.1188,-4.106,-4.4109,-4.5605,-4.6035,-4.623,-4.6308,-4.6308,-4.6308,-4.6426,-4.6641,-4.6855,-4.7363,-4.793,-4.8144,-4.8516,-4.8867,-4.8867,-4.8867,-4.8867,-4.8867,-4.8088,-4.712,-4.5979,-4.5792,-4.5585,-4.4436,-4.1958,-3.9673,-3.9673,-3.8909,-3.8626,-3.9952,-4.3693,-4.725,-4.9408,-4.8492,-4.6934,-4.5979,-4.5792,-4.5397,-4.4246,-4.6164,-4.7534,-4.7326,-4.866,-4.9316,-4.8887,-4.9062,-4.9082,-4.8867,-4.8867,-4.8555,-4.791,-4.791,-4.7695,-4.7266,-4.7051,-4.6933,-4.6914,-4.6699,-4.6504,0.0,0.0,0.0,0.0,0.0,0.0,0.0,0.0,0.0,0.0,0.0,0.0,0.0,0.0,0.0,0.0,0.0,0.0,0.0,0.0,0.0,0.0,0.0,0.0,0.0,0.0,0.0,0.0,0.0,-3.3788,-3.4124,-3.3773,-3.3612,-3.3729,-3.3627,-3.3466,-3.3246,-3.3188,-3.3886,-3.5494,-3.5494,-3.6345,-3.7724,-3.738,-3.738,-3.7724,-3.8066,-3.7208,-3.589,-3.9801,-4.0647,-3.9738,-4.4014,-4.5605,-4.5723,-4.6152,-4.6308,-4.6289,-4.5939,-4.6171,-4.6816,-4.6443,-4.6985,-4.8008,-4.8066,-4.8398,-4.8769,-4.8828,-4.8867,-4.8848,-4.8478,-4.712,-4.5585,-4.4832,-4.4832,-4.4264,-4.2533,-4.0626,-3.912,-3.9183,-3.7931,-3.77,-4.0442,-4.3586,-4.679,-4.9242,-4.7441,-4.5585,-4.4832,-4.502,-4.5209,-4.4832,-4.7328,-4.8795,-4.8428,-4.9519,-4.9844,-4.9023,-4.9316,-4.9336,-4.8867,-4.8867,-4.8496,-4.7715,-4.7695,-4.7441,-4.6933,-4.7012,-4.7051,-4.7051,-4.7051,-4.6855,0.0,0.0,0.0,0.0,0.0,0.0,0.0,0.0,0.0,0.0,0.0,0.0,0.0,0.0,0.0,0.0,0.0,0.0,0.0,0.0,0.0,0.0,0.0,0.0,0.0,0.0,0.0,0.0,-3.3495,-3.3451,-3.3773,-3.3232,-3.3158,-3.3715,-3.3188,-3.3012,-3.3246,-3.2968,-3.3676,-3.5526,-3.5526,-3.57,-3.5858,-3.4319,-3.4319,-3.6031,-3.7552,-3.7208,-3.5874,-3.9519,-4.1111,-4.1458,-4.4032,-4.5351,-4.5723,-4.6152,-4.6308,-4.6114,-4.4296,-4.4883,-4.6016,-4.4389,-4.5242,-4.7168,-4.7539,-4.7949,-4.8379,-4.875,-4.8867,-4.8478,-4.6747,-4.5979,-4.4832,-4.1398,-4.0432,-4.0449,-4.0255,-3.8518,-3.7081,-3.7362,-3.7677,-3.8973,-4.2854,-4.3786,-4.4675,-4.6753,-4.6293,-4.4453,-4.1012,-4.1958,-4.2533,-4.0626,-4.4445,-4.6796,-4.674,-4.8918,-4.9961,-4.9473,-4.9492,-4.9336,-4.8867,-4.8867,-4.8633,-4.8125,-4.8125,-4.7734,-4.6933,-4.7305,-4.75,-4.75,-4.75,-4.7461,0.0,0.0,0.0,0.0,0.0,0.0,0.0,0.0,0.0,0.0,0.0,0.0,0.0,0.0,0.0,0.0,0.0,0.0,0.0,0.0,0.0,0.0,0.0,0.0,0.0,0.0,0.0,0.0,-3.3158,-3.3115,-3.3436,-3.3027,-3.2895,-3.3188,-3.2924,-3.2837,-3.2983,-3.2837,-3.3117,-3.3983,-3.3983,-3.3983,-3.3983,-3.3117,-3.3293,-3.3983,-3.4828,-3.5336,-3.5684,-3.8649,-4.0557,-4.1818,-4.4414,-4.4799,-4.4102,-4.4517,-4.3941,-4.2854,-4.212,-4.3033,-4.451,-4.4004,-4.5291,-4.7363,-4.7793,-4.8223,-4.8613,-4.8808,-4.8088,-4.6934,-4.5979,-4.4074,-4.1958,-4.0061,-3.8714,-3.7991,-3.8189,-3.7308,-3.67,-3.7022,-3.7622,-3.9011,-4.2026,-4.2393,-4.2873,-4.4852,-4.3676,-4.2017,-3.9883,-4.0611,-4.1226,-4.1414,-4.4834,-4.7313,-4.8215,-4.978,-5.0488,-4.959,-4.998,-4.9941,-4.9258,-4.9473,-4.9277,-4.8594,-4.832,-4.8027,-4.7637,-4.7832,-4.793,-4.793,-4.793,-4.7812,0.0,0.0,0.0,0.0,0.0,0.0,0.0,0.0,0.0,0.0,0.0,0.0,0.0,0.0,0.0,0.0,0.0,0.0,0.0,0.0,0.0,0.0,0.0,0.0,0.0,0.0,0.0,0.0,-3.291,-3.288,-3.3115,-3.2895,-3.2778,-3.2778,-3.2778,-3.2778,-3.2778,-3.2778,-3.2778,-3.2778,-3.2778,-3.2778,-3.2778,-3.2778,-3.2778,-3.2778,-3.3293,-3.4303,-3.5684,-3.7838,-3.9528,-4.0971,-4.3098,-4.3087,-4.1972,-4.2369,-4.1673,-4.0481,-3.9937,-4.1401,-4.3444,-4.3307,-4.5119,-4.7519,-4.8047,-4.8437,-4.8711,-4.8254,-4.6934,-4.5585,-4.4453,-4.1975,-3.9478,-3.9104,-3.775,-3.67,-3.7022,-3.7036,-3.7051,-3.7285,-3.7797,-3.8986,-4.0983,-4.1309,-4.1553,-4.3055,-4.1456,-3.9952,-3.9189,-3.9708,-4.0902,-4.284,-4.5841,-4.8182,-4.9714,-5.082,-5.0937,-4.9766,-5.0391,-5.043,-4.957,-4.9941,-4.9824,-4.9043,-4.8711,-4.8437,-4.8203,-4.832,-4.8379,-4.8379,-4.8379,-4.8203,0.0,0.0,0.0,0.0,0.0,0.0,0.0,0.0,0.0,0.0,0.0,0.0,0.0,0.0,0.0,0.0,0.0,0.0,0.0,0.0,0.0,0.0,0.0,0.0,0.0,0.0,0.0,0.0,-3.2778,-3.2778,-3.2793,-3.2778,-3.2778,-3.2778,-3.2778,-3.2778,-3.2778,-3.2778,-3.2778,-3.2778,-3.2778,-3.2778,-3.2778,-3.2778,-3.2778,-3.294,-3.4669,-3.5336,-3.5668,-3.7397,-3.8255,-3.8477,-3.9046,-3.9426,-3.9612,-3.9991,-4.0352,-4.03,-3.831,-4.03,-4.3087,-4.1657,-4.3814,-4.7129,-4.7949,-4.8223,-4.7935,-4.6448,-4.5979,-4.4832,-4.1012,-3.9867,-3.9299,-3.7174,-3.6597,-3.67,-3.7022,-3.7563,-3.8002,-3.8017,-3.828,-3.9122,-4.1329,-4.1468,-4.1246,-4.1416,-4.0642,-3.9532,-3.788,-3.9228,-4.1097,-4.3573,-4.6163,-4.8405,-5.055,-5.1172,-5.1055,-5.0195,-5.0566,-5.043,-4.957,-4.9941,-4.9961,-4.9492,-4.9473,-4.9043,-4.8203,-4.8613,-4.8828,-4.8828,-4.8828,-4.8808,0.0,0.0,0.0,0.0,0.0,0.0,0.0,0.0,0.0,0.0,0.0,0.0,0.0,0.0,0.0,0.0,0.0,0.0,0.0,0.0,0.0,0.0,0.0,0.0,0.0,0.0,0.0,0.0,0.0,-3.2778,-3.2778,-3.2778,-3.2778,-3.2778,-3.2778,-3.2778,-3.2778,-3.2778,-3.2778,-3.2778,-3.2778,-3.2778,-3.2778,-3.2778,-3.2778,-3.2763,-3.3455,-3.4494,-3.551,-3.6172,-3.7208,-3.8272,-3.8648,-3.8191,-3.732,-3.7908,-3.751,-3.6389,-3.5896,-3.7407,-3.9822,-4.0726,-4.3051,-4.5781,-4.7644,-4.7443,-4.656,-4.5924,-4.3867,-4.159,-4.0061,-3.8714,-3.7568,-3.6795,-3.6758,-3.7007,-3.7329,-3.7753,-3.8061,-3.8061,-3.8324,-3.8737,-3.9552,-3.9446,-3.9296,-3.929,-3.9064,-3.8478,-3.7795,-3.8245,-3.9968,-4.3139,-4.4876,-4.7201,-5.0239,-5.1035,-5.1191,-5.0625,-5.0976,-5.082,-4.998,-5.0605,-5.0527,-4.9551,-4.9805,-4.9512,-4.8633,-4.8789,-4.8867,-4.8867,-4.8867,-4.8867,0.0,0.0,0.0,0.0,0.0,0.0,0.0,0.0,0.0,0.0,0.0,0.0,0.0,0.0,0.0,0.0,0.0,0.0,0.0,0.0,0.0,0.0,0.0,0.0,0.0,0.0,0.0,0.0,0.0,0.0,-3.2763,-3.2778,-3.2719,-3.2617,-3.2602,-3.2559,-3.2441,-3.2559,-3.2602,-3.2602,-3.2719,-3.2778,-3.2778,-3.2778,-3.2778,-3.2778,-3.2778,-3.3455,-3.4669,-3.4653,-3.5336,-3.6378,-3.6796,-3.6099,-3.5049,-3.5785,-3.5182,-3.4271,-3.4592,-3.5957,-3.7823,-3.964,-4.1672,-4.392,-4.563,-4.5462,-4.4643,-4.3867,-4.1783,-3.9478,-3.8909,-3.7568,-3.6597,-3.6597,-3.6846,-3.7153,-3.7373,-3.7665,-3.7973,-3.8178,-3.8309,-3.8412,-3.8514,-3.8543,-3.847,-3.8251,-3.8134,-3.8017,-3.7914,-3.8002,-3.9531,-4.3315,-4.4556,-4.6608,-5.0242,-5.1113,-5.125,-5.084,-5.1191,-5.1113,-5.041,-5.1055,-5.0898,-4.9766,-5.0176,-4.9883,-4.8867,-4.8867,-4.8867,-4.8867,-4.8867,-4.8867,0.0,0.0,0.0,0.0,0.0,0.0,0.0,0.0,0.0,0.0,0.0,0.0,0.0,0.0,0.0,0.0,0.0,0.0,0.0,0.0,0.0,0.0,0.0,0.0,0.0,0.0,0.0,0.0,-3.2456,-3.2412,-3.2719,-3.2749,-3.2602,-3.2295,-3.228,-3.212,-3.1812,-3.212,-3.228,-3.228,-3.2602,-3.2763,-3.2778,-3.2778,-3.2778,-3.2778,-3.2778,-3.2778,-3.2778,-3.2778,-3.2778,-3.2778,-3.2778,-3.2968,-3.329,-3.3612,-3.3934,-3.4271,-3.4592,-3.5972,-3.7639,-3.7988,-3.9632,-4.1679,-4.2039,-4.2416,-4.215,-4.0255,-3.9673,-3.9104,-3.7189,-3.6597,-3.6597,-3.6597,-3.6846,-3.7065,-3.7095,-3.7329,-3.7739,-3.8397,-3.828,-3.8163,-3.8485,-3.8543,-3.8529,-3.8529,-3.8265,-3.8192,-3.8485,-3.8265,-3.9806,-4.4564,-4.5001,-4.6804,-5.1017,-5.1426,-5.125,-5.0859,-5.1017,-5.1037,-5.0628,-5.1017,-5.0842,-5.0005,-5.0395,-5.0176,-4.8887,-4.8887,-4.8867,-4.8867,-4.8867,-4.8867,-2.4154,0.0,0.0,0.0,0.0,0.0,0.0,0.0,0.0,0.0,0.0,0.0,0.0,0.0,0.0,0.0,0.0,0.0,0.0,0.0,0.0,0.0,0.0,0.0,0.0,0.0,0.0,0.0,-3.2207,-3.2222,-3.2076,-3.2061,-3.2134,-3.228,-3.2061,-3.2002,-3.2149,-3.2002,-3.2046,-3.228,-3.2383,-3.2544,-3.2778,-3.2778,-3.2778,-3.2778,-3.2778,-3.2778,-3.2778,-3.2778,-3.2778,-3.2778,-3.2778,-3.2968,-3.329,-3.3612,-3.3934,-3.4271,-3.4592,-3.5069,-3.5801,-3.7348,-3.8505,-3.9756,-4.1357,-4.1264,-4.0432,-3.9867,-3.8714,-3.7371,-3.6795,-3.6436,-3.6305,-3.6553,-3.6495,-3.6509,-3.6992,-3.6978,-3.7139,-3.8031,-3.8119,-3.8163,-3.8485,-3.8543,-3.8456,-3.8236,-3.8324,-3.8353,-3.8221,-3.8324,-3.9958,-4.4208,-4.4847,-4.6715,-5.061,-4.985,-4.9769,-5.1076,-4.8355,-4.7239,-4.8443,-4.7419,-4.6448,-4.5452,-4.7406,-4.8089,-4.7436,-4.8704,-4.918,-4.8867,-4.8867,-4.8867,0.0,0.0,0.0,0.0,0.0,0.0,-2.552,-2.6032,-2.6691,0.0,-2.8403,0.0,0.0,0.0,0.0,0.0,0.0,0.0,0.0,0.0,0.0,0.0,0.0,0.0,0.0,-3.1549,-3.1505,-3.1783,-3.1841,-3.1856,-3.1798,-3.1798,-3.1885,-3.2076,-3.1768,-3.1681,-3.1871,-3.1695,-3.1754,-3.2076,-3.2222,-3.2456,-3.2778,-3.2778,-3.2778,-3.2778,-3.2778,-3.2778,-3.2778,-3.2778,-3.2778,-3.2778,-3.2778,-3.2968,-3.329,-3.3612,-3.3934,-3.4271,-3.4592,-3.471,-3.4882,-3.5972,-3.6961,-3.7691,-3.8813,-3.8749,-3.8338,-3.8338,-3.7568,-3.6568,-3.6436,-3.6261,-3.6173,-3.6348,-3.6261,-3.6261,-3.6773,-3.6744,-3.689,-3.787,-3.7958,-3.8002,-3.8456,-3.8543,-3.8426,-3.8119,-3.8339,-3.8426,-3.8104,-3.8339,-4.008,-4.4293,-4.4882,-4.6335,-4.9485,-4.8693,-4.841,-4.8626,-4.6423,-4.5918,-4.7686,-4.61,-4.5127,-4.5309,-4.7075,-4.8071,-4.8629,-4.9239,-4.9394,-4.9141,-4.9141,-4.9141,0.0,0.0,0.0,0.0,0.0,0.0,-2.5564,-2.5857,-2.6105,-2.6793,-2.7627,0.0,0.0,-2.9383,-2.9573,-3.0203,-3.0364,-3.0598,0.0,0.0,0.0,0.0,0.0,0.0,-3.1637,-3.1168,-3.1066,-3.1651,-3.1417,-3.1402,-3.1724,-3.171,-3.171,-3.1739,-3.1432,-3.1285,-3.1359,-3.13,-3.1446,-3.1798,-3.209,-3.2398,-3.2719,-3.2749,-3.2778,-3.2778,-3.2778,-3.2778,-3.2778,-3.2778,-3.2778,-3.2778,-3.2778,-3.2983,-3.3334,-3.3627,-3.3963,-3.4314,-3.4651,-3.4753,-3.4768,-3.4797,-3.5207,-3.569,-3.569,-3.6114,-3.6597,-3.6597,-3.6583,-3.648,-3.6187,-3.6085,-3.607,-3.6114,-3.6114,-3.6202,-3.6539,-3.6597,-3.6875,-3.7782,-3.7724,-3.7724,-3.8324,-3.8426,-3.8339,-3.8046,-3.828,-3.8382,-3.8104,-3.8339,-4.0157,-4.4211,-4.4615,-4.5421,-4.7618,-4.7618,-4.6822,-4.5019,-4.4615,-4.5203,-4.7419,-4.5404,-4.5048,-4.6503,-4.7437,-4.8834,-5.0801,-5.0,-4.959,-4.959,-4.9551,-4.9551,0.0,0.0,0.0,0.0,0.0,0.0,-2.4525,-2.4862,-2.5505,0.0,-2.6749,-2.7393,-2.9076,-2.9383,-2.95,-2.9895,-3.0393,-3.0773,-3.0905,-3.0861,-3.0876,0.0,0.0,0.0,-3.1007,-3.089,-3.0876,-3.1007,-3.0949,-3.1066,-3.1388,-3.1154,-3.1139,-3.1402,-3.1081,-3.1168,-3.1695,-3.1183,-3.1212,-3.1798,-3.1856,-3.2061,-3.2383,-3.2646,-3.2778,-3.2778,-3.2778,-3.2778,-3.2778,-3.2778,-3.2778,-3.2778,-3.2778,-3.3129,-3.3641,-3.3715,-3.411,-3.4651,-3.4958,-3.5075,-3.5105,-3.5383,-3.5719,-3.6027,-3.6027,-3.629,-3.6597,-3.6597,-3.6407,-3.6202,-3.6129,-3.5924,-3.5807,-3.6056,-3.6114,-3.6202,-3.6539,-3.6597,-3.6744,-3.7197,-3.7226,-3.7314,-3.7695,-3.7768,-3.7739,-3.768,-3.7943,-3.8134,-3.8075,-3.8339,-3.9552,-4.2179,-4.2383,-4.3384,-4.5404,-4.3992,-4.3587,-4.5019,-4.1786,-4.076,-4.2978,-4.0965,-3.992,-4.0271,-4.3757,-4.7419,-5.0801,-5.0293,-5.0058,-5.0039,-4.9687,-4.9707,0.0,0.0,0.0,-2.473,0.0,0.0,0.0,-2.4701,-2.5037,-2.5857,-2.6018,-2.6413,-2.77,0.0,-2.8403,-2.9047,-2.9427,-2.991,-3.0715,-3.0685,-3.0583,-3.0583,0.0,0.0,-3.0583,-3.0729,-3.0817,-3.0817,-3.0817,-3.089,-3.1051,-3.092,-3.0978,-3.13,-3.0993,-3.1139,-3.1783,-3.1154,-3.1227,-3.2032,-3.1871,-3.2046,-3.2529,-3.269,-3.2778,-3.2778,-3.2778,-3.2778,-3.2778,-3.2778,-3.2778,-3.2778,-3.2778,-3.3071,-3.351,-3.3671,-3.4036,-3.4534,-3.4988,-3.5163,-3.5192,-3.5353,-3.5734,-3.6085,-3.5924,-3.6217,-3.6568,-3.6407,-3.6246,-3.6041,-3.5719,-3.5646,-3.569,-3.5851,-3.5997,-3.6202,-3.6539,-3.6597,-3.6656,-3.6817,-3.6846,-3.7007,-3.749,-3.7578,-3.7578,-3.7578,-3.7856,-3.8061,-3.8061,-3.8339,-3.9345,-4.1565,-4.177,-4.2179,-4.3384,-4.2383,-4.177,-4.177,-3.9759,-3.9552,-4.177,-3.9759,-3.8945,-4.0157,-4.3401,-4.6534,-4.9522,-5.032,-5.0586,-5.0176,-4.9961,-4.998,0.0,0.0,0.0,0.0,0.0,-2.5022,0.0,0.0,0.0,0.0,0.0,0.0,0.0,0.0,0.0,0.0,0.0,0.0,0.0,-3.032,0.0,-3.0422,-3.0276,0.0,-3.0334,-3.0525,-3.0656,-3.0729,-3.0729,-3.0759,-3.0817,-3.0817,-3.0949,-3.1212,-3.0964,-3.111,-3.1695,-3.1124,-3.1256,-3.209,-3.19,-3.2076,-3.2588,-3.2719,-3.2778,-3.2778,-3.2778,-3.2778,-3.2778,-3.2778,-3.2778,-3.2778,-3.2778,-3.2997,-3.3363,-3.3627,-3.3978,-3.4402,-3.5031,-3.5251,-3.5266,-3.5324,-3.569,-3.6085,-3.588,-3.6144,-3.6451,-3.6187,-3.6027,-3.5807,-3.5295,-3.5353,-3.5544,-3.5544,-3.5836,-3.6187,-3.6451,-3.6553,-3.6597,-3.6597,-3.6597,-3.6773,-3.73,-3.7387,-3.7431,-3.7563,-3.7797,-3.8017,-3.8134,-3.8382,-3.9137,-4.0965,-4.1171,-4.1171,-4.1171,-4.1171,-4.0363,-3.8529,-3.8543,-3.9345,-4.1171,-3.9552,-3.9552,-4.177,-4.3587,-4.5404,-4.7618,-4.9655,-5.0474,-5.0293,-5.0215,-5.0215,0.0,0.0,0.0,0.0,-2.612,0.0,0.0,0.0,0.0,-2.5154,0.0,0.0,0.0,0.0,0.0,0.0,0.0,0.0,-2.9442,-2.9515,-2.9807,-3.0671,-3.0012,0.0,0.0,-3.0129,-3.01,-3.0378,-3.0407,-3.0525,-3.0803,-3.0817,-3.0846,-3.0876,-3.0846,-3.0993,-3.1359,-3.1007,-3.1022,-3.1417,-3.1681,-3.1841,-3.1929,-3.2515,-3.2778,-3.2778,-3.2778,-3.2778,-3.2778,-3.2778,-3.2778,-3.2778,-3.2778,-3.3144,-3.3685,-3.3715,-3.4124,-3.4739,-3.5368,-3.5588,-3.5631,-3.5924,-3.6056,-3.6173,-3.6422,-3.6348,-3.6173,-3.6129,-3.5705,-3.5251,-3.5178,-3.5192,-3.5207,-3.5207,-3.5675,-3.6129,-3.6173,-3.6407,-3.6597,-3.6597,-3.6597,-3.6626,-3.67,-3.6714,-3.6919,-3.749,-3.7607,-3.7841,-3.8412,-3.8514,-3.8529,-3.8945,-3.8945,-3.8945,-3.8945,-3.8945,-3.8737,-3.8543,-3.8543,-3.8529,-3.8945,-3.8529,-3.9552,-4.177,-4.1974,-4.3181,-4.5421,-4.6698,-4.8648,-5.0723,-5.0351,-5.0371,0.0,0.0,0.0,0.0,0.0,0.0,-2.533,0.0,-2.533,0.0,0.0,0.0,0.0,0.0,0.0,0.0,-2.7422,0.0,0.0,0.0,-2.8564,0.0,0.0,0.0,0.0,0.0,0.0,0.0,-2.9954,-3.0129,-3.0261,-3.0451,-3.0627,-3.0817,-3.0817,-3.0978,-3.13,-3.0993,-3.1081,-3.1593,-3.1739,-3.19,-3.2105,-3.2559,-3.2778,-3.2778,-3.2778,-3.2778,-3.2778,-3.2778,-3.2778,-3.2793,-3.2968,-3.3217,-3.3495,-3.3875,-3.4183,-3.4505,-3.5149,-3.5353,-3.5441,-3.5953,-3.5997,-3.5895,-3.6231,-3.61,-3.5807,-3.5617,-3.5383,-3.5134,-3.4944,-3.5031,-3.5163,-3.5163,-3.5646,-3.6114,-3.6114,-3.6378,-3.6597,-3.6597,-3.6597,-3.6597,-3.6597,-3.6597,-3.6758,-3.7226,-3.7461,-3.7739,-3.8207,-3.8426,-3.8543,-3.8543,-3.8543,-3.8543,-3.8543,-3.8543,-3.8543,-3.8543,-3.8543,-3.8543,-3.8543,-3.8543,-3.8945,-3.995,-4.1171,-4.2179,-4.3198,-4.6268,-4.8071,-4.9007,-4.9529,-4.9902,-2.6413,0.0,0.0,0.0,0.0,0.0,0.0,0.0,0.0,0.0,0.0,0.0,0.0,0.0,0.0,0.0,0.0,-2.7188,0.0,-2.7466,0.0,0.0,0.0,0.0,0.0,0.0,-2.9632,-2.9398,-2.9515,-2.9676,-2.9851,-3.0086,-3.0407,-3.0817,-3.0817,-3.0934,-3.1183,-3.0934,-3.1066,-3.1534,-3.171,-3.1929,-3.2163,-3.2588,-3.2778,-3.2778,-3.2778,-3.2778,-3.2778,-3.2778,-3.2778,-3.2807,-3.3129,-3.3305,-3.3451,-3.4007,-3.4271,-3.4446,-3.5075,-3.5353,-3.5514,-3.607,-3.5983,-3.5705,-3.6027,-3.5836,-3.5456,-3.5222,-3.5105,-3.5002,-3.4768,-3.4871,-3.5061,-3.5134,-3.5588,-3.6012,-3.61,-3.6378,-3.6597,-3.6597,-3.6597,-3.6597,-3.6597,-3.6597,-3.6714,-3.7036,-3.7373,-3.7695,-3.8031,-3.8339,-3.8543,-3.8543,-3.8543,-3.8543,-3.8543,-3.8543,-3.8543,-3.8543,-3.8543,-3.8543,-3.8543,-3.8543,-3.8543,-3.8543,-4.0157,-4.0965,-4.0965,-4.4497,-4.6052,-4.5664,-4.8424,-4.9707,0.0,0.0,0.0,-2.6663,0.0,0.0,0.0,0.0,-2.5988,0.0,0.0,0.0,0.0,0.0,0.0,0.0,0.0,0.0,0.0,0.0,0.0,0.0,0.0,0.0,0.0,-2.9383,-2.9383,-2.9383,-2.909,-2.9193,-2.9837,-2.9866,-3.0173,-3.0803,-3.0817,-3.0832,-3.0846,-3.0832,-3.0832,-3.0861,-3.149,-3.1798,-3.1827,-3.2485,-3.2778,-3.2778,-3.2778,-3.2778,-3.2778,-3.2778,-3.2778,-3.2807,-3.3129,-3.3436,-3.3758,-3.4095,-3.4417,-3.4783,-3.5412,-3.5822,-3.6144,-3.648,-3.6158,-3.5705,-3.6027,-3.5675,-3.5163,-3.5163,-3.4944,-3.471,-3.471,-3.471,-3.4797,-3.509,-3.5412,-3.5749,-3.6056,-3.6378,-3.6597,-3.6597,-3.6597,-3.6597,-3.6597,-3.6597,-3.6714,-3.7036,-3.7373,-3.7695,-3.8031,-3.8339,-3.8543,-3.8543,-3.8543,-3.8543,-3.8543,-3.8543,-3.8543,-3.8543,-3.8543,-3.8543,-3.8543,-3.8543,-3.8543,-3.8543,-3.8543,-3.8529,-3.8529,-4.0419,-4.1071,-4.0937,-4.7213,-5.0156,0.0,0.0,-2.6836,-2.6757,0.0,0.0,0.0,0.0,0.0,0.0,0.0,0.0,0.0,0.0,0.0,0.0,0.0,0.0,0.0,0.0,0.0,0.0,0.0,0.0,0.0,0.0,0.0,-2.8139,-2.7613,-2.7686,-2.8549,-2.8988,-2.9515,-3.0173,-3.0598,-3.0817,-3.0817,-3.0817,-3.0817,-3.0832,-3.1271,-3.1593,-3.1812,-3.2251,-3.2573,-3.2778,-3.2778,-3.2778,-3.2778,-3.2778,-3.2778,-3.2807,-3.3129,-3.3583,-3.4066,-3.4183,-3.4549,-3.5061,-3.55,-3.5851,-3.6129,-3.6246,-3.5997,-3.5661,-3.5778,-3.5353,-3.4856,-3.4856,-3.4783,-3.471,-3.471,-3.4856,-3.5031,-3.5134,-3.5573,-3.5983,-3.61,-3.6378,-3.6597,-3.6597,-3.6597,-3.6597,-3.6597,-3.6597,-3.6641,-3.6744,-3.7051,-3.73,-3.7402,-3.7885,-3.8221,-3.8221,-3.8221,-3.8309,-3.8514,-3.8339,-3.8309,-3.8529,-3.8134,-3.809,-3.8514,-3.8339,-3.8324,-3.8529,-3.8543,-3.8441,-3.8221,-4.031,-4.1055,-4.0905,-4.4459,-4.5748,-2.7197,-2.6961,0.0,-2.6735,-2.6276,0.0,-2.5208,0.0,0.0,0.0,0.0,0.0,0.0,0.0,0.0,0.0,-2.7201,0.0,0.0,-2.5344,0.0,0.0,0.0,0.0,0.0,0.0,-2.7803,-2.7013,-2.6676,-2.6778,0.0,0.0,-2.89,-2.9661,-3.032,-3.0715,-3.0817,-3.0817,-3.0817,-3.0832,-3.1154,-3.1417,-3.1637,-3.2076,-3.2398,-3.2602,-3.2719,-3.2778,-3.2778,-3.2778,-3.2837,-3.2954,-3.3158,-3.3715,-3.4388,-3.4388,-3.4856,-3.5514,-3.5617,-3.5851,-3.61,-3.5983,-3.5734,-3.547,-3.547,-3.5119,-3.4753,-3.4973,-3.4871,-3.4783,-3.5119,-3.5192,-3.5222,-3.5441,-3.5822,-3.6144,-3.6261,-3.6451,-3.6597,-3.6597,-3.6597,-3.6597,-3.6597,-3.67,-3.6744,-3.6626,-3.6875,-3.7095,-3.7095,-3.7665,-3.8017,-3.79,-3.8002,-3.8104,-3.8192,-3.8002,-3.8031,-3.8353,-3.7973,-3.7987,-3.8514,-3.8339,-3.8485,-3.9041,-3.8602,-3.8441,-3.8573,-3.9631,-4.0078,-3.9737,-4.1248,-4.157]}]]